Wetterdaten: Sonntag, 04.12.2016
Datum Zeit Temp. A. Feuchte A. Luftdruck Regen Wind Richtung Richtung Sonnenschein ET UV Solar Taupunkt Windchill Windben Empfang
04.12.2016 00:00 -2,8 C 90 % 1026,7 hPa 0,0 l/m 8,9 km/h (2 Bft) O-NO 59 0 min 0,000 mm 0,0 UV-I 0 W/m -4,2 C -5,5 C 11,3 km/h (2 Bft) 97,37 %
04.12.2016 00:02 -2,8 C 90 % 1026,8 hPa 0,0 l/m 7,4 km/h (2 Bft) O-NO 63 0 min 0,000 mm 0,0 UV-I 0 W/m -4,2 C -3,9 C 9,7 km/h (2 Bft) 95,00 %
04.12.2016 00:04 -2,8 C 90 % 1026,8 hPa 0,0 l/m 6,0 km/h (2 Bft) NO 39 0 min 0,000 mm 0,0 UV-I 0 W/m -4,2 C -2,8 C 8,0 km/h (2 Bft) 96,00 %
04.12.2016 00:06 -2,8 C 90 % 1026,8 hPa 0,0 l/m 5,2 km/h (1 Bft) NO 52 0 min 0,000 mm 0,0 UV-I 0 W/m -4,2 C -2,8 C 8,0 km/h (2 Bft) 97,44 %
04.12.2016 00:08 -2,9 C 90 % 1026,8 hPa 0,0 l/m 6,4 km/h (2 Bft) NO 53 0 min 0,000 mm 0,0 UV-I 0 W/m -4,3 C -2,9 C 9,7 km/h (2 Bft) 95,12 %
04.12.2016 00:10 -2,9 C 90 % 1026,7 hPa 0,0 l/m 7,2 km/h (2 Bft) NO 40 0 min 0,000 mm 0,0 UV-I 0 W/m -4,3 C -3,8 C 9,7 km/h (2 Bft) 100,00 %
04.12.2016 00:12 -2,9 C 90 % 1026,7 hPa 0,0 l/m 6,6 km/h (2 Bft) NO 50 0 min 0,000 mm 0,0 UV-I 0 W/m -4,3 C -3,1 C 11,3 km/h (2 Bft) 100,00 %
04.12.2016 00:14 -2,9 C 91 % 1026,8 hPa 0,0 l/m 6,5 km/h (2 Bft) N-NO 30 0 min 0,000 mm 0,0 UV-I 0 W/m -4,2 C -3,0 C 12,9 km/h (3 Bft) 97,37 %
04.12.2016 00:16 -2,8 C 91 % 1026,7 hPa 0,0 l/m 7,8 km/h (2 Bft) NO 40 0 min 0,000 mm 0,0 UV-I 0 W/m -4,1 C -4,4 C 14,5 km/h (3 Bft) 98,11 %
04.12.2016 00:18 -2,8 C 91 % 1026,7 hPa 0,0 l/m 8,3 km/h (2 Bft) O-NO 57 0 min 0,000 mm 0,0 UV-I 0 W/m -4,1 C -4,9 C 14,5 km/h (3 Bft) 100,00 %
04.12.2016 00:20 -2,8 C 91 % 1026,8 hPa 0,0 l/m 6,0 km/h (2 Bft) NO 38 0 min 0,000 mm 0,0 UV-I 0 W/m -4,1 C -2,8 C 9,7 km/h (2 Bft) 97,37 %
04.12.2016 00:22 -2,7 C 91 % 1026,8 hPa 0,0 l/m 7,8 km/h (2 Bft) NO 46 0 min 0,000 mm 0,0 UV-I 0 W/m -4,0 C -4,3 C 11,3 km/h (2 Bft) 100,00 %
04.12.2016 00:24 -2,7 C 91 % 1026,7 hPa 0,0 l/m 9,2 km/h (2 Bft) NO 34 0 min 0,000 mm 0,0 UV-I 0 W/m -4,0 C -5,7 C 12,9 km/h (3 Bft) 100,00 %
04.12.2016 00:26 -2,7 C 91 % 1026,8 hPa 0,0 l/m 6,9 km/h (2 Bft) O-NO 61 0 min 0,000 mm 0,0 UV-I 0 W/m -4,0 C -3,3 C 11,3 km/h (2 Bft) 100,00 %
04.12.2016 00:28 -2,7 C 91 % 1026,8 hPa 0,0 l/m 7,9 km/h (2 Bft) O-NO 67 0 min 0,000 mm 0,0 UV-I 0 W/m -4,0 C -4,4 C 9,7 km/h (2 Bft) 100,00 %
04.12.2016 00:30 -2,7 C 91 % 1026,7 hPa 0,0 l/m 7,2 km/h (2 Bft) O-NO 59 0 min 0,000 mm 0,0 UV-I 0 W/m -4,0 C -3,6 C 11,3 km/h (2 Bft) 97,87 %
04.12.2016 00:32 -2,7 C 91 % 1026,7 hPa 0,0 l/m 7,8 km/h (2 Bft) O-NO 61 0 min 0,000 mm 0,0 UV-I 0 W/m -4,0 C -4,3 C 12,9 km/h (3 Bft) 100,00 %
04.12.2016 00:34 -2,7 C 91 % 1026,7 hPa 0,0 l/m 9,1 km/h (2 Bft) NO 49 0 min 0,000 mm 0,0 UV-I 0 W/m -4,0 C -5,6 C 14,5 km/h (3 Bft) 97,37 %
04.12.2016 00:36 -2,7 C 91 % 1026,8 hPa 0,0 l/m 7,3 km/h (2 Bft) O-NO 68 0 min 0,000 mm 0,0 UV-I 0 W/m -4,0 C -3,7 C 12,9 km/h (3 Bft) 98,11 %
04.12.2016 00:38 -2,6 C 91 % 1026,8 hPa 0,0 l/m 7,3 km/h (2 Bft) NO 51 0 min 0,000 mm 0,0 UV-I 0 W/m -3,9 C -3,6 C 9,7 km/h (2 Bft) 100,00 %
04.12.2016 00:40 -2,7 C 91 % 1026,8 hPa 0,0 l/m 8,3 km/h (2 Bft) NO 39 0 min 0,000 mm 0,0 UV-I 0 W/m -4,0 C -4,8 C 14,5 km/h (3 Bft) 98,11 %
04.12.2016 00:42 -2,6 C 91 % 1026,8 hPa 0,0 l/m 9,8 km/h (2 Bft) NO 42 0 min 0,000 mm 0,0 UV-I 0 W/m -3,9 C -6,1 C 17,7 km/h (3 Bft) 100,00 %
04.12.2016 00:44 -2,6 C 91 % 1026,7 hPa 0,0 l/m 10,8 km/h (2 Bft) NO 56 0 min 0,000 mm 0,0 UV-I 0 W/m -3,9 C -7,0 C 16,1 km/h (3 Bft) 100,00 %
04.12.2016 00:46 -2,6 C 91 % 1026,7 hPa 0,0 l/m 8,2 km/h (2 Bft) NO 38 0 min 0,000 mm 0,0 UV-I 0 W/m -3,9 C -4,6 C 16,1 km/h (3 Bft) 100,00 %
04.12.2016 00:48 -2,6 C 91 % 1026,7 hPa 0,0 l/m 7,5 km/h (2 Bft) O-NO 64 0 min 0,000 mm 0,0 UV-I 0 W/m -3,9 C -3,8 C 11,3 km/h (2 Bft) 100,00 %
04.12.2016 00:50 -2,6 C 91 % 1026,7 hPa 0,0 l/m 11,8 km/h (2 Bft) NO 50 0 min 0,000 mm 0,0 UV-I 0 W/m -3,9 C -7,8 C 17,7 km/h (3 Bft) 100,00 %
04.12.2016 00:52 -2,6 C 91 % 1026,8 hPa 0,0 l/m 10,3 km/h (2 Bft) O-NO 71 0 min 0,000 mm 0,0 UV-I 0 W/m -3,9 C -6,6 C 16,1 km/h (3 Bft) 100,00 %
04.12.2016 00:54 -2,6 C 91 % 1026,7 hPa 0,0 l/m 9,7 km/h (2 Bft) NO 41 0 min 0,000 mm 0,0 UV-I 0 W/m -3,9 C -6,0 C 14,5 km/h (3 Bft) 100,00 %
04.12.2016 00:56 -2,5 C 90 % 1026,8 hPa 0,0 l/m 7,6 km/h (2 Bft) NO 52 0 min 0,000 mm 0,0 UV-I 0 W/m -3,9 C -3,8 C 11,3 km/h (2 Bft) 94,74 %
04.12.2016 00:58 -2,5 C 91 % 1026,8 hPa 0,0 l/m 6,8 km/h (2 Bft) NO 55 0 min 0,000 mm 0,0 UV-I 0 W/m -3,8 C -2,9 C 14,5 km/h (3 Bft) 100,00 %
04.12.2016 01:00 -2,6 C 90 % 1026,8 hPa 0,0 l/m 10,7 km/h (2 Bft) NO 51 0 min 0,000 mm 0,0 UV-I 0 W/m -4,0 C -6,9 C 16,1 km/h (3 Bft) 100,00 %
04.12.2016 01:01 -2,6 C 90 % 1026,8 hPa 0,0 l/m 7,3 km/h (2 Bft) NO 46 0 min 0,000 mm 0,0 UV-I 0 W/m -4,0 C -3,6 C 11,3 km/h (2 Bft) 100,00 %
04.12.2016 01:04 -2,6 C 90 % 1026,8 hPa 0,0 l/m 8,7 km/h (2 Bft) NO 44 0 min 0,000 mm 0,0 UV-I 0 W/m -4,0 C -5,1 C 12,9 km/h (3 Bft) 95,12 %
04.12.2016 01:06 -2,6 C 91 % 1026,8 hPa 0,0 l/m 7,9 km/h (2 Bft) O-NO 62 0 min 0,000 mm 0,0 UV-I 0 W/m -3,9 C -4,3 C 14,5 km/h (3 Bft) 100,00 %
04.12.2016 01:08 -2,6 C 91 % 1026,8 hPa 0,0 l/m 7,1 km/h (2 Bft) NO 46 0 min 0,000 mm 0,0 UV-I 0 W/m -3,9 C -3,4 C 9,7 km/h (2 Bft) 100,00 %
04.12.2016 01:10 -2,7 C 91 % 1026,8 hPa 0,0 l/m 7,6 km/h (2 Bft) NO 42 0 min 0,000 mm 0,0 UV-I 0 W/m -4,0 C -4,0 C 9,7 km/h (2 Bft) 100,00 %
04.12.2016 01:12 -2,7 C 91 % 1026,8 hPa 0,0 l/m 5,9 km/h (2 Bft) NO 51 0 min 0,000 mm 0,0 UV-I 0 W/m -4,0 C -2,7 C 8,0 km/h (2 Bft) 98,11 %
04.12.2016 01:14 -2,7 C 91 % 1026,9 hPa 0,0 l/m 7,4 km/h (2 Bft) NO 46 0 min 0,000 mm 0,0 UV-I 0 W/m -4,0 C -3,8 C 12,9 km/h (3 Bft) 100,00 %
04.12.2016 01:16 -2,8 C 91 % 1026,9 hPa 0,0 l/m 7,8 km/h (2 Bft) N-NO 24 0 min 0,000 mm 0,0 UV-I 0 W/m -4,1 C -4,4 C 12,9 km/h (3 Bft) 100,00 %
04.12.2016 01:18 -2,8 C 91 % 1026,9 hPa 0,0 l/m 11,1 km/h (2 Bft) NO 41 0 min 0,000 mm 0,0 UV-I 0 W/m -4,1 C -7,5 C 17,7 km/h (3 Bft) 97,37 %
04.12.2016 01:20 -2,8 C 91 % 1026,9 hPa 0,0 l/m 10,2 km/h (2 Bft) NO 44 0 min 0,000 mm 0,0 UV-I 0 W/m -4,1 C -6,7 C 16,1 km/h (3 Bft) 100,00 %
04.12.2016 01:22 -2,8 C 91 % 1026,9 hPa 0,0 l/m 10,3 km/h (2 Bft) NO 44 0 min 0,000 mm 0,0 UV-I 0 W/m -4,1 C -6,8 C 17,7 km/h (3 Bft) 100,00 %
04.12.2016 01:24 -2,8 C 91 % 1027,0 hPa 0,0 l/m 8,5 km/h (2 Bft) N-NO 33 0 min 0,000 mm 0,0 UV-I 0 W/m -4,1 C -5,1 C 14,5 km/h (3 Bft) 95,12 %
04.12.2016 01:26 -2,8 C 91 % 1026,9 hPa 0,0 l/m 9,0 km/h (2 Bft) O-NO 61 0 min 0,000 mm 0,0 UV-I 0 W/m -4,1 C -5,6 C 12,9 km/h (3 Bft) 100,00 %
04.12.2016 01:28 -2,8 C 91 % 1027,0 hPa 0,0 l/m 7,1 km/h (2 Bft) NO 54 0 min 0,000 mm 0,0 UV-I 0 W/m -4,1 C -3,6 C 11,3 km/h (2 Bft) 100,00 %
04.12.2016 01:30 -2,8 C 91 % 1027,0 hPa 0,0 l/m 9,3 km/h (2 Bft) O-NO 64 0 min 0,000 mm 0,0 UV-I 0 W/m -4,1 C -5,9 C 14,5 km/h (3 Bft) 100,00 %
04.12.2016 01:32 -2,8 C 91 % 1027,0 hPa 0,0 l/m 10,2 km/h (2 Bft) NO 45 0 min 0,000 mm 0,0 UV-I 0 W/m -4,1 C -6,7 C 14,5 km/h (3 Bft) 100,00 %
04.12.2016 01:34 -2,8 C 91 % 1027,0 hPa 0,0 l/m 9,1 km/h (2 Bft) O-NO 64 0 min 0,000 mm 0,0 UV-I 0 W/m -4,1 C -5,7 C 14,5 km/h (3 Bft) 98,11 %
04.12.2016 01:36 -2,8 C 91 % 1027,1 hPa 0,0 l/m 8,2 km/h (2 Bft) NO 49 0 min 0,000 mm 0,0 UV-I 0 W/m -4,1 C -4,8 C 14,5 km/h (3 Bft) 97,73 %
04.12.2016 01:38 -2,8 C 91 % 1027,0 hPa 0,0 l/m 10,2 km/h (2 Bft) NO 46 0 min 0,000 mm 0,0 UV-I 0 W/m -4,1 C -6,7 C 14,5 km/h (3 Bft) 95,12 %
04.12.2016 01:40 -2,8 C 91 % 1027,0 hPa 0,0 l/m 9,5 km/h (2 Bft) O-NO 57 0 min 0,000 mm 0,0 UV-I 0 W/m -4,1 C -6,1 C 14,5 km/h (3 Bft) 96,43 %
04.12.2016 01:42 -2,8 C 91 % 1027,0 hPa 0,0 l/m 9,9 km/h (2 Bft) NO 54 0 min 0,000 mm 0,0 UV-I 0 W/m -4,1 C -6,5 C 12,9 km/h (3 Bft) 97,37 %
04.12.2016 01:44 -2,8 C 91 % 1027,0 hPa 0,0 l/m 10,3 km/h (2 Bft) O-NO 61 0 min 0,000 mm 0,0 UV-I 0 W/m -4,1 C -6,8 C 14,5 km/h (3 Bft) 98,21 %
04.12.2016 01:46 -2,8 C 91 % 1027,1 hPa 0,0 l/m 10,5 km/h (2 Bft) O 86 0 min 0,000 mm 0,0 UV-I 0 W/m -4,1 C -7,0 C 14,5 km/h (3 Bft) 98,00 %
04.12.2016 01:48 -2,8 C 91 % 1027,1 hPa 0,0 l/m 11,3 km/h (2 Bft) O-NO 66 0 min 0,000 mm 0,0 UV-I 0 W/m -4,1 C -7,7 C 16,1 km/h (3 Bft) 97,37 %
04.12.2016 01:50 -2,8 C 91 % 1027,0 hPa 0,0 l/m 10,8 km/h (2 Bft) NO 49 0 min 0,000 mm 0,0 UV-I 0 W/m -4,1 C -7,2 C 16,1 km/h (3 Bft) 97,73 %
04.12.2016 01:52 -2,8 C 91 % 1027,1 hPa 0,0 l/m 10,5 km/h (2 Bft) NO 46 0 min 0,000 mm 0,0 UV-I 0 W/m -4,1 C -7,0 C 16,1 km/h (3 Bft) 96,23 %
04.12.2016 01:54 -2,8 C 91 % 1027,1 hPa 0,0 l/m 11,9 km/h (2 Bft) O-NO 57 0 min 0,000 mm 0,0 UV-I 0 W/m -4,1 C -8,1 C 16,1 km/h (3 Bft) 97,56 %
04.12.2016 01:56 -2,8 C 91 % 1027,1 hPa 0,0 l/m 10,8 km/h (2 Bft) NO 42 0 min 0,000 mm 0,0 UV-I 0 W/m -4,1 C -7,2 C 16,1 km/h (3 Bft) 98,11 %
04.12.2016 01:58 -2,8 C 91 % 1027,1 hPa 0,0 l/m 13,3 km/h (3 Bft) O-NO 77 0 min 0,000 mm 0,0 UV-I 0 W/m -4,1 C -9,2 C 17,7 km/h (3 Bft) 97,56 %
04.12.2016 02:00 -2,8 C 91 % 1027,1 hPa 0,0 l/m 9,4 km/h (2 Bft) NO 46 0 min 0,000 mm 0,0 UV-I 0 W/m -4,1 C -6,0 C 16,1 km/h (3 Bft) 94,34 %
04.12.2016 02:02 -2,8 C 91 % 1027,1 hPa 0,0 l/m 10,4 km/h (2 Bft) O-NO 58 0 min 0,000 mm 0,0 UV-I 0 W/m -4,1 C -6,9 C 16,1 km/h (3 Bft) 97,56 %
04.12.2016 02:04 -2,8 C 91 % 1027,1 hPa 0,0 l/m 9,2 km/h (2 Bft) NO 49 0 min 0,000 mm 0,0 UV-I 0 W/m -4,1 C -5,8 C 14,5 km/h (3 Bft) 98,11 %
04.12.2016 02:06 -2,8 C 91 % 1027,1 hPa 0,0 l/m 9,0 km/h (2 Bft) NO 46 0 min 0,000 mm 0,0 UV-I 0 W/m -4,1 C -5,6 C 12,9 km/h (3 Bft) 97,67 %
04.12.2016 02:08 -2,9 C 91 % 1027,2 hPa 0,0 l/m 7,4 km/h (2 Bft) NO 53 0 min 0,000 mm 0,0 UV-I 0 W/m -4,2 C -4,0 C 9,7 km/h (2 Bft) 96,00 %
04.12.2016 02:10 -2,9 C 91 % 1027,1 hPa 0,0 l/m 7,0 km/h (2 Bft) NO 53 0 min 0,000 mm 0,0 UV-I 0 W/m -4,2 C -3,6 C 9,7 km/h (2 Bft) 100,00 %
04.12.2016 02:12 -2,9 C 91 % 1027,1 hPa 0,0 l/m 9,7 km/h (2 Bft) NO 46 0 min 0,000 mm 0,0 UV-I 0 W/m -4,2 C -6,4 C 14,5 km/h (3 Bft) 96,43 %
04.12.2016 02:14 -3,0 C 92 % 1027,1 hPa 0,0 l/m 8,0 km/h (2 Bft) O-NO 59 0 min 0,000 mm 0,0 UV-I 0 W/m -4,1 C -4,8 C 12,9 km/h (3 Bft) 100,00 %
04.12.2016 02:16 -3,0 C 92 % 1027,2 hPa 0,0 l/m 7,5 km/h (2 Bft) O-NO 59 0 min 0,000 mm 0,0 UV-I 0 W/m -4,1 C -4,2 C 9,7 km/h (2 Bft) 96,43 %
04.12.2016 02:18 -3,1 C 92 % 1027,2 hPa 0,0 l/m 7,5 km/h (2 Bft) O-NO 57 0 min 0,000 mm 0,0 UV-I 0 W/m -4,2 C -4,4 C 9,7 km/h (2 Bft) 100,00 %
04.12.2016 02:20 -3,1 C 92 % 1027,2 hPa 0,0 l/m 7,0 km/h (2 Bft) O-NO 67 0 min 0,000 mm 0,0 UV-I 0 W/m -4,2 C -3,8 C 9,7 km/h (2 Bft) 100,00 %
04.12.2016 02:22 -3,1 C 92 % 1027,2 hPa 0,0 l/m 6,6 km/h (2 Bft) NO 54 0 min 0,000 mm 0,0 UV-I 0 W/m -4,2 C -3,3 C 11,3 km/h (2 Bft) 98,00 %
04.12.2016 02:24 -3,1 C 92 % 1027,2 hPa 0,0 l/m 6,8 km/h (2 Bft) N-NO 15 0 min 0,000 mm 0,0 UV-I 0 W/m -4,2 C -3,5 C 11,3 km/h (2 Bft) 100,00 %
04.12.2016 02:26 -3,1 C 92 % 1027,2 hPa 0,0 l/m 6,8 km/h (2 Bft) O-NO 59 0 min 0,000 mm 0,0 UV-I 0 W/m -4,2 C -3,5 C 9,7 km/h (2 Bft) 100,00 %
04.12.2016 02:28 -3,2 C 92 % 1027,2 hPa 0,0 l/m 9,6 km/h (2 Bft) N-NO 31 0 min 0,000 mm 0,0 UV-I 0 W/m -4,3 C -6,6 C 14,5 km/h (3 Bft) 100,00 %
04.12.2016 02:30 -3,2 C 92 % 1027,2 hPa 0,0 l/m 10,7 km/h (2 Bft) NO 35 0 min 0,000 mm 0,0 UV-I 0 W/m -4,3 C -7,6 C 16,1 km/h (3 Bft) 95,12 %
04.12.2016 02:32 -3,2 C 92 % 1027,2 hPa 0,0 l/m 9,9 km/h (2 Bft) N-NO 23 0 min 0,000 mm 0,0 UV-I 0 W/m -4,3 C -6,9 C 14,5 km/h (3 Bft) 100,00 %
04.12.2016 02:34 -3,3 C 92 % 1027,2 hPa 0,0 l/m 9,4 km/h (2 Bft) N-NO 32 0 min 0,000 mm 0,0 UV-I 0 W/m -4,4 C -6,5 C 14,5 km/h (3 Bft) 100,00 %
04.12.2016 02:36 -3,3 C 92 % 1027,2 hPa 0,0 l/m 8,4 km/h (2 Bft) N-NO 30 0 min 0,000 mm 0,0 UV-I 0 W/m -4,4 C -5,5 C 12,9 km/h (3 Bft) 95,45 %
04.12.2016 02:38 -3,3 C 92 % 1027,2 hPa 0,0 l/m 8,5 km/h (2 Bft) O-NO 64 0 min 0,000 mm 0,0 UV-I 0 W/m -4,4 C -5,6 C 12,9 km/h (3 Bft) 98,00 %
04.12.2016 02:40 -3,3 C 92 % 1027,2 hPa 0,0 l/m 6,8 km/h (2 Bft) O-NO 67 0 min 0,000 mm 0,0 UV-I 0 W/m -4,4 C -3,7 C 9,7 km/h (2 Bft) 100,00 %
04.12.2016 02:42 -3,3 C 92 % 1027,2 hPa 0,0 l/m 6,8 km/h (2 Bft) NO 55 0 min 0,000 mm 0,0 UV-I 0 W/m -4,4 C -3,7 C 9,7 km/h (2 Bft) 100,00 %
04.12.2016 02:44 -3,3 C 92 % 1027,2 hPa 0,0 l/m 7,2 km/h (2 Bft) NO 37 0 min 0,000 mm 0,0 UV-I 0 W/m -4,4 C -4,2 C 9,7 km/h (2 Bft) 96,36 %
04.12.2016 02:46 -3,3 C 93 % 1027,2 hPa 0,0 l/m 6,0 km/h (2 Bft) O-NO 61 0 min 0,000 mm 0,0 UV-I 0 W/m -4,3 C -3,3 C 9,7 km/h (2 Bft) 96,00 %
04.12.2016 02:48 -3,3 C 93 % 1027,2 hPa 0,0 l/m 7,2 km/h (2 Bft) O-NO 67 0 min 0,000 mm 0,0 UV-I 0 W/m -4,3 C -4,2 C 11,3 km/h (2 Bft) 100,00 %
04.12.2016 02:50 -3,3 C 93 % 1027,2 hPa 0,0 l/m 7,5 km/h (2 Bft) NO 53 0 min 0,000 mm 0,0 UV-I 0 W/m -4,3 C -4,6 C 12,9 km/h (3 Bft) 100,00 %
04.12.2016 02:52 -3,3 C 93 % 1027,2 hPa 0,0 l/m 5,5 km/h (1 Bft) NO 36 0 min 0,000 mm 0,0 UV-I 0 W/m -4,3 C -3,3 C 9,7 km/h (2 Bft) 100,00 %
04.12.2016 02:54 -3,3 C 93 % 1027,2 hPa 0,0 l/m 6,5 km/h (2 Bft) O-NO 58 0 min 0,000 mm 0,0 UV-I 0 W/m -4,3 C -3,4 C 9,7 km/h (2 Bft) 97,56 %
04.12.2016 02:56 -3,3 C 93 % 1027,2 hPa 0,0 l/m 6,1 km/h (2 Bft) NO 36 0 min 0,000 mm 0,0 UV-I 0 W/m -4,3 C -3,3 C 9,7 km/h (2 Bft) 95,74 %
04.12.2016 02:58 -3,3 C 93 % 1027,2 hPa 0,0 l/m 5,8 km/h (2 Bft) NO 40 0 min 0,000 mm 0,0 UV-I 0 W/m -4,3 C -3,3 C 9,7 km/h (2 Bft) 96,23 %
04.12.2016 03:00 -3,3 C 93 % 1027,2 hPa 0,0 l/m 5,8 km/h (2 Bft) NO 44 0 min 0,000 mm 0,0 UV-I 0 W/m -4,3 C -3,3 C 9,7 km/h (2 Bft) 94,74 %
04.12.2016 03:02 -3,4 C 92 % 1027,2 hPa 0,0 l/m 8,4 km/h (2 Bft) NO 49 0 min 0,000 mm 0,0 UV-I 0 W/m -4,5 C -5,6 C 14,5 km/h (3 Bft) 98,00 %
04.12.2016 03:04 -3,4 C 92 % 1027,1 hPa 0,0 l/m 9,5 km/h (2 Bft) NO 36 0 min 0,000 mm 0,0 UV-I 0 W/m -4,5 C -6,7 C 12,9 km/h (3 Bft) 100,00 %
04.12.2016 03:06 -3,5 C 93 % 1027,1 hPa 0,0 l/m 8,9 km/h (2 Bft) NO 39 0 min 0,000 mm 0,0 UV-I 0 W/m -4,5 C -6,3 C 12,9 km/h (3 Bft) 100,00 %
04.12.2016 03:08 -3,5 C 93 % 1027,1 hPa 0,0 l/m 6,2 km/h (2 Bft) NO 52 0 min 0,000 mm 0,0 UV-I 0 W/m -4,5 C -3,5 C 9,7 km/h (2 Bft) 100,00 %
04.12.2016 03:10 -3,5 C 93 % 1027,1 hPa 0,0 l/m 5,9 km/h (2 Bft) O-NO 57 0 min 0,000 mm 0,0 UV-I 0 W/m -4,5 C -3,5 C 9,7 km/h (2 Bft) 100,00 %
04.12.2016 03:12 -3,4 C 93 % 1027,1 hPa 0,0 l/m 5,6 km/h (1 Bft) NO 55 0 min 0,000 mm 0,0 UV-I 0 W/m -4,4 C -3,4 C 9,7 km/h (2 Bft) 100,00 %
04.12.2016 03:14 -3,4 C 93 % 1027,0 hPa 0,0 l/m 5,8 km/h (2 Bft) O-NO 67 0 min 0,000 mm 0,0 UV-I 0 W/m -4,4 C -3,4 C 8,0 km/h (2 Bft) 96,43 %
04.12.2016 03:16 -3,5 C 93 % 1027,0 hPa 0,0 l/m 5,3 km/h (1 Bft) NO 40 0 min 0,000 mm 0,0 UV-I 0 W/m -4,5 C -3,5 C 8,0 km/h (2 Bft) 100,00 %
04.12.2016 03:18 -3,6 C 93 % 1027,0 hPa 0,0 l/m 8,1 km/h (2 Bft) NO 53 0 min 0,000 mm 0,0 UV-I 0 W/m -4,6 C -5,5 C 12,9 km/h (3 Bft) 100,00 %
04.12.2016 03:20 -3,6 C 93 % 1027,0 hPa 0,0 l/m 8,5 km/h (2 Bft) NO 34 0 min 0,000 mm 0,0 UV-I 0 W/m -4,6 C -6,0 C 11,3 km/h (2 Bft) 100,00 %
04.12.2016 03:22 -3,6 C 93 % 1027,0 hPa 0,0 l/m 10,7 km/h (2 Bft) N-NO 32 0 min 0,000 mm 0,0 UV-I 0 W/m -4,6 C -8,1 C 16,1 km/h (3 Bft) 100,00 %
04.12.2016 03:24 -3,6 C 93 % 1027,0 hPa 0,0 l/m 10,8 km/h (2 Bft) NO 40 0 min 0,000 mm 0,0 UV-I 0 W/m -4,6 C -8,1 C 14,5 km/h (3 Bft) 100,00 %
04.12.2016 03:26 -3,6 C 93 % 1027,0 hPa 0,0 l/m 13,1 km/h (3 Bft) N-NO 26 0 min 0,000 mm 0,0 UV-I 0 W/m -4,6 C -10,0 C 17,7 km/h (3 Bft) 100,00 %
04.12.2016 03:28 -3,6 C 93 % 1027,0 hPa 0,0 l/m 11,4 km/h (2 Bft) NO 44 0 min 0,000 mm 0,0 UV-I 0 W/m -4,6 C -8,7 C 14,5 km/h (3 Bft) 100,00 %
04.12.2016 03:30 -3,6 C 93 % 1027,0 hPa 0,0 l/m 9,7 km/h (2 Bft) NO 37 0 min 0,000 mm 0,0 UV-I 0 W/m -4,6 C -7,1 C 16,1 km/h (3 Bft) 100,00 %
04.12.2016 03:32 -3,6 C 93 % 1027,0 hPa 0,0 l/m 12,8 km/h (3 Bft) NO 43 0 min 0,000 mm 0,0 UV-I 0 W/m -4,6 C -9,8 C 16,1 km/h (3 Bft) 100,00 %
04.12.2016 03:34 -3,6 C 93 % 1027,0 hPa 0,0 l/m 10,8 km/h (2 Bft) NO 47 0 min 0,000 mm 0,0 UV-I 0 W/m -4,6 C -8,1 C 17,7 km/h (3 Bft) 100,00 %
04.12.2016 03:36 -3,5 C 93 % 1026,9 hPa 0,0 l/m 9,0 km/h (2 Bft) N-NO 32 0 min 0,000 mm 0,0 UV-I 0 W/m -4,5 C -6,4 C 14,5 km/h (3 Bft) 100,00 %
04.12.2016 03:38 -3,5 C 93 % 1026,9 hPa 0,0 l/m 10,3 km/h (2 Bft) O-NO 69 0 min 0,000 mm 0,0 UV-I 0 W/m -4,5 C -7,6 C 16,1 km/h (3 Bft) 96,00 %
04.12.2016 03:40 -3,4 C 93 % 1026,9 hPa 0,0 l/m 8,1 km/h (2 Bft) N-NO 32 0 min 0,000 mm 0,0 UV-I 0 W/m -4,4 C -5,3 C 14,5 km/h (3 Bft) 100,00 %
04.12.2016 03:42 -3,4 C 93 % 1026,9 hPa 0,0 l/m 8,4 km/h (2 Bft) N-NO 28 0 min 0,000 mm 0,0 UV-I 0 W/m -4,4 C -5,6 C 17,7 km/h (3 Bft) 98,11 %
04.12.2016 03:44 -3,4 C 93 % 1026,9 hPa 0,0 l/m 9,9 km/h (2 Bft) NO 43 0 min 0,000 mm 0,0 UV-I 0 W/m -4,4 C -7,1 C 16,1 km/h (3 Bft) 98,00 %
04.12.2016 03:46 -3,4 C 93 % 1027,0 hPa 0,0 l/m 8,6 km/h (2 Bft) NO 46 0 min 0,000 mm 0,0 UV-I 0 W/m -4,4 C -5,8 C 14,5 km/h (3 Bft) 97,87 %
04.12.2016 03:48 -3,4 C 93 % 1027,0 hPa 0,0 l/m 6,8 km/h (2 Bft) NO 42 0 min 0,000 mm 0,0 UV-I 0 W/m -4,4 C -3,8 C 11,3 km/h (2 Bft) 97,37 %
04.12.2016 03:50 -3,4 C 93 % 1026,9 hPa 0,0 l/m 6,6 km/h (2 Bft) N-NO 28 0 min 0,000 mm 0,0 UV-I 0 W/m -4,4 C -3,6 C 11,3 km/h (2 Bft) 98,00 %
04.12.2016 03:52 -3,4 C 93 % 1027,0 hPa 0,0 l/m 6,1 km/h (2 Bft) NO 49 0 min 0,000 mm 0,0 UV-I 0 W/m -4,4 C -3,4 C 11,3 km/h (2 Bft) 96,23 %
04.12.2016 03:54 -3,4 C 93 % 1026,9 hPa 0,0 l/m 7,2 km/h (2 Bft) O-NO 64 0 min 0,000 mm 0,0 UV-I 0 W/m -4,4 C -4,3 C 9,7 km/h (2 Bft) 97,73 %
04.12.2016 03:56 -3,3 C 93 % 1027,0 hPa 0,0 l/m 5,6 km/h (1 Bft) O-NO 70 0 min 0,000 mm 0,0 UV-I 0 W/m -4,3 C -3,3 C 8,0 km/h (2 Bft) 97,56 %
04.12.2016 03:58 -3,3 C 93 % 1026,9 hPa 0,0 l/m 5,1 km/h (1 Bft) O-NO 62 0 min 0,000 mm 0,0 UV-I 0 W/m -4,3 C -3,3 C 8,0 km/h (2 Bft) 98,00 %
04.12.2016 04:00 -3,4 C 93 % 1026,9 hPa 0,0 l/m 6,3 km/h (2 Bft) O-NO 71 0 min 0,000 mm 0,0 UV-I 0 W/m -4,4 C -3,4 C 9,7 km/h (2 Bft) 97,87 %
04.12.2016 04:02 -3,4 C 93 % 1026,9 hPa 0,0 l/m 6,5 km/h (2 Bft) O-NO 65 0 min 0,000 mm 0,0 UV-I 0 W/m -4,4 C -3,5 C 8,0 km/h (2 Bft) 100,00 %
04.12.2016 04:04 -3,4 C 93 % 1026,9 hPa 0,0 l/m 7,8 km/h (2 Bft) NO 55 0 min 0,000 mm 0,0 UV-I 0 W/m -4,4 C -5,0 C 11,3 km/h (2 Bft) 97,87 %
04.12.2016 04:06 -3,4 C 93 % 1027,0 hPa 0,0 l/m 7,2 km/h (2 Bft) O-NO 63 0 min 0,000 mm 0,0 UV-I 0 W/m -4,4 C -4,3 C 9,7 km/h (2 Bft) 97,44 %
04.12.2016 04:08 -3,4 C 93 % 1026,9 hPa 0,0 l/m 6,2 km/h (2 Bft) O-NO 61 0 min 0,000 mm 0,0 UV-I 0 W/m -4,4 C -3,4 C 9,7 km/h (2 Bft) 96,23 %
04.12.2016 04:10 -3,4 C 93 % 1027,0 hPa 0,0 l/m 6,0 km/h (2 Bft) NO 50 0 min 0,000 mm 0,0 UV-I 0 W/m -4,4 C -3,4 C 9,7 km/h (2 Bft) 96,88 %
04.12.2016 04:12 -3,5 C 92 % 1027,0 hPa 0,0 l/m 4,3 km/h (1 Bft) NO 53 0 min 0,000 mm 0,0 UV-I 0 W/m -4,6 C -3,5 C 9,7 km/h (2 Bft) 97,06 %
04.12.2016 04:14 -3,5 C 93 % 1027,0 hPa 0,0 l/m 6,2 km/h (2 Bft) O-NO 65 0 min 0,000 mm 0,0 UV-I 0 W/m -4,5 C -3,5 C 8,0 km/h (2 Bft) 97,37 %
04.12.2016 04:16 -3,5 C 93 % 1027,0 hPa 0,0 l/m 7,5 km/h (2 Bft) O-NO 57 0 min 0,000 mm 0,0 UV-I 0 W/m -4,5 C -4,8 C 9,7 km/h (2 Bft) 96,00 %
04.12.2016 04:18 -3,5 C 93 % 1027,0 hPa 0,0 l/m 5,6 km/h (1 Bft) NO 49 0 min 0,000 mm 0,0 UV-I 0 W/m -4,5 C -3,5 C 8,0 km/h (2 Bft) 98,11 %
04.12.2016 04:20 -3,5 C 93 % 1027,0 hPa 0,0 l/m 6,2 km/h (2 Bft) N-NO 26 0 min 0,000 mm 0,0 UV-I 0 W/m -4,5 C -3,5 C 8,0 km/h (2 Bft) 97,87 %
04.12.2016 04:22 -3,6 C 93 % 1027,0 hPa 0,0 l/m 6,8 km/h (2 Bft) NO 42 0 min 0,000 mm 0,0 UV-I 0 W/m -4,6 C -4,0 C 9,7 km/h (2 Bft) 100,00 %
04.12.2016 04:24 -3,6 C 93 % 1027,0 hPa 0,0 l/m 6,9 km/h (2 Bft) NO 55 0 min 0,000 mm 0,0 UV-I 0 W/m -4,6 C -4,2 C 9,7 km/h (2 Bft) 95,45 %
04.12.2016 04:26 -3,5 C 93 % 1026,9 hPa 0,0 l/m 6,8 km/h (2 Bft) O-NO 71 0 min 0,000 mm 0,0 UV-I 0 W/m -4,5 C -3,9 C 11,3 km/h (2 Bft) 100,00 %
04.12.2016 04:28 -3,5 C 93 % 1026,9 hPa 0,0 l/m 6,7 km/h (2 Bft) O-NO 65 0 min 0,000 mm 0,0 UV-I 0 W/m -4,5 C -3,8 C 9,7 km/h (2 Bft) 100,00 %
04.12.2016 04:30 -3,5 C 93 % 1026,9 hPa 0,0 l/m 6,3 km/h (2 Bft) NO 36 0 min 0,000 mm 0,0 UV-I 0 W/m -4,5 C -3,5 C 9,7 km/h (2 Bft) 96,00 %
04.12.2016 04:32 -3,5 C 93 % 1026,9 hPa 0,0 l/m 6,9 km/h (2 Bft) O-NO 58 0 min 0,000 mm 0,0 UV-I 0 W/m -4,5 C -4,1 C 11,3 km/h (2 Bft) 100,00 %
04.12.2016 04:34 -3,5 C 93 % 1026,9 hPa 0,0 l/m 5,7 km/h (1 Bft) NO 51 0 min 0,000 mm 0,0 UV-I 0 W/m -4,5 C -3,5 C 8,0 km/h (2 Bft) 100,00 %
04.12.2016 04:36 -3,5 C 93 % 1026,9 hPa 0,0 l/m 6,9 km/h (2 Bft) O-NO 61 0 min 0,000 mm 0,0 UV-I 0 W/m -4,5 C -4,1 C 9,7 km/h (2 Bft) 100,00 %
04.12.2016 04:38 -3,6 C 93 % 1027,0 hPa 0,0 l/m 6,3 km/h (2 Bft) O-NO 65 0 min 0,000 mm 0,0 UV-I 0 W/m -4,6 C -3,6 C 8,0 km/h (2 Bft) 100,00 %
04.12.2016 04:40 -3,6 C 92 % 1026,9 hPa 0,0 l/m 5,6 km/h (1 Bft) O-NO 63 0 min 0,000 mm 0,0 UV-I 0 W/m -4,7 C -3,6 C 8,0 km/h (2 Bft) 98,21 %
04.12.2016 04:42 -3,7 C 93 % 1027,0 hPa 0,0 l/m 6,0 km/h (2 Bft) O-NO 64 0 min 0,000 mm 0,0 UV-I 0 W/m -4,7 C -3,7 C 8,0 km/h (2 Bft) 100,00 %
04.12.2016 04:44 -3,7 C 92 % 1027,0 hPa 0,0 l/m 5,8 km/h (2 Bft) O-NO 71 0 min 0,000 mm 0,0 UV-I 0 W/m -4,8 C -3,7 C 8,0 km/h (2 Bft) 97,87 %
04.12.2016 04:46 -3,8 C 92 % 1027,0 hPa 0,0 l/m 4,9 km/h (1 Bft) O-NO 64 0 min 0,000 mm 0,0 UV-I 0 W/m -4,9 C -3,8 C 6,4 km/h (2 Bft) 100,00 %
04.12.2016 04:48 -3,8 C 93 % 1027,0 hPa 0,0 l/m 4,1 km/h (1 Bft) O-NO 63 0 min 0,000 mm 0,0 UV-I 0 W/m -4,8 C -3,8 C 6,4 km/h (2 Bft) 97,87 %
04.12.2016 04:50 -3,8 C 93 % 1027,0 hPa 0,0 l/m 4,8 km/h (1 Bft) O-NO 59 0 min 0,000 mm 0,0 UV-I 0 W/m -4,8 C -3,8 C 6,4 km/h (2 Bft) 100,00 %
04.12.2016 04:52 -3,8 C 93 % 1027,0 hPa 0,0 l/m 5,4 km/h (1 Bft) O-NO 57 0 min 0,000 mm 0,0 UV-I 0 W/m -4,8 C -3,8 C 8,0 km/h (2 Bft) 100,00 %
04.12.2016 04:54 -3,8 C 93 % 1027,0 hPa 0,0 l/m 5,2 km/h (1 Bft) O-NO 57 0 min 0,000 mm 0,0 UV-I 0 W/m -4,8 C -3,8 C 8,0 km/h (2 Bft) 100,00 %
04.12.2016 04:56 -3,7 C 93 % 1027,0 hPa 0,0 l/m 4,6 km/h (1 Bft) NO 56 0 min 0,000 mm 0,0 UV-I 0 W/m -4,7 C -3,7 C 6,4 km/h (2 Bft) 100,00 %
04.12.2016 04:58 -3,8 C 93 % 1027,0 hPa 0,0 l/m 5,0 km/h (1 Bft) O-NO 61 0 min 0,000 mm 0,0 UV-I 0 W/m -4,8 C -3,8 C 9,7 km/h (2 Bft) 100,00 %
04.12.2016 05:00 -3,7 C 93 % 1027,0 hPa 0,0 l/m 4,2 km/h (1 Bft) NO 53 0 min 0,000 mm 0,0 UV-I 0 W/m -4,7 C -3,7 C 6,4 km/h (2 Bft) 98,00 %
04.12.2016 05:02 -3,7 C 93 % 1026,9 hPa 0,0 l/m 4,9 km/h (1 Bft) O-NO 60 0 min 0,000 mm 0,0 UV-I 0 W/m -4,7 C -3,7 C 6,4 km/h (2 Bft) 100,00 %
04.12.2016 05:04 -3,8 C 93 % 1026,9 hPa 0,0 l/m 6,9 km/h (2 Bft) NO 38 0 min 0,000 mm 0,0 UV-I 0 W/m -4,8 C -4,4 C 9,7 km/h (2 Bft) 100,00 %
04.12.2016 05:06 -3,8 C 93 % 1026,9 hPa 0,0 l/m 6,8 km/h (2 Bft) NO 42 0 min 0,000 mm 0,0 UV-I 0 W/m -4,8 C -4,2 C 9,7 km/h (2 Bft) 97,87 %
04.12.2016 05:08 -3,8 C 93 % 1026,9 hPa 0,0 l/m 5,6 km/h (1 Bft) NO 45 0 min 0,000 mm 0,0 UV-I 0 W/m -4,8 C -3,8 C 8,0 km/h (2 Bft) 98,00 %
04.12.2016 05:10 -3,8 C 93 % 1026,9 hPa 0,0 l/m 3,9 km/h (1 Bft) NO 56 0 min 0,000 mm 0,0 UV-I 0 W/m -4,8 C -3,8 C 6,4 km/h (2 Bft) 100,00 %
04.12.2016 05:12 -3,8 C 93 % 1026,9 hPa 0,0 l/m 7,1 km/h (2 Bft) O-NO 59 0 min 0,000 mm 0,0 UV-I 0 W/m -4,8 C -4,6 C 12,9 km/h (3 Bft) 100,00 %
04.12.2016 05:14 -3,7 C 93 % 1027,0 hPa 0,0 l/m 6,8 km/h (2 Bft) O-NO 62 0 min 0,000 mm 0,0 UV-I 0 W/m -4,7 C -4,1 C 12,9 km/h (3 Bft) 98,00 %
04.12.2016 05:16 -3,7 C 93 % 1027,0 hPa 0,0 l/m 5,8 km/h (2 Bft) NO 53 0 min 0,000 mm 0,0 UV-I 0 W/m -4,7 C -3,7 C 8,0 km/h (2 Bft) 100,00 %
04.12.2016 05:18 -3,7 C 93 % 1027,0 hPa 0,0 l/m 4,5 km/h (1 Bft) NO 53 0 min 0,000 mm 0,0 UV-I 0 W/m -4,7 C -3,7 C 6,4 km/h (2 Bft) 97,87 %
04.12.2016 05:20 -3,7 C 93 % 1027,0 hPa 0,0 l/m 5,4 km/h (1 Bft) O-NO 58 0 min 0,000 mm 0,0 UV-I 0 W/m -4,7 C -3,7 C 9,7 km/h (2 Bft) 97,14 %
04.12.2016 05:22 -3,7 C 93 % 1027,0 hPa 0,0 l/m 6,4 km/h (2 Bft) O-NO 62 0 min 0,000 mm 0,0 UV-I 0 W/m -4,7 C -3,6 C 8,0 km/h (2 Bft) 100,00 %
04.12.2016 05:24 -3,7 C 93 % 1027,0 hPa 0,0 l/m 6,2 km/h (2 Bft) O-NO 60 0 min 0,000 mm 0,0 UV-I 0 W/m -4,7 C -3,7 C 8,0 km/h (2 Bft) 100,00 %
04.12.2016 05:26 -3,7 C 93 % 1027,0 hPa 0,0 l/m 6,6 km/h (2 Bft) NO 45 0 min 0,000 mm 0,0 UV-I 0 W/m -4,7 C -3,9 C 9,7 km/h (2 Bft) 100,00 %
04.12.2016 05:28 -3,7 C 93 % 1027,0 hPa 0,0 l/m 7,0 km/h (2 Bft) N-NO 33 0 min 0,000 mm 0,0 UV-I 0 W/m -4,7 C -4,4 C 11,3 km/h (2 Bft) 100,00 %
04.12.2016 05:30 -3,7 C 93 % 1027,0 hPa 0,0 l/m 7,4 km/h (2 Bft) NO 50 0 min 0,000 mm 0,0 UV-I 0 W/m -4,7 C -4,9 C 11,3 km/h (2 Bft) 100,00 %
04.12.2016 05:32 -3,7 C 93 % 1027,0 hPa 0,0 l/m 6,2 km/h (2 Bft) N-NO 13 0 min 0,000 mm 0,0 UV-I 0 W/m -4,7 C -3,7 C 9,7 km/h (2 Bft) 100,00 %
04.12.2016 05:34 -3,7 C 93 % 1027,0 hPa 0,0 l/m 6,0 km/h (2 Bft) N-NO 32 0 min 0,000 mm 0,0 UV-I 0 W/m -4,7 C -3,7 C 11,3 km/h (2 Bft) 97,87 %
04.12.2016 05:36 -3,7 C 93 % 1027,0 hPa 0,0 l/m 5,8 km/h (2 Bft) O-NO 62 0 min 0,000 mm 0,0 UV-I 0 W/m -4,7 C -3,7 C 11,3 km/h (2 Bft) 97,87 %
04.12.2016 05:38 -3,7 C 93 % 1027,0 hPa 0,0 l/m 4,3 km/h (1 Bft) N-NO 26 0 min 0,000 mm 0,0 UV-I 0 W/m -4,7 C -3,7 C 9,7 km/h (2 Bft) 100,00 %
04.12.2016 05:40 -3,7 C 93 % 1027,0 hPa 0,0 l/m 5,9 km/h (2 Bft) O-NO 59 0 min 0,000 mm 0,0 UV-I 0 W/m -4,7 C -3,7 C 8,0 km/h (2 Bft) 100,00 %
04.12.2016 05:42 -3,7 C 93 % 1027,0 hPa 0,0 l/m 4,5 km/h (1 Bft) NO 49 0 min 0,000 mm 0,0 UV-I 0 W/m -4,7 C -3,7 C 8,0 km/h (2 Bft) 100,00 %
04.12.2016 05:44 -3,7 C 93 % 1027,0 hPa 0,0 l/m 4,6 km/h (1 Bft) NO 54 0 min 0,000 mm 0,0 UV-I 0 W/m -4,7 C -3,7 C 6,4 km/h (2 Bft) 100,00 %
04.12.2016 05:46 -3,7 C 93 % 1026,9 hPa 0,0 l/m 4,3 km/h (1 Bft) N-NO 28 0 min 0,000 mm 0,0 UV-I 0 W/m -4,7 C -3,7 C 8,0 km/h (2 Bft) 97,87 %
04.12.2016 05:48 -3,7 C 93 % 1027,0 hPa 0,0 l/m 5,4 km/h (1 Bft) NO 51 0 min 0,000 mm 0,0 UV-I 0 W/m -4,7 C -3,7 C 9,7 km/h (2 Bft) 100,00 %
04.12.2016 05:50 -3,7 C 93 % 1026,9 hPa 0,0 l/m 5,2 km/h (1 Bft) O-NO 63 0 min 0,000 mm 0,0 UV-I 0 W/m -4,7 C -3,7 C 8,0 km/h (2 Bft) 94,74 %
04.12.2016 05:52 -3,7 C 93 % 1027,0 hPa 0,0 l/m 6,4 km/h (2 Bft) NO 52 0 min 0,000 mm 0,0 UV-I 0 W/m -4,7 C -3,6 C 11,3 km/h (2 Bft) 94,83 %
04.12.2016 05:54 -3,7 C 93 % 1027,0 hPa 0,0 l/m 6,5 km/h (2 Bft) NO 48 0 min 0,000 mm 0,0 UV-I 0 W/m -4,7 C -3,8 C 9,7 km/h (2 Bft) 95,45 %
04.12.2016 05:56 -3,7 C 93 % 1027,0 hPa 0,0 l/m 4,3 km/h (1 Bft) NO 49 0 min 0,000 mm 0,0 UV-I 0 W/m -4,7 C -3,7 C 11,3 km/h (2 Bft) 97,56 %
04.12.2016 05:58 -3,7 C 93 % 1027,0 hPa 0,0 l/m 4,6 km/h (1 Bft) O-NO 58 0 min 0,000 mm 0,0 UV-I 0 W/m -4,7 C -3,7 C 8,0 km/h (2 Bft) 98,11 %
04.12.2016 06:00 -3,7 C 93 % 1027,0 hPa 0,0 l/m 4,7 km/h (1 Bft) O-NO 61 0 min 0,000 mm 0,0 UV-I 0 W/m -4,7 C -3,7 C 6,4 km/h (2 Bft) 97,87 %
04.12.2016 06:02 -3,7 C 93 % 1027,0 hPa 0,0 l/m 4,6 km/h (1 Bft) O-NO 66 0 min 0,000 mm 0,0 UV-I 0 W/m -4,7 C -3,7 C 8,0 km/h (2 Bft) 98,00 %
04.12.2016 06:04 -3,7 C 93 % 1027,1 hPa 0,0 l/m 5,6 km/h (1 Bft) O-NO 78 0 min 0,000 mm 0,0 UV-I 0 W/m -4,7 C -3,7 C 8,0 km/h (2 Bft) 94,74 %
04.12.2016 06:06 -3,8 C 93 % 1027,0 hPa 0,0 l/m 5,6 km/h (1 Bft) O-NO 69 0 min 0,000 mm 0,0 UV-I 0 W/m -4,8 C -3,8 C 8,0 km/h (2 Bft) 98,11 %
04.12.2016 06:08 -3,8 C 93 % 1027,1 hPa 0,0 l/m 5,1 km/h (1 Bft) O-NO 63 0 min 0,000 mm 0,0 UV-I 0 W/m -4,8 C -3,8 C 6,4 km/h (2 Bft) 97,22 %
04.12.2016 06:10 -3,9 C 93 % 1027,1 hPa 0,0 l/m 4,6 km/h (1 Bft) O-NO 61 0 min 0,000 mm 0,0 UV-I 0 W/m -4,9 C -3,9 C 6,4 km/h (2 Bft) 96,23 %
04.12.2016 06:12 -3,9 C 93 % 1027,1 hPa 0,0 l/m 3,4 km/h (1 Bft) O-NO 61 0 min 0,000 mm 0,0 UV-I 0 W/m -4,9 C -3,9 C 6,4 km/h (2 Bft) 96,00 %
04.12.2016 06:14 -4,0 C 93 % 1027,1 hPa 0,0 l/m 2,7 km/h (1 Bft) O-NO 60 0 min 0,000 mm 0,0 UV-I 0 W/m -5,0 C -4,0 C 4,8 km/h (1 Bft) 96,00 %
04.12.2016 06:16 -4,0 C 93 % 1027,1 hPa 0,0 l/m 3,8 km/h (1 Bft) O-NO 61 0 min 0,000 mm 0,0 UV-I 0 W/m -5,0 C -4,0 C 4,8 km/h (1 Bft) 97,87 %
04.12.2016 06:18 -4,0 C 93 % 1027,1 hPa 0,0 l/m 4,1 km/h (1 Bft) O-NO 65 0 min 0,000 mm 0,0 UV-I 0 W/m -5,0 C -4,0 C 6,4 km/h (2 Bft) 97,87 %
04.12.2016 06:20 -4,1 C 93 % 1027,2 hPa 0,0 l/m 4,9 km/h (1 Bft) O-NO 69 0 min 0,000 mm 0,0 UV-I 0 W/m -5,1 C -4,1 C 6,4 km/h (2 Bft) 92,31 %
04.12.2016 06:22 -4,1 C 93 % 1027,1 hPa 0,0 l/m 4,8 km/h (1 Bft) O-NO 65 0 min 0,000 mm 0,0 UV-I 0 W/m -5,1 C -4,1 C 6,4 km/h (2 Bft) 98,46 %
04.12.2016 06:24 -4,1 C 93 % 1027,1 hPa 0,0 l/m 4,5 km/h (1 Bft) O-NO 57 0 min 0,000 mm 0,0 UV-I 0 W/m -5,1 C -4,1 C 8,0 km/h (2 Bft) 97,87 %
04.12.2016 06:26 -4,0 C 93 % 1027,2 hPa 0,0 l/m 4,9 km/h (1 Bft) O-NO 57 0 min 0,000 mm 0,0 UV-I 0 W/m -5,0 C -4,0 C 6,4 km/h (2 Bft) 100,00 %
04.12.2016 06:28 -3,9 C 93 % 1027,1 hPa 0,0 l/m 3,8 km/h (1 Bft) O-NO 57 0 min 0,000 mm 0,0 UV-I 0 W/m -4,9 C -3,9 C 4,8 km/h (1 Bft) 97,87 %
04.12.2016 06:30 -3,9 C 93 % 1027,1 hPa 0,0 l/m 3,7 km/h (1 Bft) O-NO 57 0 min 0,000 mm 0,0 UV-I 0 W/m -4,9 C -3,9 C 4,8 km/h (1 Bft) 100,00 %
04.12.2016 06:32 -4,0 C 93 % 1027,2 hPa 0,0 l/m 4,0 km/h (1 Bft) O-NO 57 0 min 0,000 mm 0,0 UV-I 0 W/m -5,0 C -4,0 C 6,4 km/h (2 Bft) 100,00 %
04.12.2016 06:34 -4,0 C 93 % 1027,2 hPa 0,0 l/m 3,2 km/h (1 Bft) O-NO 57 0 min 0,000 mm 0,0 UV-I 0 W/m -5,0 C -4,0 C 4,8 km/h (1 Bft) 100,00 %
04.12.2016 06:36 -4,0 C 93 % 1027,2 hPa 0,0 l/m 3,9 km/h (1 Bft) O-NO 57 0 min 0,000 mm 0,0 UV-I 0 W/m -5,0 C -4,0 C 4,8 km/h (1 Bft) 100,00 %
04.12.2016 06:38 -4,0 C 93 % 1027,2 hPa 0,0 l/m 3,6 km/h (1 Bft) O-NO 57 0 min 0,000 mm 0,0 UV-I 0 W/m -5,0 C -4,0 C 4,8 km/h (1 Bft) 97,56 %
04.12.2016 06:40 -4,0 C 93 % 1027,2 hPa 0,0 l/m 2,5 km/h (1 Bft) O-NO 57 0 min 0,000 mm 0,0 UV-I 0 W/m -5,0 C -4,0 C 4,8 km/h (1 Bft) 100,00 %
04.12.2016 06:42 -4,1 C 93 % 1027,3 hPa 0,0 l/m 2,9 km/h (1 Bft) O-NO 57 0 min 0,000 mm 0,0 UV-I 0 W/m -5,1 C -4,1 C 4,8 km/h (1 Bft) 100,00 %
04.12.2016 06:44 -4,1 C 93 % 1027,2 hPa 0,0 l/m 3,7 km/h (1 Bft) O-NO 57 0 min 0,000 mm 0,0 UV-I 0 W/m -5,1 C -4,1 C 4,8 km/h (1 Bft) 100,00 %
04.12.2016 06:46 -4,2 C 93 % 1027,3 hPa 0,0 l/m 3,5 km/h (1 Bft) O-NO 57 0 min 0,000 mm 0,0 UV-I 0 W/m -5,2 C -4,2 C 4,8 km/h (1 Bft) 100,00 %
04.12.2016 06:48 -4,2 C 93 % 1027,2 hPa 0,0 l/m 4,4 km/h (1 Bft) NO 42 0 min 0,000 mm 0,0 UV-I 0 W/m -5,2 C -4,2 C 8,0 km/h (2 Bft) 100,00 %
04.12.2016 06:50 -4,3 C 93 % 1027,2 hPa 0,0 l/m 2,9 km/h (1 Bft) NO 47 0 min 0,000 mm 0,0 UV-I 0 W/m -5,3 C -4,3 C 4,8 km/h (1 Bft) 100,00 %
04.12.2016 06:52 -4,3 C 93 % 1027,2 hPa 0,0 l/m 3,3 km/h (1 Bft) NO 48 0 min 0,000 mm 0,0 UV-I 0 W/m -5,3 C -4,3 C 4,8 km/h (1 Bft) 100,00 %
04.12.2016 06:54 -4,3 C 93 % 1027,3 hPa 0,0 l/m 3,1 km/h (1 Bft) NO 48 0 min 0,000 mm 0,0 UV-I 0 W/m -5,3 C -4,3 C 4,8 km/h (1 Bft) 100,00 %
04.12.2016 06:56 -4,2 C 94 % 1027,3 hPa 0,0 l/m 3,0 km/h (1 Bft) NO 48 0 min 0,000 mm 0,0 UV-I 0 W/m -5,0 C -4,2 C 4,8 km/h (1 Bft) 100,00 %
04.12.2016 06:58 -4,2 C 94 % 1027,3 hPa 0,0 l/m 2,3 km/h (1 Bft) NO 48 0 min 0,000 mm 0,0 UV-I 0 W/m -5,0 C -4,2 C 3,2 km/h (1 Bft) 100,00 %
04.12.2016 07:00 -4,2 C 94 % 1027,3 hPa 0,0 l/m 2,9 km/h (1 Bft) NO 48 0 min 0,000 mm 0,0 UV-I 0 W/m -5,0 C -4,2 C 4,8 km/h (1 Bft) 100,00 %
04.12.2016 07:02 -4,1 C 94 % 1027,3 hPa 0,0 l/m 2,5 km/h (1 Bft) NO 48 0 min 0,000 mm 0,0 UV-I 0 W/m -4,9 C -4,1 C 3,2 km/h (1 Bft) 97,87 %
04.12.2016 07:04 -4,1 C 94 % 1027,3 hPa 0,0 l/m 2,8 km/h (1 Bft) NO 48 0 min 0,000 mm 0,0 UV-I 0 W/m -4,9 C -4,1 C 4,8 km/h (1 Bft) 98,00 %
04.12.2016 07:06 -4,2 C 94 % 1027,3 hPa 0,0 l/m 3,2 km/h (1 Bft) NO 48 0 min 0,000 mm 0,0 UV-I 0 W/m -5,0 C -4,2 C 4,8 km/h (1 Bft) 97,56 %
04.12.2016 07:08 -4,2 C 94 % 1027,4 hPa 0,0 l/m 3,1 km/h (1 Bft) NO 48 0 min 0,000 mm 0,0 UV-I 0 W/m -5,0 C -4,2 C 4,8 km/h (1 Bft) 100,00 %
04.12.2016 07:10 -4,2 C 94 % 1027,4 hPa 0,0 l/m 2,8 km/h (1 Bft) NO 48 0 min 0,000 mm 0,0 UV-I 0 W/m -5,0 C -4,2 C 4,8 km/h (1 Bft) 98,21 %
04.12.2016 07:12 -4,2 C 94 % 1027,4 hPa 0,0 l/m 3,9 km/h (1 Bft) NO 48 0 min 0,000 mm 0,0 UV-I 0 W/m -5,0 C -4,2 C 4,8 km/h (1 Bft) 100,00 %
04.12.2016 07:14 -4,2 C 94 % 1027,4 hPa 0,0 l/m 4,7 km/h (1 Bft) NO 51 0 min 0,000 mm 0,0 UV-I 0 W/m -5,0 C -4,2 C 6,4 km/h (2 Bft) 97,87 %
04.12.2016 07:16 -4,1 C 94 % 1027,4 hPa 0,0 l/m 4,3 km/h (1 Bft) O-NO 70 0 min 0,000 mm 0,0 UV-I 0 W/m -4,9 C -4,1 C 6,4 km/h (2 Bft) 100,00 %
04.12.2016 07:18 -4,1 C 94 % 1027,4 hPa 0,0 l/m 4,4 km/h (1 Bft) O-NO 69 0 min 0,000 mm 0,0 UV-I 0 W/m -4,9 C -4,1 C 6,4 km/h (2 Bft) 97,37 %
04.12.2016 07:20 -4,1 C 94 % 1027,4 hPa 0,0 l/m 2,9 km/h (1 Bft) O-NO 69 0 min 0,000 mm 0,0 UV-I 0 W/m -4,9 C -4,1 C 4,8 km/h (1 Bft) 98,21 %
04.12.2016 07:22 -4,1 C 93 % 1027,4 hPa 0,0 l/m 3,8 km/h (1 Bft) O-NO 67 0 min 0,000 mm 0,0 UV-I 5 W/m -5,1 C -4,1 C 4,8 km/h (1 Bft) 100,00 %
04.12.2016 07:24 -4,2 C 93 % 1027,5 hPa 0,0 l/m 3,6 km/h (1 Bft) NO 40 0 min 0,000 mm 0,0 UV-I 5 W/m -5,2 C -4,2 C 4,8 km/h (1 Bft) 97,56 %
04.12.2016 07:26 -4,2 C 94 % 1027,4 hPa 0,0 l/m 4,0 km/h (1 Bft) NO 38 0 min 0,000 mm 0,0 UV-I 5 W/m -5,0 C -4,2 C 6,4 km/h (2 Bft) 98,11 %
04.12.2016 07:28 -4,2 C 93 % 1027,5 hPa 0,0 l/m 4,7 km/h (1 Bft) NO 43 0 min 0,000 mm 0,0 UV-I 5 W/m -5,2 C -4,2 C 8,0 km/h (2 Bft) 95,74 %
04.12.2016 07:30 -4,2 C 94 % 1027,5 hPa 0,0 l/m 2,2 km/h (1 Bft) NO 44 0 min 0,000 mm 0,0 UV-I 5 W/m -5,0 C -4,2 C 3,2 km/h (1 Bft) 97,22 %
04.12.2016 07:32 -4,2 C 94 % 1027,5 hPa 0,0 l/m 1,7 km/h (1 Bft) NO 44 0 min 0,000 mm 0,0 UV-I 7 W/m -5,0 C -4,2 C 4,8 km/h (1 Bft) 100,00 %
04.12.2016 07:34 -4,2 C 94 % 1027,6 hPa 0,0 l/m 3,9 km/h (1 Bft) O-NO 66 0 min 0,000 mm 0,0 UV-I 7 W/m -5,0 C -4,2 C 4,8 km/h (1 Bft) 97,87 %
04.12.2016 07:36 -4,2 C 94 % 1027,5 hPa 0,0 l/m 3,7 km/h (1 Bft) O-NO 72 0 min 0,000 mm 0,0 UV-I 7 W/m -5,0 C -4,2 C 4,8 km/h (1 Bft) 96,00 %
04.12.2016 07:38 -4,2 C 94 % 1027,6 hPa 0,0 l/m 1,9 km/h (1 Bft) O-NO 72 0 min 0,000 mm 0,0 UV-I 7 W/m -5,0 C -4,2 C 3,2 km/h (1 Bft) 100,00 %
04.12.2016 07:40 -4,2 C 94 % 1027,6 hPa 0,0 l/m 1,8 km/h (1 Bft) O-NO 72 0 min 0,000 mm 0,0 UV-I 8 W/m -5,0 C -4,2 C 4,8 km/h (1 Bft) 100,00 %
04.12.2016 07:42 -4,2 C 93 % 1027,7 hPa 0,0 l/m 2,3 km/h (1 Bft) O-NO 72 0 min 0,000 mm 0,0 UV-I 9 W/m -5,2 C -4,2 C 3,2 km/h (1 Bft) 100,00 %
04.12.2016 07:44 -4,3 C 93 % 1027,7 hPa 0,0 l/m 0,8 km/h (0 Bft) O-NO 72 0 min 0,000 mm 0,0 UV-I 11 W/m -5,3 C -4,3 C 3,2 km/h (1 Bft) 97,87 %
04.12.2016 07:46 -4,3 C 93 % 1027,7 hPa 0,0 l/m 1,2 km/h (1 Bft) O-NO 72 0 min 0,000 mm 0,0 UV-I 11 W/m -5,3 C -4,3 C 3,2 km/h (1 Bft) 100,00 %
04.12.2016 07:48 -4,3 C 93 % 1027,7 hPa 0,0 l/m 1,2 km/h (1 Bft) O-NO 72 0 min 0,000 mm 0,0 UV-I 12 W/m -5,3 C -4,3 C 3,2 km/h (1 Bft) 100,00 %
04.12.2016 07:50 -4,3 C 93 % 1027,7 hPa 0,0 l/m 1,8 km/h (1 Bft) O-NO 72 2 min 0,000 mm 0,0 UV-I 14 W/m -5,3 C -4,3 C 3,2 km/h (1 Bft) 97,37 %
04.12.2016 07:52 -4,3 C 93 % 1027,8 hPa 0,0 l/m 1,9 km/h (1 Bft) O-NO 72 2 min 0,000 mm 0,0 UV-I 15 W/m -5,3 C -4,3 C 4,8 km/h (1 Bft) 98,21 %
04.12.2016 07:54 -4,3 C 93 % 1027,8 hPa 0,0 l/m 1,3 km/h (1 Bft) O-NO 72 2 min 0,000 mm 0,0 UV-I 18 W/m -5,3 C -4,3 C 4,8 km/h (1 Bft) 100,00 %
04.12.2016 07:56 -4,4 C 93 % 1027,8 hPa 0,0 l/m 1,5 km/h (1 Bft) O-NO 72 2 min 0,000 mm 0,0 UV-I 18 W/m -5,4 C -4,4 C 3,2 km/h (1 Bft) 98,11 %
04.12.2016 07:58 -4,4 C 93 % 1027,8 hPa 0,0 l/m 2,3 km/h (1 Bft) O-NO 70 0 min 0,000 mm 0,0 UV-I 20 W/m -5,4 C -4,4 C 3,2 km/h (1 Bft) 97,87 %
04.12.2016 08:00 -4,4 C 94 % 1027,8 hPa 0,0 l/m 2,7 km/h (1 Bft) O-NO 61 2 min 0,000 mm 0,0 UV-I 23 W/m -5,2 C -4,4 C 4,8 km/h (1 Bft) 97,87 %
04.12.2016 08:02 -4,3 C 94 % 1027,8 hPa 0,0 l/m 5,1 km/h (1 Bft) NO 39 0 min 0,000 mm 0,0 UV-I 25 W/m -5,1 C -4,3 C 6,4 km/h (2 Bft) 98,00 %
04.12.2016 08:04 -4,3 C 94 % 1027,8 hPa 0,0 l/m 1,5 km/h (1 Bft) NO 39 2 min 0,000 mm 0,0 UV-I 28 W/m -5,1 C -4,3 C 3,2 km/h (1 Bft) 97,56 %
04.12.2016 08:06 -4,3 C 94 % 1027,8 hPa 0,0 l/m 0,5 km/h (0 Bft) NO 39 2 min 0,000 mm 0,0 UV-I 31 W/m -5,1 C -4,3 C 3,2 km/h (1 Bft) 96,00 %
04.12.2016 08:08 -4,3 C 94 % 1027,8 hPa 0,0 l/m 0,8 km/h (0 Bft) NO 39 2 min 0,000 mm 0,0 UV-I 34 W/m -5,1 C -4,3 C 4,8 km/h (1 Bft) 97,22 %
04.12.2016 08:10 -4,3 C 94 % 1027,9 hPa 0,0 l/m 3,5 km/h (1 Bft) NO 34 2 min 0,000 mm 0,0 UV-I 38 W/m -5,1 C -4,3 C 4,8 km/h (1 Bft) 98,11 %
04.12.2016 08:12 -4,3 C 94 % 1027,9 hPa 0,0 l/m 3,5 km/h (1 Bft) NO 39 2 min 0,000 mm 0,0 UV-I 42 W/m -5,1 C -4,3 C 6,4 km/h (2 Bft) 97,87 %
04.12.2016 08:14 -4,3 C 94 % 1028,0 hPa 0,0 l/m 3,4 km/h (1 Bft) NO 40 2 min 0,000 mm 0,0 UV-I 46 W/m -5,1 C -4,3 C 4,8 km/h (1 Bft) 94,00 %
04.12.2016 08:16 -4,2 C 94 % 1028,0 hPa 0,0 l/m 2,2 km/h (1 Bft) NO 40 2 min 0,000 mm 0,0 UV-I 47 W/m -5,0 C -4,2 C 3,2 km/h (1 Bft) 98,00 %
04.12.2016 08:18 -4,2 C 94 % 1028,1 hPa 0,0 l/m 4,1 km/h (1 Bft) NO 38 2 min 0,000 mm 0,0 UV-I 47 W/m -5,0 C -4,2 C 6,4 km/h (2 Bft) 97,37 %
04.12.2016 08:20 -4,2 C 94 % 1028,1 hPa 0,0 l/m 2,8 km/h (1 Bft) NO 38 0 min 0,000 mm 0,0 UV-I 47 W/m -5,0 C -4,2 C 3,2 km/h (1 Bft) 96,23 %
04.12.2016 08:22 -4,1 C 94 % 1028,1 hPa 0,0 l/m 3,3 km/h (1 Bft) NO 38 0 min 0,000 mm 0,0 UV-I 50 W/m -4,9 C -4,1 C 4,8 km/h (1 Bft) 95,74 %
04.12.2016 08:24 -4,1 C 94 % 1028,1 hPa 0,0 l/m 3,8 km/h (1 Bft) NO 38 0 min 0,000 mm 0,0 UV-I 50 W/m -4,9 C -4,1 C 6,4 km/h (2 Bft) 97,44 %
04.12.2016 08:26 -4,1 C 94 % 1028,2 hPa 0,0 l/m 4,0 km/h (1 Bft) NO 38 0 min 0,000 mm 0,0 UV-I 54 W/m -4,9 C -4,1 C 4,8 km/h (1 Bft) 96,00 %
04.12.2016 08:28 -4,1 C 94 % 1028,1 hPa 0,0 l/m 2,7 km/h (1 Bft) NO 37 2 min 0,000 mm 0,0 UV-I 58 W/m -4,9 C -4,1 C 4,8 km/h (1 Bft) 95,74 %
04.12.2016 08:30 -4,0 C 94 % 1028,2 hPa 0,0 l/m 3,0 km/h (1 Bft) NO 37 2 min 0,000 mm 0,0 UV-I 62 W/m -4,8 C -4,0 C 6,4 km/h (2 Bft) 97,87 %
04.12.2016 08:32 -4,0 C 94 % 1028,2 hPa 0,0 l/m 1,1 km/h (1 Bft) NO 37 2 min 0,000 mm 0,0 UV-I 69 W/m -4,8 C -4,0 C 4,8 km/h (1 Bft) 95,74 %
04.12.2016 08:34 -3,9 C 94 % 1028,2 hPa 0,0 l/m 0,9 km/h (0 Bft) NO 37 2 min 0,000 mm 0,0 UV-I 72 W/m -4,7 C -3,9 C 3,2 km/h (1 Bft) 100,00 %
04.12.2016 08:36 -3,9 C 94 % 1028,2 hPa 0,0 l/m 1,4 km/h (1 Bft) NO 37 2 min 0,000 mm 0,0 UV-I 85 W/m -4,7 C -3,9 C 3,2 km/h (1 Bft) 97,87 %
04.12.2016 08:38 -3,8 C 94 % 1028,2 hPa 0,0 l/m 2,0 km/h (1 Bft) NO 37 2 min 0,000 mm 0,0 UV-I 88 W/m -4,6 C -3,8 C 3,2 km/h (1 Bft) 100,00 %
04.12.2016 08:40 -3,8 C 94 % 1028,3 hPa 0,0 l/m 3,1 km/h (1 Bft) NO 37 2 min 0,000 mm 0,0 UV-I 87 W/m -4,6 C -3,8 C 6,4 km/h (2 Bft) 100,00 %
04.12.2016 08:42 -3,8 C 94 % 1028,3 hPa 0,0 l/m 4,0 km/h (1 Bft) NO 35 2 min 0,000 mm 0,0 UV-I 83 W/m -4,6 C -3,8 C 6,4 km/h (2 Bft) 98,00 %
04.12.2016 08:44 -3,8 C 94 % 1028,3 hPa 0,0 l/m 5,5 km/h (1 Bft) N-NO 24 2 min 0,000 mm 0,0 UV-I 83 W/m -4,6 C -3,8 C 8,0 km/h (2 Bft) 100,00 %
04.12.2016 08:46 -3,7 C 94 % 1028,3 hPa 0,0 l/m 4,8 km/h (1 Bft) N-NO 19 2 min 0,000 mm 0,0 UV-I 82 W/m -4,5 C -3,7 C 6,4 km/h (2 Bft) 100,00 %
04.12.2016 08:48 -3,7 C 94 % 1028,4 hPa 0,0 l/m 5,0 km/h (1 Bft) N-NO 23 0 min 0,000 mm 0,0 UV-I 76 W/m -4,5 C -3,7 C 8,0 km/h (2 Bft) 100,00 %
04.12.2016 08:50 -3,7 C 94 % 1028,4 hPa 0,0 l/m 4,9 km/h (1 Bft) N-NO 33 0 min 0,000 mm 0,0 UV-I 70 W/m -4,5 C -3,7 C 8,0 km/h (2 Bft) 98,00 %
04.12.2016 08:52 -3,7 C 93 % 1028,4 hPa 0,0 l/m 5,4 km/h (1 Bft) NO 44 0 min 0,000 mm 0,0 UV-I 72 W/m -4,7 C -3,7 C 8,0 km/h (2 Bft) 100,00 %
04.12.2016 08:54 -3,7 C 94 % 1028,4 hPa 0,0 l/m 4,6 km/h (1 Bft) NO 43 0 min 0,000 mm 0,0 UV-I 75 W/m -4,5 C -3,7 C 6,4 km/h (2 Bft) 100,00 %
04.12.2016 08:56 -3,7 C 94 % 1028,4 hPa 0,0 l/m 4,8 km/h (1 Bft) NO 38 0 min 0,000 mm 0,0 UV-I 87 W/m -4,5 C -3,7 C 6,4 km/h (2 Bft) 97,87 %
04.12.2016 08:58 -3,6 C 94 % 1028,4 hPa 0,0 l/m 4,5 km/h (1 Bft) N-NO 29 2 min 0,000 mm 0,0 UV-I 104 W/m -4,4 C -3,6 C 6,4 km/h (2 Bft) 100,00 %
04.12.2016 09:00 -3,6 C 94 % 1028,5 hPa 0,0 l/m 4,7 km/h (1 Bft) NO 38 2 min 0,025 mm 0,0 UV-I 100 W/m -4,4 C -3,6 C 6,4 km/h (2 Bft) 100,00 %
04.12.2016 09:02 -3,6 C 94 % 1028,5 hPa 0,0 l/m 4,8 km/h (1 Bft) NO 46 2 min 0,000 mm 0,0 UV-I 104 W/m -4,4 C -3,6 C 6,4 km/h (2 Bft) 100,00 %
04.12.2016 09:04 -3,5 C 94 % 1028,5 hPa 0,0 l/m 3,9 km/h (1 Bft) NO 46 2 min 0,000 mm 0,0 UV-I 113 W/m -4,3 C -3,5 C 6,4 km/h (2 Bft) 100,00 %
04.12.2016 09:06 -3,4 C 93 % 1028,5 hPa 0,0 l/m 4,8 km/h (1 Bft) NO 46 2 min 0,000 mm 0,0 UV-I 109 W/m -4,4 C -3,4 C 6,4 km/h (2 Bft) 97,87 %
04.12.2016 09:08 -3,4 C 93 % 1028,5 hPa 0,0 l/m 3,6 km/h (1 Bft) NO 46 0 min 0,000 mm 0,0 UV-I 90 W/m -4,4 C -3,4 C 4,8 km/h (1 Bft) 100,00 %
04.12.2016 09:10 -3,3 C 93 % 1028,5 hPa 0,0 l/m 3,7 km/h (1 Bft) NO 49 0 min 0,000 mm 0,0 UV-I 86 W/m -4,3 C -3,3 C 4,8 km/h (1 Bft) 96,23 %
04.12.2016 09:12 -3,3 C 93 % 1028,5 hPa 0,0 l/m 3,6 km/h (1 Bft) O-NO 63 0 min 0,000 mm 0,0 UV-I 93 W/m -4,3 C -3,3 C 4,8 km/h (1 Bft) 100,00 %
04.12.2016 09:14 -3,3 C 93 % 1028,5 hPa 0,0 l/m 3,9 km/h (1 Bft) NO 51 0 min 0,000 mm 0,0 UV-I 106 W/m -4,3 C -3,3 C 6,4 km/h (2 Bft) 100,00 %
04.12.2016 09:16 -3,2 C 93 % 1028,6 hPa 0,0 l/m 4,4 km/h (1 Bft) NO 51 2 min 0,000 mm 0,0 UV-I 117 W/m -4,2 C -3,2 C 6,4 km/h (2 Bft) 100,00 %
04.12.2016 09:18 -3,2 C 93 % 1028,6 hPa 0,0 l/m 6,3 km/h (2 Bft) NO 45 2 min 0,000 mm 0,0 UV-I 136 W/m -4,2 C -3,2 C 11,3 km/h (2 Bft) 100,00 %
04.12.2016 09:20 -3,1 C 93 % 1028,6 hPa 0,0 l/m 5,5 km/h (1 Bft) NO 49 2 min 0,000 mm 0,0 UV-I 152 W/m -4,1 C -3,1 C 8,0 km/h (2 Bft) 97,37 %
04.12.2016 09:22 -3,1 C 93 % 1028,6 hPa 0,0 l/m 5,4 km/h (1 Bft) NO 42 2 min 0,000 mm 0,0 UV-I 154 W/m -4,1 C -3,1 C 8,0 km/h (2 Bft) 100,00 %
04.12.2016 09:24 -2,9 C 93 % 1028,5 hPa 0,0 l/m 6,2 km/h (2 Bft) NO 47 2 min 0,000 mm 0,0 UV-I 156 W/m -3,9 C -2,9 C 8,0 km/h (2 Bft) 100,00 %
04.12.2016 09:26 -2,9 C 93 % 1028,6 hPa 0,0 l/m 4,2 km/h (1 Bft) NO 44 2 min 0,000 mm 0,0 UV-I 168 W/m -3,9 C -2,9 C 8,0 km/h (2 Bft) 97,92 %
04.12.2016 09:28 -2,9 C 93 % 1028,6 hPa 0,0 l/m 4,2 km/h (1 Bft) NO 55 2 min 0,000 mm 0,0 UV-I 176 W/m -3,9 C -2,9 C 9,7 km/h (2 Bft) 97,87 %
04.12.2016 09:30 -2,8 C 92 % 1028,7 hPa 0,0 l/m 6,5 km/h (2 Bft) O-NO 65 2 min 0,000 mm 0,0 UV-I 184 W/m -3,9 C -2,9 C 11,3 km/h (2 Bft) 100,00 %
04.12.2016 09:32 -2,8 C 92 % 1028,7 hPa 0,0 l/m 6,6 km/h (2 Bft) O 79 2 min 0,000 mm 0,0 UV-I 191 W/m -3,9 C -3,0 C 9,7 km/h (2 Bft) 100,00 %
04.12.2016 09:34 -2,7 C 92 % 1028,7 hPa 0,0 l/m 6,4 km/h (2 Bft) NO 54 2 min 0,000 mm 0,0 UV-I 195 W/m -3,8 C -2,7 C 9,7 km/h (2 Bft) 100,00 %
04.12.2016 09:36 -2,7 C 92 % 1028,7 hPa 0,0 l/m 6,4 km/h (2 Bft) O-NO 65 2 min 0,000 mm 0,0 UV-I 191 W/m -3,8 C -2,7 C 9,7 km/h (2 Bft) 98,00 %
04.12.2016 09:38 -2,7 C 92 % 1028,8 hPa 0,0 l/m 8,4 km/h (2 Bft) O-NO 60 2 min 0,000 mm 0,0 UV-I 185 W/m -3,8 C -4,9 C 12,9 km/h (3 Bft) 100,00 %
04.12.2016 09:40 -2,6 C 92 % 1028,8 hPa 0,0 l/m 6,3 km/h (2 Bft) O-NO 61 2 min 0,000 mm 0,0 UV-I 192 W/m -3,7 C -2,6 C 9,7 km/h (2 Bft) 98,00 %
04.12.2016 09:42 -2,6 C 92 % 1028,8 hPa 0,0 l/m 7,9 km/h (2 Bft) NO 53 2 min 0,000 mm 0,0 UV-I 187 W/m -3,7 C -4,3 C 9,7 km/h (2 Bft) 98,00 %
04.12.2016 09:44 -2,6 C 92 % 1028,8 hPa 0,0 l/m 5,9 km/h (2 Bft) NO 54 2 min 0,000 mm 0,0 UV-I 176 W/m -3,7 C -2,6 C 8,0 km/h (2 Bft) 98,00 %
04.12.2016 09:46 -2,6 C 92 % 1028,8 hPa 0,0 l/m 8,2 km/h (2 Bft) NO 46 2 min 0,000 mm 0,0 UV-I 179 W/m -3,7 C -4,6 C 11,3 km/h (2 Bft) 97,14 %
04.12.2016 09:48 -2,5 C 91 % 1028,8 hPa 0,0 l/m 6,7 km/h (2 Bft) NO 53 2 min 0,000 mm 0,0 UV-I 187 W/m -3,8 C -2,8 C 9,7 km/h (2 Bft) 98,21 %
04.12.2016 09:50 -2,5 C 91 % 1028,8 hPa 0,0 l/m 8,7 km/h (2 Bft) NO 51 2 min 0,000 mm 0,0 UV-I 194 W/m -3,8 C -5,0 C 14,5 km/h (3 Bft) 97,73 %
04.12.2016 09:52 -2,5 C 91 % 1028,9 hPa 0,0 l/m 7,7 km/h (2 Bft) O-NO 61 2 min 0,000 mm 0,0 UV-I 201 W/m -3,8 C -4,0 C 12,9 km/h (3 Bft) 98,00 %
04.12.2016 09:54 -2,4 C 91 % 1028,9 hPa 0,0 l/m 9,6 km/h (2 Bft) O-NO 57 2 min 0,000 mm 0,0 UV-I 222 W/m -3,7 C -5,7 C 14,5 km/h (3 Bft) 95,74 %
04.12.2016 09:56 -2,4 C 91 % 1028,9 hPa 0,0 l/m 7,8 km/h (2 Bft) NO 44 2 min 0,000 mm 0,0 UV-I 227 W/m -3,7 C -4,0 C 9,7 km/h (2 Bft) 94,74 %
04.12.2016 09:58 -2,3 C 91 % 1028,9 hPa 0,0 l/m 6,3 km/h (2 Bft) O-NO 59 2 min 0,000 mm 0,0 UV-I 229 W/m -3,6 C -2,3 C 11,3 km/h (2 Bft) 94,00 %
04.12.2016 10:00 -2,3 C 91 % 1028,9 hPa 0,0 l/m 7,0 km/h (2 Bft) O-NO 60 2 min 0,051 mm 0,0 UV-I 232 W/m -3,6 C -3,0 C 11,3 km/h (2 Bft) 96,00 %
04.12.2016 10:02 -2,2 C 91 % 1028,8 hPa 0,0 l/m 5,2 km/h (1 Bft) O-NO 64 2 min 0,000 mm 0,0 UV-I 238 W/m -3,5 C -2,2 C 8,0 km/h (2 Bft) 98,00 %
04.12.2016 10:04 -2,2 C 91 % 1028,8 hPa 0,0 l/m 7,0 km/h (2 Bft) O-NO 57 2 min 0,000 mm 0,0 UV-I 239 W/m -3,5 C -2,9 C 9,7 km/h (2 Bft) 100,00 %
04.12.2016 10:06 -2,1 C 91 % 1028,8 hPa 0,0 l/m 8,5 km/h (2 Bft) NO 55 2 min 0,000 mm 0,0 UV-I 230 W/m -3,4 C -4,4 C 14,5 km/h (3 Bft) 100,00 %
04.12.2016 10:08 -2,1 C 90 % 1028,8 hPa 0,0 l/m 7,9 km/h (2 Bft) O-NO 65 2 min 0,000 mm 0,0 UV-I 236 W/m -3,5 C -3,7 C 12,9 km/h (3 Bft) 97,73 %
04.12.2016 10:10 -2,0 C 91 % 1028,8 hPa 0,0 l/m 6,2 km/h (2 Bft) O-NO 57 2 min 0,000 mm 0,0 UV-I 251 W/m -3,3 C -2,0 C 9,7 km/h (2 Bft) 100,00 %
04.12.2016 10:12 -1,9 C 90 % 1028,9 hPa 0,0 l/m 6,9 km/h (2 Bft) O-NO 71 2 min 0,000 mm 0,0 UV-I 253 W/m -3,3 C -2,4 C 12,9 km/h (3 Bft) 100,00 %
04.12.2016 10:14 -1,9 C 90 % 1028,9 hPa 0,0 l/m 7,2 km/h (2 Bft) NO 51 2 min 0,000 mm 0,0 UV-I 261 W/m -3,3 C -2,8 C 9,7 km/h (2 Bft) 100,00 %
04.12.2016 10:16 -1,8 C 90 % 1028,9 hPa 0,0 l/m 7,2 km/h (2 Bft) O-NO 65 2 min 0,000 mm 0,0 UV-I 257 W/m -3,2 C -2,7 C 11,3 km/h (2 Bft) 100,00 %
04.12.2016 10:18 -1,8 C 90 % 1028,9 hPa 0,0 l/m 9,3 km/h (2 Bft) NO 47 2 min 0,000 mm 0,0 UV-I 254 W/m -3,2 C -4,8 C 14,5 km/h (3 Bft) 100,00 %
04.12.2016 10:20 -1,8 C 89 % 1028,9 hPa 0,0 l/m 9,2 km/h (2 Bft) O-NO 65 2 min 0,000 mm 0,0 UV-I 252 W/m -3,4 C -4,7 C 14,5 km/h (3 Bft) 100,00 %
04.12.2016 10:22 -1,7 C 89 % 1028,9 hPa 0,0 l/m 8,2 km/h (2 Bft) O-NO 57 2 min 0,000 mm 0,0 UV-I 253 W/m -3,3 C -3,6 C 12,9 km/h (3 Bft) 100,00 %
04.12.2016 10:24 -1,7 C 89 % 1028,9 hPa 0,0 l/m 9,0 km/h (2 Bft) NO 44 2 min 0,000 mm 0,0 UV-I 264 W/m -3,3 C -4,4 C 16,1 km/h (3 Bft) 96,36 %
04.12.2016 10:26 -1,6 C 89 % 1028,9 hPa 0,0 l/m 8,7 km/h (2 Bft) NO 42 2 min 0,000 mm 0,0 UV-I 271 W/m -3,2 C -4,0 C 14,5 km/h (3 Bft) 100,00 %
04.12.2016 10:28 -1,6 C 89 % 1029,0 hPa 0,0 l/m 10,3 km/h (2 Bft) NO 52 2 min 0,000 mm 0,0 UV-I 258 W/m -3,2 C -5,5 C 14,5 km/h (3 Bft) 100,00 %
04.12.2016 10:30 -1,6 C 89 % 1028,9 hPa 0,0 l/m 9,6 km/h (2 Bft) O-NO 61 2 min 0,000 mm 0,3 UV-I 288 W/m -3,2 C -4,9 C 14,5 km/h (3 Bft) 98,31 %
04.12.2016 10:32 -1,5 C 89 % 1028,9 hPa 0,0 l/m 8,2 km/h (2 Bft) NO 50 2 min 0,000 mm 0,5 UV-I 293 W/m -3,1 C -3,4 C 16,1 km/h (3 Bft) 100,00 %
04.12.2016 10:34 -1,5 C 89 % 1028,9 hPa 0,0 l/m 11,7 km/h (2 Bft) O-NO 67 2 min 0,000 mm 0,5 UV-I 295 W/m -3,1 C -6,5 C 16,1 km/h (3 Bft) 100,00 %
04.12.2016 10:36 -1,4 C 89 % 1028,8 hPa 0,0 l/m 9,9 km/h (2 Bft) NO 55 2 min 0,000 mm 0,5 UV-I 300 W/m -3,0 C -4,9 C 14,5 km/h (3 Bft) 97,37 %
04.12.2016 10:38 -1,4 C 89 % 1028,8 hPa 0,0 l/m 10,4 km/h (2 Bft) O-NO 66 2 min 0,000 mm 0,5 UV-I 299 W/m -3,0 C -5,3 C 14,5 km/h (3 Bft) 100,00 %
04.12.2016 10:40 -1,3 C 89 % 1028,9 hPa 0,2 l/m 9,0 km/h (2 Bft) O-NO 65 2 min 0,000 mm 0,5 UV-I 295 W/m -2,9 C -4,0 C 14,5 km/h (3 Bft) 100,00 %
04.12.2016 10:42 -1,3 C 89 % 1028,9 hPa 0,0 l/m 10,6 km/h (2 Bft) NO 42 2 min 0,000 mm 0,5 UV-I 279 W/m -2,9 C -5,4 C 14,5 km/h (3 Bft) 100,00 %
04.12.2016 10:44 -1,3 C 88 % 1028,8 hPa 0,0 l/m 10,2 km/h (2 Bft) O-NO 71 2 min 0,000 mm 0,5 UV-I 262 W/m -3,0 C -5,1 C 16,1 km/h (3 Bft) 100,00 %
04.12.2016 10:46 -1,4 C 88 % 1028,9 hPa 0,0 l/m 10,1 km/h (2 Bft) NO 47 2 min 0,000 mm 0,5 UV-I 264 W/m -3,1 C -5,1 C 14,5 km/h (3 Bft) 100,00 %
04.12.2016 10:48 -1,3 C 89 % 1028,9 hPa 0,0 l/m 7,3 km/h (2 Bft) O-NO 68 2 min 0,000 mm 0,5 UV-I 266 W/m -2,9 C -2,3 C 9,7 km/h (2 Bft) 100,00 %
04.12.2016 10:50 -1,2 C 89 % 1028,9 hPa 0,0 l/m 9,7 km/h (2 Bft) O-NO 60 2 min 0,000 mm 0,5 UV-I 260 W/m -2,8 C -4,5 C 14,5 km/h (3 Bft) 100,00 %
04.12.2016 10:52 -1,2 C 88 % 1028,9 hPa 0,0 l/m 11,7 km/h (2 Bft) O-NO 70 2 min 0,000 mm 0,5 UV-I 278 W/m -2,9 C -6,2 C 16,1 km/h (3 Bft) 100,00 %
04.12.2016 10:54 -1,2 C 88 % 1028,9 hPa 0,0 l/m 9,8 km/h (2 Bft) O-NO 73 2 min 0,000 mm 0,5 UV-I 285 W/m -2,9 C -4,6 C 16,1 km/h (3 Bft) 100,00 %
04.12.2016 10:56 -1,2 C 88 % 1028,9 hPa 0,0 l/m 9,2 km/h (2 Bft) O-NO 58 2 min 0,000 mm 0,5 UV-I 297 W/m -2,9 C -4,1 C 12,9 km/h (3 Bft) 100,00 %
04.12.2016 10:58 -1,1 C 89 % 1028,9 hPa 0,0 l/m 8,4 km/h (2 Bft) O 91 2 min 0,000 mm 0,5 UV-I 265 W/m -2,7 C -3,2 C 12,9 km/h (3 Bft) 100,00 %
04.12.2016 11:00 -1,1 C 89 % 1028,9 hPa 0,0 l/m 7,8 km/h (2 Bft) NO 45 2 min 0,076 mm 0,5 UV-I 311 W/m -2,7 C -2,6 C 11,3 km/h (2 Bft) 97,56 %
04.12.2016 11:02 -1,1 C 89 % 1028,9 hPa 0,0 l/m 7,1 km/h (2 Bft) O-NO 65 2 min 0,000 mm 0,5 UV-I 315 W/m -2,7 C -1,9 C 11,3 km/h (2 Bft) 98,00 %
04.12.2016 11:04 -0,9 C 89 % 1028,8 hPa 0,0 l/m 7,1 km/h (2 Bft) O-NO 73 2 min 0,000 mm 0,5 UV-I 340 W/m -2,5 C -1,6 C 14,5 km/h (3 Bft) 96,23 %
04.12.2016 11:06 -0,9 C 88 % 1028,8 hPa 0,0 l/m 7,8 km/h (2 Bft) O-NO 57 2 min 0,000 mm 0,5 UV-I 346 W/m -2,6 C -2,4 C 14,5 km/h (3 Bft) 100,00 %
04.12.2016 11:08 -0,8 C 89 % 1028,9 hPa 0,0 l/m 8,3 km/h (2 Bft) NO 53 2 min 0,000 mm 0,5 UV-I 339 W/m -2,4 C -2,8 C 11,3 km/h (2 Bft) 97,56 %
04.12.2016 11:10 -0,8 C 88 % 1028,9 hPa 0,0 l/m 7,4 km/h (2 Bft) NO 44 2 min 0,000 mm 0,5 UV-I 333 W/m -2,5 C -1,9 C 12,9 km/h (3 Bft) 92,73 %
04.12.2016 11:12 -0,7 C 88 % 1028,9 hPa 0,0 l/m 7,0 km/h (2 Bft) NO 56 2 min 0,000 mm 0,5 UV-I 339 W/m -2,4 C -1,3 C 12,9 km/h (3 Bft) 97,87 %
04.12.2016 11:14 -0,7 C 88 % 1028,9 hPa 0,0 l/m 7,6 km/h (2 Bft) O-NO 76 2 min 0,000 mm 0,5 UV-I 334 W/m -2,4 C -2,0 C 12,9 km/h (3 Bft) 97,37 %
04.12.2016 11:16 -0,7 C 88 % 1028,8 hPa 0,0 l/m 11,3 km/h (2 Bft) O-NO 68 2 min 0,000 mm 0,5 UV-I 326 W/m -2,4 C -5,3 C 16,1 km/h (3 Bft) 96,23 %
04.12.2016 11:18 -0,7 C 87 % 1028,8 hPa 0,0 l/m 8,2 km/h (2 Bft) O-NO 57 2 min 0,000 mm 0,5 UV-I 310 W/m -2,6 C -2,6 C 16,1 km/h (3 Bft) 97,56 %
04.12.2016 11:20 -0,7 C 87 % 1028,8 hPa 0,0 l/m 9,8 km/h (2 Bft) NO 51 2 min 0,000 mm 0,5 UV-I 290 W/m -2,6 C -4,1 C 17,7 km/h (3 Bft) 98,31 %
04.12.2016 11:22 -0,7 C 87 % 1028,8 hPa 0,0 l/m 10,1 km/h (2 Bft) NO 49 2 min 0,000 mm 0,5 UV-I 283 W/m -2,6 C -4,3 C 14,5 km/h (3 Bft) 92,11 %
04.12.2016 11:24 -0,7 C 87 % 1028,8 hPa 0,0 l/m 10,4 km/h (2 Bft) O-NO 57 2 min 0,000 mm 0,5 UV-I 284 W/m -2,6 C -4,6 C 14,5 km/h (3 Bft) 96,23 %
04.12.2016 11:26 -0,7 C 87 % 1028,8 hPa 0,0 l/m 8,0 km/h (2 Bft) NO 46 2 min 0,000 mm 0,5 UV-I 283 W/m -2,6 C -2,4 C 12,9 km/h (3 Bft) 100,00 %
04.12.2016 11:28 -0,6 C 88 % 1028,8 hPa 0,0 l/m 9,3 km/h (2 Bft) NO 40 2 min 0,000 mm 0,6 UV-I 311 W/m -2,3 C -3,5 C 14,5 km/h (3 Bft) 96,23 %
04.12.2016 11:30 -0,5 C 88 % 1028,8 hPa 0,0 l/m 9,0 km/h (2 Bft) O-NO 78 2 min 0,000 mm 0,6 UV-I 320 W/m -2,2 C -3,1 C 14,5 km/h (3 Bft) 100,00 %
04.12.2016 11:32 -0,5 C 87 % 1028,8 hPa 0,0 l/m 7,4 km/h (2 Bft) N-NO 32 2 min 0,000 mm 0,6 UV-I 326 W/m -2,4 C -1,6 C 9,7 km/h (2 Bft) 100,00 %
04.12.2016 11:34 -0,4 C 87 % 1028,8 hPa 0,0 l/m 8,3 km/h (2 Bft) O-NO 57 2 min 0,000 mm 0,6 UV-I 330 W/m -2,3 C -2,4 C 17,7 km/h (3 Bft) 100,00 %
04.12.2016 11:36 -0,4 C 87 % 1028,7 hPa 0,0 l/m 8,0 km/h (2 Bft) O-NO 62 2 min 0,000 mm 0,6 UV-I 329 W/m -2,3 C -2,1 C 14,5 km/h (3 Bft) 100,00 %
04.12.2016 11:38 -0,4 C 88 % 1028,7 hPa 0,0 l/m 9,2 km/h (2 Bft) NO 51 2 min 0,000 mm 0,6 UV-I 339 W/m -2,1 C -3,2 C 16,1 km/h (3 Bft) 100,00 %
04.12.2016 11:40 -0,3 C 87 % 1028,8 hPa 0,0 l/m 10,7 km/h (2 Bft) O-NO 65 2 min 0,000 mm 0,6 UV-I 347 W/m -2,2 C -4,4 C 17,7 km/h (3 Bft) 97,87 %
04.12.2016 11:42 -0,3 C 86 % 1028,8 hPa 0,0 l/m 12,0 km/h (2 Bft) NO 50 2 min 0,000 mm 0,6 UV-I 341 W/m -2,3 C -5,3 C 16,1 km/h (3 Bft) 100,00 %
04.12.2016 11:44 -0,3 C 86 % 1028,8 hPa 0,0 l/m 9,9 km/h (2 Bft) O-NO 73 2 min 0,000 mm 0,6 UV-I 341 W/m -2,3 C -3,7 C 14,5 km/h (3 Bft) 100,00 %
04.12.2016 11:46 -0,3 C 86 % 1028,7 hPa 0,0 l/m 9,1 km/h (2 Bft) NO 47 2 min 0,000 mm 0,6 UV-I 334 W/m -2,3 C -3,0 C 14,5 km/h (3 Bft) 97,56 %
04.12.2016 11:48 -0,3 C 87 % 1028,7 hPa 0,0 l/m 5,4 km/h (1 Bft) NO 46 2 min 0,000 mm 0,6 UV-I 335 W/m -2,2 C -0,3 C 9,7 km/h (2 Bft) 100,00 %
04.12.2016 11:50 -0,2 C 87 % 1028,7 hPa 0,0 l/m 10,9 km/h (2 Bft) NO 50 2 min 0,000 mm 0,6 UV-I 328 W/m -2,1 C -4,4 C 16,1 km/h (3 Bft) 100,00 %
04.12.2016 11:52 -0,2 C 86 % 1028,6 hPa 0,0 l/m 9,8 km/h (2 Bft) O-NO 69 2 min 0,000 mm 0,6 UV-I 327 W/m -2,3 C -3,5 C 14,5 km/h (3 Bft) 100,00 %
04.12.2016 11:54 -0,2 C 86 % 1028,6 hPa 0,0 l/m 7,2 km/h (2 Bft) NO 51 2 min 0,000 mm 0,6 UV-I 301 W/m -2,3 C -1,0 C 11,3 km/h (2 Bft) 100,00 %
04.12.2016 11:56 -0,2 C 86 % 1028,6 hPa 0,0 l/m 6,9 km/h (2 Bft) O-NO 66 2 min 0,000 mm 0,6 UV-I 325 W/m -2,3 C -0,7 C 12,9 km/h (3 Bft) 100,00 %
04.12.2016 11:58 -0,1 C 86 % 1028,6 hPa 0,0 l/m 8,7 km/h (2 Bft) N-NO 31 2 min 0,000 mm 0,6 UV-I 334 W/m -2,2 C -2,4 C 12,9 km/h (3 Bft) 100,00 %
04.12.2016 12:00 -0,1 C 86 % 1028,6 hPa 0,0 l/m 9,8 km/h (2 Bft) O-NO 61 2 min 0,000 mm 0,6 UV-I 338 W/m -2,2 C -3,4 C 14,5 km/h (3 Bft) 98,21 %
04.12.2016 12:02 -0,1 C 86 % 1028,6 hPa 0,0 l/m 10,6 km/h (2 Bft) O 96 2 min 0,102 mm 0,6 UV-I 344 W/m -2,2 C -4,1 C 14,5 km/h (3 Bft) 97,56 %
04.12.2016 12:04 0,0 C 86 % 1028,6 hPa 0,0 l/m 9,7 km/h (2 Bft) O-NO 59 2 min 0,000 mm 0,6 UV-I 340 W/m -2,1 C -3,2 C 16,1 km/h (3 Bft) 100,00 %
04.12.2016 12:06 0,0 C 86 % 1028,7 hPa 0,0 l/m 8,8 km/h (2 Bft) NO 41 2 min 0,000 mm 0,6 UV-I 345 W/m -2,1 C -2,4 C 12,9 km/h (3 Bft) 100,00 %
04.12.2016 12:08 0,1 C 86 % 1028,7 hPa 0,0 l/m 9,5 km/h (2 Bft) O-NO 61 2 min 0,000 mm 0,6 UV-I 330 W/m -2,0 C -2,9 C 14,5 km/h (3 Bft) 100,00 %
04.12.2016 12:10 0,1 C 86 % 1028,7 hPa 0,0 l/m 10,2 km/h (2 Bft) NO 55 2 min 0,000 mm 0,6 UV-I 318 W/m -2,0 C -3,5 C 16,1 km/h (3 Bft) 98,08 %
04.12.2016 12:12 0,1 C 87 % 1028,6 hPa 0,0 l/m 9,0 km/h (2 Bft) O-NO 65 2 min 0,000 mm 0,6 UV-I 319 W/m -1,8 C -2,5 C 14,5 km/h (3 Bft) 100,00 %
04.12.2016 12:14 0,1 C 86 % 1028,7 hPa 0,0 l/m 9,9 km/h (2 Bft) O-NO 63 2 min 0,000 mm 0,6 UV-I 339 W/m -2,0 C -3,3 C 14,5 km/h (3 Bft) 100,00 %
04.12.2016 12:16 0,1 C 86 % 1028,7 hPa 0,0 l/m 11,6 km/h (2 Bft) NO 55 2 min 0,000 mm 0,6 UV-I 324 W/m -2,0 C -4,6 C 17,7 km/h (3 Bft) 100,00 %
04.12.2016 12:18 0,1 C 86 % 1028,7 hPa 0,0 l/m 11,1 km/h (2 Bft) O-NO 71 2 min 0,000 mm 0,6 UV-I 311 W/m -2,0 C -4,2 C 16,1 km/h (3 Bft) 96,43 %
04.12.2016 12:20 0,1 C 86 % 1028,6 hPa 0,0 l/m 11,3 km/h (2 Bft) NO 50 2 min 0,000 mm 0,6 UV-I 318 W/m -2,0 C -4,4 C 16,1 km/h (3 Bft) 100,00 %
04.12.2016 12:22 0,1 C 85 % 1028,7 hPa 0,0 l/m 12,4 km/h (3 Bft) NO 42 2 min 0,000 mm 0,6 UV-I 312 W/m -2,1 C -5,2 C 17,7 km/h (3 Bft) 95,59 %
04.12.2016 12:24 0,1 C 86 % 1028,6 hPa 0,0 l/m 13,6 km/h (3 Bft) NO 51 2 min 0,000 mm 0,6 UV-I 327 W/m -2,0 C -6,0 C 20,9 km/h (4 Bft) 97,37 %
04.12.2016 12:26 0,1 C 86 % 1028,6 hPa 0,0 l/m 13,4 km/h (3 Bft) O-NO 69 2 min 0,000 mm 0,6 UV-I 332 W/m -2,0 C -5,9 C 19,3 km/h (3 Bft) 98,21 %
04.12.2016 12:28 0,1 C 86 % 1028,6 hPa 0,0 l/m 13,6 km/h (3 Bft) O-NO 71 2 min 0,000 mm 0,6 UV-I 332 W/m -2,0 C -6,0 C 17,7 km/h (3 Bft) 97,73 %
04.12.2016 12:30 0,1 C 86 % 1028,6 hPa 0,0 l/m 13,6 km/h (3 Bft) O-NO 69 2 min 0,000 mm 0,6 UV-I 299 W/m -2,0 C -6,0 C 17,7 km/h (3 Bft) 92,31 %
04.12.2016 12:32 0,2 C 85 % 1028,5 hPa 0,0 l/m 12,4 km/h (3 Bft) O-NO 61 2 min 0,000 mm 0,6 UV-I 318 W/m -2,0 C -5,1 C 16,1 km/h (3 Bft) 97,06 %
04.12.2016 12:34 0,2 C 86 % 1028,5 hPa 0,0 l/m 9,9 km/h (2 Bft) NO 51 2 min 0,000 mm 0,6 UV-I 330 W/m -1,9 C -3,1 C 19,3 km/h (3 Bft) 100,00 %
04.12.2016 12:36 0,3 C 85 % 1028,6 hPa 0,0 l/m 10,7 km/h (2 Bft) O-NO 73 2 min 0,000 mm 0,6 UV-I 325 W/m -1,9 C -3,7 C 16,1 km/h (3 Bft) 96,23 %
04.12.2016 12:38 0,3 C 86 % 1028,6 hPa 0,0 l/m 13,1 km/h (3 Bft) O-NO 59 2 min 0,000 mm 0,5 UV-I 320 W/m -1,8 C -5,4 C 16,1 km/h (3 Bft) 96,00 %
04.12.2016 12:40 0,3 C 86 % 1028,6 hPa 0,0 l/m 9,7 km/h (2 Bft) O-NO 57 2 min 0,000 mm 0,5 UV-I 319 W/m -1,8 C -2,9 C 14,5 km/h (3 Bft) 97,87 %
04.12.2016 12:42 0,3 C 85 % 1028,6 hPa 0,0 l/m 10,5 km/h (2 Bft) O 96 2 min 0,000 mm 0,5 UV-I 316 W/m -1,9 C -3,5 C 16,1 km/h (3 Bft) 97,87 %
04.12.2016 12:44 0,3 C 85 % 1028,6 hPa 0,0 l/m 10,8 km/h (2 Bft) O-NO 61 2 min 0,000 mm 0,5 UV-I 310 W/m -1,9 C -3,8 C 16,1 km/h (3 Bft) 100,00 %
04.12.2016 12:46 0,3 C 86 % 1028,5 hPa 0,0 l/m 9,1 km/h (2 Bft) O-NO 63 2 min 0,000 mm 0,5 UV-I 311 W/m -1,8 C -2,4 C 14,5 km/h (3 Bft) 100,00 %
04.12.2016 12:48 0,3 C 86 % 1028,5 hPa 0,0 l/m 10,5 km/h (2 Bft) NO 55 2 min 0,000 mm 0,5 UV-I 308 W/m -1,8 C -3,5 C 16,1 km/h (3 Bft) 100,00 %
04.12.2016 12:50 0,3 C 85 % 1028,5 hPa 0,0 l/m 8,7 km/h (2 Bft) NO 55 2 min 0,000 mm 0,5 UV-I 305 W/m -1,9 C -2,0 C 12,9 km/h (3 Bft) 100,00 %
04.12.2016 12:52 0,3 C 85 % 1028,5 hPa 0,0 l/m 10,5 km/h (2 Bft) NO 55 2 min 0,000 mm 0,5 UV-I 308 W/m -1,9 C -3,5 C 16,1 km/h (3 Bft) 98,11 %
04.12.2016 12:54 0,3 C 86 % 1028,5 hPa 0,0 l/m 7,6 km/h (2 Bft) NO 37 2 min 0,000 mm 0,5 UV-I 305 W/m -1,8 C -0,9 C 11,3 km/h (2 Bft) 100,00 %
04.12.2016 12:56 0,4 C 86 % 1028,5 hPa 0,0 l/m 12,8 km/h (3 Bft) O-NO 69 2 min 0,000 mm 0,5 UV-I 303 W/m -1,7 C -5,1 C 19,3 km/h (3 Bft) 100,00 %
04.12.2016 12:58 0,4 C 86 % 1028,5 hPa 0,0 l/m 12,0 km/h (2 Bft) O-NO 61 2 min 0,000 mm 0,5 UV-I 295 W/m -1,7 C -4,5 C 17,7 km/h (3 Bft) 100,00 %
04.12.2016 13:00 0,4 C 86 % 1028,5 hPa 0,0 l/m 11,2 km/h (2 Bft) O 98 2 min 0,127 mm 0,5 UV-I 285 W/m -1,7 C -4,0 C 16,1 km/h (3 Bft) 97,73 %
04.12.2016 13:02 0,4 C 85 % 1028,5 hPa 0,0 l/m 12,0 km/h (2 Bft) O-NO 72 2 min 0,000 mm 0,5 UV-I 285 W/m -1,8 C -4,5 C 17,7 km/h (3 Bft) 100,00 %
04.12.2016 13:04 0,4 C 86 % 1028,5 hPa 0,0 l/m 8,8 km/h (2 Bft) NO 53 2 min 0,000 mm 0,5 UV-I 283 W/m -1,7 C -2,0 C 14,5 km/h (3 Bft) 98,00 %
04.12.2016 13:06 0,4 C 85 % 1028,5 hPa 0,0 l/m 13,5 km/h (3 Bft) O 81 2 min 0,000 mm 0,5 UV-I 250 W/m -1,8 C -5,6 C 17,7 km/h (3 Bft) 100,00 %
04.12.2016 13:08 0,4 C 86 % 1028,5 hPa 0,0 l/m 8,4 km/h (2 Bft) O-NO 68 2 min 0,000 mm 0,5 UV-I 276 W/m -1,7 C -1,6 C 12,9 km/h (3 Bft) 100,00 %
04.12.2016 13:10 0,5 C 86 % 1028,5 hPa 0,0 l/m 9,2 km/h (2 Bft) O-NO 67 2 min 0,000 mm 0,5 UV-I 278 W/m -1,6 C -2,2 C 14,5 km/h (3 Bft) 100,00 %
04.12.2016 13:12 0,5 C 86 % 1028,5 hPa 0,0 l/m 7,9 km/h (2 Bft) O-NO 71 2 min 0,000 mm 0,5 UV-I 281 W/m -1,6 C -1,0 C 14,5 km/h (3 Bft) 100,00 %
04.12.2016 13:14 0,6 C 86 % 1028,5 hPa 0,0 l/m 7,0 km/h (2 Bft) O-NO 60 2 min 0,000 mm 0,5 UV-I 281 W/m -1,5 C -0,0 C 11,3 km/h (2 Bft) 100,00 %
04.12.2016 13:16 0,6 C 86 % 1028,5 hPa 0,0 l/m 7,9 km/h (2 Bft) O 88 2 min 0,000 mm 0,0 UV-I 278 W/m -1,5 C -0,9 C 12,9 km/h (3 Bft) 100,00 %
04.12.2016 13:18 0,6 C 86 % 1028,5 hPa 0,0 l/m 11,2 km/h (2 Bft) O 86 2 min 0,000 mm 0,0 UV-I 276 W/m -1,5 C -3,7 C 17,7 km/h (3 Bft) 100,00 %
04.12.2016 13:20 0,7 C 86 % 1028,5 hPa 0,0 l/m 13,4 km/h (3 Bft) O-NO 76 2 min 0,000 mm 0,0 UV-I 273 W/m -1,4 C -5,1 C 19,3 km/h (3 Bft) 100,00 %
04.12.2016 13:22 0,6 C 85 % 1028,4 hPa 0,0 l/m 14,0 km/h (3 Bft) O-NO 71 2 min 0,000 mm 0,0 UV-I 263 W/m -1,6 C -5,6 C 17,7 km/h (3 Bft) 100,00 %
04.12.2016 13:24 0,6 C 85 % 1028,5 hPa 0,0 l/m 11,4 km/h (2 Bft) O 90 2 min 0,000 mm 0,0 UV-I 261 W/m -1,6 C -3,9 C 16,1 km/h (3 Bft) 100,00 %
04.12.2016 13:26 0,6 C 85 % 1028,5 hPa 0,0 l/m 8,8 km/h (2 Bft) O-NO 71 2 min 0,000 mm 0,0 UV-I 269 W/m -1,6 C -1,8 C 16,1 km/h (3 Bft) 100,00 %
04.12.2016 13:28 0,6 C 86 % 1028,4 hPa 0,2 l/m 9,8 km/h (2 Bft) O-NO 78 2 min 0,000 mm 0,0 UV-I 267 W/m -1,5 C -2,6 C 16,1 km/h (3 Bft) 100,00 %
04.12.2016 13:30 0,7 C 86 % 1028,4 hPa 0,0 l/m 9,1 km/h (2 Bft) O-NO 63 2 min 0,000 mm 0,0 UV-I 265 W/m -1,4 C -1,9 C 12,9 km/h (3 Bft) 100,00 %
04.12.2016 13:32 0,7 C 85 % 1028,4 hPa 0,0 l/m 10,9 km/h (2 Bft) O-NO 70 2 min 0,000 mm 0,0 UV-I 263 W/m -1,5 C -3,4 C 14,5 km/h (3 Bft) 100,00 %
04.12.2016 13:34 0,7 C 85 % 1028,4 hPa 0,0 l/m 9,1 km/h (2 Bft) O-NO 68 2 min 0,000 mm 0,0 UV-I 258 W/m -1,5 C -1,9 C 14,5 km/h (3 Bft) 100,00 %
04.12.2016 13:36 0,7 C 86 % 1028,4 hPa 0,0 l/m 7,3 km/h (2 Bft) O-NO 65 2 min 0,000 mm 0,0 UV-I 260 W/m -1,4 C -0,2 C 12,9 km/h (3 Bft) 100,00 %
04.12.2016 13:38 0,8 C 86 % 1028,4 hPa 0,0 l/m 9,0 km/h (2 Bft) O-NO 67 2 min 0,000 mm 0,0 UV-I 259 W/m -1,3 C -1,7 C 14,5 km/h (3 Bft) 94,74 %
04.12.2016 13:40 0,8 C 85 % 1028,4 hPa 0,0 l/m 12,7 km/h (3 Bft) O-NO 71 2 min 0,000 mm 0,0 UV-I 264 W/m -1,4 C -4,6 C 17,7 km/h (3 Bft) 97,87 %
04.12.2016 13:42 0,8 C 85 % 1028,4 hPa 0,0 l/m 9,8 km/h (2 Bft) O-NO 66 2 min 0,000 mm 0,0 UV-I 256 W/m -1,4 C -2,4 C 14,5 km/h (3 Bft) 96,00 %
04.12.2016 13:44 0,8 C 86 % 1028,3 hPa 0,0 l/m 11,5 km/h (2 Bft) O 80 2 min 0,000 mm 0,0 UV-I 241 W/m -1,3 C -3,7 C 17,7 km/h (3 Bft) 98,11 %
04.12.2016 13:46 0,8 C 85 % 1028,3 hPa 0,0 l/m 10,1 km/h (2 Bft) O-NO 74 2 min 0,000 mm 0,0 UV-I 217 W/m -1,4 C -2,6 C 14,5 km/h (3 Bft) 94,74 %
04.12.2016 13:48 0,8 C 85 % 1028,3 hPa 0,0 l/m 10,2 km/h (2 Bft) O 79 2 min 0,000 mm 0,0 UV-I 219 W/m -1,4 C -2,7 C 17,7 km/h (3 Bft) 96,00 %
04.12.2016 13:50 0,8 C 85 % 1028,3 hPa 0,0 l/m 12,5 km/h (3 Bft) O-NO 61 2 min 0,000 mm 0,0 UV-I 167 W/m -1,4 C -4,4 C 16,1 km/h (3 Bft) 97,37 %
04.12.2016 13:52 0,7 C 85 % 1028,3 hPa 0,0 l/m 10,1 km/h (2 Bft) O-NO 69 2 min 0,000 mm 0,0 UV-I 146 W/m -1,5 C -2,8 C 14,5 km/h (3 Bft) 98,00 %
04.12.2016 13:54 0,7 C 85 % 1028,3 hPa 0,0 l/m 10,9 km/h (2 Bft) O-NO 67 2 min 0,000 mm 0,0 UV-I 183 W/m -1,5 C -3,4 C 16,1 km/h (3 Bft) 97,87 %
04.12.2016 13:56 0,7 C 85 % 1028,3 hPa 0,0 l/m 9,0 km/h (2 Bft) O-NO 74 2 min 0,000 mm 0,0 UV-I 201 W/m -1,5 C -1,8 C 16,1 km/h (3 Bft) 94,00 %
04.12.2016 13:58 0,7 C 85 % 1028,4 hPa 0,0 l/m 8,9 km/h (2 Bft) O-SO 112 2 min 0,000 mm 0,0 UV-I 224 W/m -1,5 C -1,7 C 12,9 km/h (3 Bft) 98,00 %
04.12.2016 14:00 0,7 C 86 % 1028,4 hPa 0,0 l/m 7,5 km/h (2 Bft) O-NO 66 2 min 0,102 mm 0,0 UV-I 245 W/m -1,4 C -0,4 C 14,5 km/h (3 Bft) 96,00 %
04.12.2016 14:02 0,8 C 86 % 1028,4 hPa 0,0 l/m 8,2 km/h (2 Bft) O 86 2 min 0,000 mm 0,0 UV-I 238 W/m -1,3 C -1,0 C 12,9 km/h (3 Bft) 97,87 %
04.12.2016 14:04 0,9 C 85 % 1028,4 hPa 0,0 l/m 11,0 km/h (2 Bft) O 84 2 min 0,000 mm 0,0 UV-I 218 W/m -1,3 C -3,2 C 16,1 km/h (3 Bft) 100,00 %
04.12.2016 14:06 0,9 C 85 % 1028,4 hPa 0,0 l/m 9,1 km/h (2 Bft) O-NO 57 2 min 0,000 mm 0,0 UV-I 216 W/m -1,3 C -1,7 C 14,5 km/h (3 Bft) 100,00 %
04.12.2016 14:08 0,9 C 85 % 1028,3 hPa 0,0 l/m 10,0 km/h (2 Bft) O-NO 69 2 min 0,000 mm 0,0 UV-I 199 W/m -1,3 C -2,5 C 14,5 km/h (3 Bft) 100,00 %
04.12.2016 14:10 0,9 C 85 % 1028,3 hPa 0,0 l/m 6,9 km/h (2 Bft) O-NO 65 2 min 0,000 mm 0,0 UV-I 208 W/m -1,3 C 0,4 C 12,9 km/h (3 Bft) 98,11 %
04.12.2016 14:12 0,9 C 85 % 1028,3 hPa 0,0 l/m 7,8 km/h (2 Bft) O-NO 57 2 min 0,000 mm 0,0 UV-I 216 W/m -1,3 C -0,5 C 11,3 km/h (2 Bft) 100,00 %
04.12.2016 14:14 0,9 C 85 % 1028,4 hPa 0,0 l/m 7,9 km/h (2 Bft) NO 55 2 min 0,000 mm 0,0 UV-I 217 W/m -1,3 C -0,6 C 11,3 km/h (2 Bft) 100,00 %
04.12.2016 14:16 0,8 C 85 % 1028,4 hPa 0,0 l/m 9,9 km/h (2 Bft) NO 50 2 min 0,000 mm 0,0 UV-I 212 W/m -1,4 C -2,5 C 14,5 km/h (3 Bft) 97,56 %
04.12.2016 14:18 0,8 C 85 % 1028,4 hPa 0,0 l/m 10,9 km/h (2 Bft) NO 45 2 min 0,000 mm 0,0 UV-I 203 W/m -1,4 C -3,3 C 17,7 km/h (3 Bft) 100,00 %
04.12.2016 14:20 0,8 C 85 % 1028,4 hPa 0,0 l/m 10,5 km/h (2 Bft) O-NO 69 2 min 0,000 mm 0,0 UV-I 203 W/m -1,4 C -3,0 C 16,1 km/h (3 Bft) 100,00 %
04.12.2016 14:22 0,8 C 85 % 1028,4 hPa 0,0 l/m 13,9 km/h (3 Bft) O-NO 67 2 min 0,000 mm 0,0 UV-I 186 W/m -1,4 C -5,3 C 20,9 km/h (4 Bft) 96,23 %
04.12.2016 14:24 0,8 C 84 % 1028,4 hPa 0,0 l/m 13,6 km/h (3 Bft) O-NO 62 2 min 0,000 mm 0,0 UV-I 181 W/m -1,6 C -5,2 C 17,7 km/h (3 Bft) 100,00 %
04.12.2016 14:26 0,8 C 85 % 1028,4 hPa 0,0 l/m 11,7 km/h (2 Bft) O-NO 57 2 min 0,000 mm 0,0 UV-I 163 W/m -1,4 C -3,9 C 17,7 km/h (3 Bft) 100,00 %
04.12.2016 14:28 0,8 C 85 % 1028,4 hPa 0,0 l/m 11,2 km/h (2 Bft) O-NO 68 2 min 0,000 mm 0,0 UV-I 164 W/m -1,4 C -3,5 C 16,1 km/h (3 Bft) 100,00 %
04.12.2016 14:30 0,8 C 85 % 1028,4 hPa 0,0 l/m 11,5 km/h (2 Bft) O-NO 61 2 min 0,000 mm 0,0 UV-I 172 W/m -1,4 C -3,7 C 14,5 km/h (3 Bft) 100,00 %
04.12.2016 14:32 0,8 C 84 % 1028,5 hPa 0,0 l/m 12,1 km/h (2 Bft) O-NO 75 2 min 0,000 mm 0,0 UV-I 173 W/m -1,6 C -4,2 C 17,7 km/h (3 Bft) 100,00 %
04.12.2016 14:34 0,8 C 84 % 1028,5 hPa 0,0 l/m 11,5 km/h (2 Bft) O-NO 71 2 min 0,000 mm 0,0 UV-I 165 W/m -1,6 C -3,7 C 17,7 km/h (3 Bft) 100,00 %
04.12.2016 14:36 0,8 C 85 % 1028,5 hPa 0,0 l/m 12,0 km/h (2 Bft) NO 52 2 min 0,000 mm 0,0 UV-I 165 W/m -1,4 C -4,1 C 17,7 km/h (3 Bft) 100,00 %
04.12.2016 14:38 0,8 C 84 % 1028,5 hPa 0,0 l/m 11,1 km/h (2 Bft) O-NO 59 2 min 0,000 mm 0,0 UV-I 172 W/m -1,6 C -3,4 C 17,7 km/h (3 Bft) 100,00 %
04.12.2016 14:40 0,8 C 84 % 1028,4 hPa 0,0 l/m 11,2 km/h (2 Bft) NO 53 2 min 0,000 mm 0,0 UV-I 166 W/m -1,6 C -3,5 C 17,7 km/h (3 Bft) 100,00 %
04.12.2016 14:42 0,7 C 84 % 1028,5 hPa 0,0 l/m 14,3 km/h (3 Bft) O-NO 59 2 min 0,000 mm 0,0 UV-I 160 W/m -1,7 C -5,7 C 19,3 km/h (3 Bft) 98,11 %
04.12.2016 14:44 0,7 C 84 % 1028,5 hPa 0,0 l/m 12,7 km/h (3 Bft) O-NO 78 2 min 0,000 mm 0,0 UV-I 156 W/m -1,7 C -4,7 C 20,9 km/h (4 Bft) 100,00 %
04.12.2016 14:46 0,7 C 84 % 1028,5 hPa 0,0 l/m 11,5 km/h (2 Bft) NO 52 2 min 0,000 mm 0,0 UV-I 147 W/m -1,7 C -3,8 C 16,1 km/h (3 Bft) 100,00 %
04.12.2016 14:48 0,7 C 84 % 1028,4 hPa 0,0 l/m 10,9 km/h (2 Bft) O-NO 69 2 min 0,000 mm 0,0 UV-I 140 W/m -1,7 C -3,4 C 16,1 km/h (3 Bft) 100,00 %
04.12.2016 14:50 0,7 C 85 % 1028,4 hPa 0,0 l/m 9,6 km/h (2 Bft) NO 52 2 min 0,000 mm 0,0 UV-I 144 W/m -1,5 C -2,3 C 14,5 km/h (3 Bft) 100,00 %
04.12.2016 14:52 0,7 C 85 % 1028,5 hPa 0,0 l/m 9,5 km/h (2 Bft) O-NO 72 2 min 0,000 mm 0,0 UV-I 145 W/m -1,5 C -2,3 C 14,5 km/h (3 Bft) 100,00 %
04.12.2016 14:54 0,7 C 85 % 1028,4 hPa 0,0 l/m 12,7 km/h (3 Bft) O-NO 73 2 min 0,000 mm 0,0 UV-I 140 W/m -1,5 C -4,7 C 17,7 km/h (3 Bft) 98,11 %
04.12.2016 14:56 0,7 C 84 % 1028,5 hPa 0,0 l/m 12,3 km/h (3 Bft) O 90 2 min 0,000 mm 0,0 UV-I 137 W/m -1,7 C -4,4 C 19,3 km/h (3 Bft) 100,00 %
04.12.2016 14:58 0,7 C 84 % 1028,5 hPa 0,0 l/m 12,1 km/h (2 Bft) O 85 2 min 0,000 mm 0,0 UV-I 131 W/m -1,7 C -4,3 C 20,9 km/h (4 Bft) 97,73 %
04.12.2016 15:00 0,6 C 84 % 1028,5 hPa 0,0 l/m 13,8 km/h (3 Bft) O 84 2 min 0,076 mm 0,0 UV-I 127 W/m -1,8 C -5,5 C 17,7 km/h (3 Bft) 100,00 %
04.12.2016 15:02 0,6 C 84 % 1028,5 hPa 0,0 l/m 11,5 km/h (2 Bft) O-NO 74 2 min 0,000 mm 0,0 UV-I 121 W/m -1,8 C -3,9 C 16,1 km/h (3 Bft) 100,00 %
04.12.2016 15:04 0,6 C 84 % 1028,5 hPa 0,0 l/m 13,4 km/h (3 Bft) O-NO 74 2 min 0,000 mm 0,0 UV-I 116 W/m -1,8 C -5,3 C 19,3 km/h (3 Bft) 100,00 %
04.12.2016 15:06 0,6 C 84 % 1028,4 hPa 0,0 l/m 11,7 km/h (2 Bft) O-NO 74 2 min 0,000 mm 0,0 UV-I 110 W/m -1,8 C -4,1 C 16,1 km/h (3 Bft) 100,00 %
04.12.2016 15:08 0,6 C 85 % 1028,4 hPa 0,0 l/m 12,0 km/h (2 Bft) O-NO 72 2 min 0,000 mm 0,0 UV-I 105 W/m -1,6 C -4,3 C 17,7 km/h (3 Bft) 100,00 %
04.12.2016 15:10 0,5 C 84 % 1028,4 hPa 0,0 l/m 15,4 km/h (3 Bft) O-NO 65 2 min 0,000 mm 0,0 UV-I 98 W/m -1,9 C -6,6 C 19,3 km/h (3 Bft) 100,00 %
04.12.2016 15:12 0,5 C 84 % 1028,4 hPa 0,0 l/m 15,0 km/h (3 Bft) O-NO 74 2 min 0,000 mm 0,0 UV-I 97 W/m -1,9 C -6,4 C 20,9 km/h (4 Bft) 100,00 %
04.12.2016 15:14 0,4 C 84 % 1028,4 hPa 0,0 l/m 15,3 km/h (3 Bft) O 80 2 min 0,000 mm 0,0 UV-I 92 W/m -2,0 C -6,7 C 22,5 km/h (4 Bft) 97,37 %
04.12.2016 15:16 0,4 C 84 % 1028,4 hPa 0,0 l/m 13,7 km/h (3 Bft) O-NO 75 2 min 0,000 mm 0,0 UV-I 89 W/m -2,0 C -5,7 C 19,3 km/h (3 Bft) 100,00 %
04.12.2016 15:18 0,4 C 85 % 1028,4 hPa 0,0 l/m 12,1 km/h (2 Bft) O-NO 69 2 min 0,000 mm 0,0 UV-I 85 W/m -1,8 C -4,6 C 17,7 km/h (3 Bft) 100,00 %
04.12.2016 15:20 0,3 C 85 % 1028,4 hPa 0,0 l/m 8,6 km/h (2 Bft) O 85 2 min 0,000 mm 0,0 UV-I 81 W/m -1,9 C -1,9 C 12,9 km/h (3 Bft) 98,31 %
04.12.2016 15:22 0,3 C 85 % 1028,4 hPa 0,0 l/m 9,1 km/h (2 Bft) O-NO 70 2 min 0,000 mm 0,0 UV-I 76 W/m -1,9 C -2,4 C 12,9 km/h (3 Bft) 94,74 %
04.12.2016 15:24 0,3 C 86 % 1028,5 hPa 0,0 l/m 13,4 km/h (3 Bft) O-NO 71 2 min 0,000 mm 0,0 UV-I 72 W/m -1,8 C -5,6 C 19,3 km/h (3 Bft) 98,04 %
04.12.2016 15:26 0,3 C 85 % 1028,5 hPa 0,0 l/m 15,4 km/h (3 Bft) O-NO 65 2 min 0,000 mm 0,0 UV-I 68 W/m -1,9 C -6,9 C 20,9 km/h (4 Bft) 91,84 %
04.12.2016 15:28 0,3 C 85 % 1028,5 hPa 0,0 l/m 14,3 km/h (3 Bft) O-NO 71 2 min 0,000 mm 0,0 UV-I 65 W/m -1,9 C -6,2 C 19,3 km/h (3 Bft) 97,44 %
04.12.2016 15:30 0,3 C 85 % 1028,6 hPa 0,0 l/m 13,2 km/h (3 Bft) O 99 2 min 0,000 mm 0,0 UV-I 62 W/m -1,9 C -5,5 C 16,1 km/h (3 Bft) 97,73 %
04.12.2016 15:32 0,2 C 85 % 1028,6 hPa 0,0 l/m 11,1 km/h (2 Bft) O-NO 76 2 min 0,000 mm 0,0 UV-I 59 W/m -2,0 C -4,1 C 17,7 km/h (3 Bft) 96,61 %
04.12.2016 15:34 0,2 C 85 % 1028,5 hPa 0,0 l/m 13,8 km/h (3 Bft) O 79 2 min 0,000 mm 0,0 UV-I 55 W/m -2,0 C -6,0 C 17,7 km/h (3 Bft) 97,73 %
04.12.2016 15:36 0,2 C 85 % 1028,6 hPa 0,0 l/m 13,7 km/h (3 Bft) O-NO 69 2 min 0,000 mm 0,0 UV-I 52 W/m -2,0 C -5,9 C 17,7 km/h (3 Bft) 97,56 %
04.12.2016 15:38 0,2 C 86 % 1028,5 hPa 0,0 l/m 10,4 km/h (2 Bft) O 94 2 min 0,000 mm 0,0 UV-I 48 W/m -1,9 C -3,6 C 14,5 km/h (3 Bft) 96,00 %
04.12.2016 15:40 0,1 C 86 % 1028,5 hPa 0,0 l/m 12,4 km/h (3 Bft) O-NO 65 2 min 0,000 mm 0,0 UV-I 46 W/m -2,0 C -5,2 C 17,7 km/h (3 Bft) 97,87 %
04.12.2016 15:42 0,1 C 86 % 1028,5 hPa 0,0 l/m 11,6 km/h (2 Bft) O-NO 60 2 min 0,000 mm 0,0 UV-I 42 W/m -2,0 C -4,6 C 14,5 km/h (3 Bft) 96,23 %
04.12.2016 15:44 0,1 C 86 % 1028,5 hPa 0,0 l/m 12,5 km/h (3 Bft) O-NO 72 2 min 0,000 mm 0,0 UV-I 40 W/m -2,0 C -5,2 C 20,9 km/h (4 Bft) 97,56 %
04.12.2016 15:46 0,1 C 86 % 1028,5 hPa 0,0 l/m 12,5 km/h (3 Bft) O-NO 71 2 min 0,000 mm 0,0 UV-I 36 W/m -2,0 C -5,2 C 19,3 km/h (3 Bft) 98,11 %
04.12.2016 15:48 0,0 C 86 % 1028,5 hPa 0,0 l/m 8,9 km/h (2 Bft) O-NO 75 2 min 0,000 mm 0,0 UV-I 33 W/m -2,1 C -2,5 C 12,9 km/h (3 Bft) 97,87 %
04.12.2016 15:50 0,0 C 86 % 1028,5 hPa 0,0 l/m 13,0 km/h (3 Bft) O-NO 67 2 min 0,000 mm 0,0 UV-I 31 W/m -2,1 C -5,7 C 17,7 km/h (3 Bft) 95,74 %
04.12.2016 15:52 -0,1 C 87 % 1028,5 hPa 0,0 l/m 13,0 km/h (3 Bft) O-NO 63 2 min 0,000 mm 0,0 UV-I 26 W/m -2,0 C -5,8 C 16,1 km/h (3 Bft) 97,37 %
04.12.2016 15:54 -0,1 C 87 % 1028,5 hPa 0,0 l/m 14,0 km/h (3 Bft) NO 54 2 min 0,000 mm 0,0 UV-I 21 W/m -2,0 C -6,5 C 17,7 km/h (3 Bft) 98,00 %
04.12.2016 15:56 -0,1 C 87 % 1028,6 hPa 0,0 l/m 16,3 km/h (3 Bft) O-NO 69 2 min 0,000 mm 0,0 UV-I 18 W/m -2,0 C -7,9 C 20,9 km/h (4 Bft) 97,87 %
04.12.2016 15:58 -0,1 C 86 % 1028,5 hPa 0,0 l/m 14,1 km/h (3 Bft) O-NO 67 2 min 0,000 mm 0,0 UV-I 16 W/m -2,2 C -6,5 C 19,3 km/h (3 Bft) 92,68 %
04.12.2016 16:00 -0,1 C 86 % 1028,6 hPa 0,0 l/m 12,6 km/h (3 Bft) O-NO 59 0 min 0,025 mm 0,0 UV-I 14 W/m -2,2 C -5,5 C 19,3 km/h (3 Bft) 96,97 %
04.12.2016 16:02 -0,2 C 86 % 1028,5 hPa 0,0 l/m 10,6 km/h (2 Bft) O-NO 67 0 min 0,000 mm 0,0 UV-I 14 W/m -2,3 C -4,2 C 16,1 km/h (3 Bft) 95,52 %
04.12.2016 16:04 -0,2 C 87 % 1028,6 hPa 0,0 l/m 8,9 km/h (2 Bft) O-NO 66 0 min 0,000 mm 0,0 UV-I 14 W/m -2,1 C -2,7 C 14,5 km/h (3 Bft) 100,00 %
04.12.2016 16:06 -0,2 C 87 % 1028,5 hPa 0,0 l/m 9,3 km/h (2 Bft) O-NO 72 0 min 0,000 mm 0,0 UV-I 12 W/m -2,1 C -3,1 C 14,5 km/h (3 Bft) 96,77 %
04.12.2016 16:08 -0,3 C 87 % 1028,6 hPa 0,0 l/m 9,4 km/h (2 Bft) O-NO 58 0 min 0,000 mm 0,0 UV-I 11 W/m -2,2 C -3,3 C 14,5 km/h (3 Bft) 100,00 %
04.12.2016 16:10 -0,3 C 87 % 1028,6 hPa 0,0 l/m 9,8 km/h (2 Bft) NO 53 0 min 0,000 mm 0,0 UV-I 10 W/m -2,2 C -3,6 C 17,7 km/h (3 Bft) 100,00 %
04.12.2016 16:12 -0,3 C 87 % 1028,6 hPa 0,0 l/m 14,2 km/h (3 Bft) O-NO 66 0 min 0,000 mm 0,0 UV-I 9 W/m -2,2 C -6,8 C 17,7 km/h (3 Bft) 100,00 %
04.12.2016 16:14 -0,3 C 87 % 1028,6 hPa 0,0 l/m 11,8 km/h (2 Bft) O-NO 69 0 min 0,000 mm 0,0 UV-I 9 W/m -2,2 C -5,2 C 20,9 km/h (4 Bft) 100,00 %
04.12.2016 16:16 -0,3 C 88 % 1028,6 hPa 0,0 l/m 14,2 km/h (3 Bft) O-NO 62 0 min 0,000 mm 0,0 UV-I 7 W/m -2,0 C -6,8 C 17,7 km/h (3 Bft) 100,00 %
04.12.2016 16:18 -0,3 C 88 % 1028,7 hPa 0,0 l/m 12,4 km/h (3 Bft) O-NO 64 0 min 0,000 mm 0,0 UV-I 7 W/m -2,0 C -5,6 C 17,7 km/h (3 Bft) 100,00 %
04.12.2016 16:20 -0,3 C 88 % 1028,7 hPa 0,0 l/m 11,8 km/h (2 Bft) NO 42 0 min 0,000 mm 0,0 UV-I 7 W/m -2,0 C -5,2 C 16,1 km/h (3 Bft) 97,56 %
04.12.2016 16:22 -0,3 C 88 % 1028,7 hPa 0,0 l/m 11,5 km/h (2 Bft) O-NO 69 0 min 0,000 mm 0,0 UV-I 7 W/m -2,0 C -5,0 C 16,1 km/h (3 Bft) 100,00 %
04.12.2016 16:24 -0,4 C 88 % 1028,7 hPa 0,0 l/m 13,6 km/h (3 Bft) NO 48 0 min 0,000 mm 0,0 UV-I 5 W/m -2,1 C -6,6 C 19,3 km/h (3 Bft) 97,87 %
04.12.2016 16:26 -0,4 C 88 % 1028,8 hPa 0,0 l/m 14,1 km/h (3 Bft) NO 56 0 min 0,000 mm 0,0 UV-I 5 W/m -2,1 C -6,9 C 20,9 km/h (4 Bft) 100,00 %
04.12.2016 16:28 -0,4 C 88 % 1028,8 hPa 0,0 l/m 14,4 km/h (3 Bft) O-NO 59 0 min 0,000 mm 0,0 UV-I 5 W/m -2,1 C -7,1 C 20,9 km/h (4 Bft) 100,00 %
04.12.2016 16:30 -0,4 C 88 % 1028,8 hPa 0,0 l/m 14,2 km/h (3 Bft) O-NO 78 0 min 0,000 mm 0,0 UV-I 5 W/m -2,1 C -7,0 C 20,9 km/h (4 Bft) 100,00 %
04.12.2016 16:32 -0,4 C 88 % 1028,8 hPa 0,0 l/m 10,8 km/h (2 Bft) O-NO 64 0 min 0,000 mm 0,0 UV-I 0 W/m -2,1 C -4,5 C 14,5 km/h (3 Bft) 98,28 %
04.12.2016 16:34 -0,5 C 88 % 1028,8 hPa 0,0 l/m 13,4 km/h (3 Bft) O-NO 69 0 min 0,000 mm 0,0 UV-I 0 W/m -2,2 C -6,6 C 22,5 km/h (4 Bft) 100,00 %
04.12.2016 16:36 -0,5 C 88 % 1028,9 hPa 0,0 l/m 12,6 km/h (3 Bft) O-NO 70 0 min 0,000 mm 0,0 UV-I 0 W/m -2,2 C -6,0 C 17,7 km/h (3 Bft) 100,00 %
04.12.2016 16:38 -0,5 C 88 % 1028,9 hPa 0,0 l/m 14,4 km/h (3 Bft) O-NO 60 0 min 0,000 mm 0,0 UV-I 0 W/m -2,2 C -7,2 C 22,5 km/h (4 Bft) 100,00 %
04.12.2016 16:40 -0,6 C 88 % 1028,9 hPa 0,0 l/m 13,3 km/h (3 Bft) O-NO 64 0 min 0,000 mm 0,0 UV-I 0 W/m -2,3 C -6,6 C 19,3 km/h (3 Bft) 100,00 %
04.12.2016 16:42 -0,6 C 88 % 1028,9 hPa 0,0 l/m 13,9 km/h (3 Bft) O-NO 68 0 min 0,000 mm 0,0 UV-I 0 W/m -2,3 C -7,0 C 24,1 km/h (4 Bft) 100,00 %
04.12.2016 16:44 -0,6 C 88 % 1028,9 hPa 0,0 l/m 14,0 km/h (3 Bft) NO 51 0 min 0,000 mm 0,0 UV-I 0 W/m -2,3 C -7,1 C 19,3 km/h (3 Bft) 98,11 %
04.12.2016 16:46 -0,6 C 88 % 1028,9 hPa 0,0 l/m 12,2 km/h (2 Bft) O-NO 67 0 min 0,000 mm 0,0 UV-I 0 W/m -2,3 C -5,8 C 16,1 km/h (3 Bft) 97,56 %
04.12.2016 16:48 -0,7 C 88 % 1029,0 hPa 0,0 l/m 12,8 km/h (3 Bft) O-NO 59 0 min 0,000 mm 0,0 UV-I 0 W/m -2,4 C -6,4 C 19,3 km/h (3 Bft) 95,24 %
04.12.2016 16:50 -0,7 C 88 % 1029,0 hPa 0,0 l/m 12,9 km/h (3 Bft) O-NO 61 0 min 0,000 mm 0,0 UV-I 0 W/m -2,4 C -6,5 C 19,3 km/h (3 Bft) 100,00 %
04.12.2016 16:52 -0,7 C 89 % 1029,0 hPa 0,0 l/m 12,5 km/h (3 Bft) O-NO 78 0 min 0,000 mm 0,0 UV-I 0 W/m -2,3 C -6,2 C 19,3 km/h (3 Bft) 100,00 %
04.12.2016 16:54 -0,7 C 89 % 1029,0 hPa 0,0 l/m 12,8 km/h (3 Bft) NO 47 0 min 0,000 mm 0,0 UV-I 0 W/m -2,3 C -6,4 C 19,3 km/h (3 Bft) 97,37 %
04.12.2016 16:56 -0,8 C 89 % 1029,0 hPa 0,0 l/m 10,9 km/h (2 Bft) O-NO 65 0 min 0,000 mm 0,0 UV-I 0 W/m -2,4 C -5,1 C 17,7 km/h (3 Bft) 100,00 %
04.12.2016 16:58 -0,8 C 89 % 1029,0 hPa 0,0 l/m 15,4 km/h (3 Bft) NO 55 0 min 0,000 mm 0,0 UV-I 0 W/m -2,4 C -8,2 C 22,5 km/h (4 Bft) 100,00 %
04.12.2016 17:00 -0,8 C 89 % 1029,0 hPa 0,0 l/m 12,6 km/h (3 Bft) NO 54 0 min 0,000 mm 0,0 UV-I 0 W/m -2,4 C -6,4 C 17,7 km/h (3 Bft) 100,00 %
04.12.2016 17:02 -0,8 C 89 % 1029,1 hPa 0,0 l/m 11,3 km/h (2 Bft) O-NO 57 0 min 0,026 mm 0,0 UV-I 0 W/m -2,4 C -5,4 C 16,1 km/h (3 Bft) 100,00 %
04.12.2016 17:04 -0,8 C 89 % 1029,1 hPa 0,0 l/m 11,4 km/h (2 Bft) NO 52 0 min 0,000 mm 0,0 UV-I 0 W/m -2,4 C -5,5 C 16,1 km/h (3 Bft) 100,00 %
04.12.2016 17:06 -0,8 C 89 % 1029,1 hPa 0,0 l/m 12,7 km/h (3 Bft) O-NO 63 0 min 0,000 mm 0,0 UV-I 0 W/m -2,4 C -6,4 C 19,3 km/h (3 Bft) 100,00 %
04.12.2016 17:08 -0,9 C 89 % 1029,1 hPa 0,0 l/m 11,5 km/h (2 Bft) O-NO 59 0 min 0,000 mm 0,0 UV-I 0 W/m -2,5 C -5,7 C 17,7 km/h (3 Bft) 98,21 %
04.12.2016 17:10 -0,8 C 89 % 1029,1 hPa 0,0 l/m 13,7 km/h (3 Bft) O-NO 78 0 min 0,000 mm 0,0 UV-I 0 W/m -2,4 C -7,1 C 17,7 km/h (3 Bft) 100,00 %
04.12.2016 17:12 -0,9 C 89 % 1029,1 hPa 0,0 l/m 12,4 km/h (3 Bft) NO 46 0 min 0,000 mm 0,0 UV-I 0 W/m -2,5 C -6,3 C 17,7 km/h (3 Bft) 98,11 %
04.12.2016 17:14 -0,9 C 89 % 1029,1 hPa 0,0 l/m 11,4 km/h (2 Bft) O-NO 63 0 min 0,000 mm 0,0 UV-I 0 W/m -2,5 C -5,6 C 17,7 km/h (3 Bft) 100,00 %
04.12.2016 17:16 -0,9 C 89 % 1029,1 hPa 0,0 l/m 12,5 km/h (3 Bft) NO 49 0 min 0,000 mm 0,0 UV-I 0 W/m -2,5 C -6,4 C 17,7 km/h (3 Bft) 97,56 %
04.12.2016 17:18 -0,9 C 89 % 1029,1 hPa 0,0 l/m 8,9 km/h (2 Bft) O 87 0 min 0,000 mm 0,0 UV-I 0 W/m -2,5 C -3,5 C 14,5 km/h (3 Bft) 100,00 %
04.12.2016 17:20 -1,0 C 89 % 1029,1 hPa 0,0 l/m 8,0 km/h (2 Bft) O-NO 63 0 min 0,000 mm 0,0 UV-I 0 W/m -2,6 C -2,7 C 14,5 km/h (3 Bft) 97,87 %
04.12.2016 17:22 -1,0 C 90 % 1029,1 hPa 0,0 l/m 9,8 km/h (2 Bft) O-NO 61 0 min 0,000 mm 0,0 UV-I 0 W/m -2,4 C -4,4 C 16,1 km/h (3 Bft) 100,00 %
04.12.2016 17:24 -1,1 C 90 % 1029,1 hPa 0,0 l/m 7,4 km/h (2 Bft) O-NO 65 0 min 0,000 mm 0,0 UV-I 0 W/m -2,5 C -2,2 C 12,9 km/h (3 Bft) 100,00 %
04.12.2016 17:26 -1,1 C 90 % 1029,2 hPa 0,0 l/m 7,2 km/h (2 Bft) O-NO 57 0 min 0,000 mm 0,0 UV-I 0 W/m -2,5 C -2,0 C 11,3 km/h (2 Bft) 98,11 %
04.12.2016 17:28 -1,1 C 90 % 1029,2 hPa 0,0 l/m 10,0 km/h (2 Bft) NO 48 0 min 0,000 mm 0,0 UV-I 0 W/m -2,5 C -4,7 C 16,1 km/h (3 Bft) 100,00 %
04.12.2016 17:30 -1,2 C 90 % 1029,2 hPa 0,0 l/m 10,3 km/h (2 Bft) O-NO 72 0 min 0,000 mm 0,0 UV-I 0 W/m -2,6 C -5,0 C 16,1 km/h (3 Bft) 100,00 %
04.12.2016 17:32 -1,2 C 90 % 1029,2 hPa 0,0 l/m 7,9 km/h (2 Bft) O-NO 63 0 min 0,000 mm 0,0 UV-I 0 W/m -2,6 C -2,8 C 12,9 km/h (3 Bft) 100,00 %
04.12.2016 17:34 -1,2 C 90 % 1029,2 hPa 0,0 l/m 10,8 km/h (2 Bft) O-NO 61 0 min 0,000 mm 0,0 UV-I 0 W/m -2,6 C -5,4 C 14,5 km/h (3 Bft) 100,00 %
04.12.2016 17:36 -1,2 C 90 % 1029,3 hPa 0,0 l/m 8,1 km/h (2 Bft) NO 55 0 min 0,000 mm 0,0 UV-I 0 W/m -2,6 C -3,0 C 14,5 km/h (3 Bft) 97,87 %
04.12.2016 17:38 -1,3 C 90 % 1029,3 hPa 0,0 l/m 9,7 km/h (2 Bft) O-NO 73 0 min 0,000 mm 0,0 UV-I 0 W/m -2,7 C -4,6 C 16,1 km/h (3 Bft) 98,21 %
04.12.2016 17:40 -1,3 C 90 % 1029,3 hPa 0,0 l/m 10,3 km/h (2 Bft) O-NO 69 0 min 0,000 mm 0,0 UV-I 0 W/m -2,7 C -5,1 C 16,1 km/h (3 Bft) 94,74 %
04.12.2016 17:42 -1,3 C 91 % 1029,3 hPa 0,0 l/m 8,9 km/h (2 Bft) O-NO 65 0 min 0,000 mm 0,0 UV-I 0 W/m -2,6 C -3,9 C 12,9 km/h (3 Bft) 96,23 %
04.12.2016 17:44 -1,3 C 91 % 1029,4 hPa 0,0 l/m 6,3 km/h (2 Bft) O-NO 67 0 min 0,000 mm 0,0 UV-I 0 W/m -2,6 C -1,3 C 9,7 km/h (2 Bft) 97,73 %
04.12.2016 17:46 -1,3 C 91 % 1029,3 hPa 0,0 l/m 7,3 km/h (2 Bft) O-NO 71 0 min 0,000 mm 0,0 UV-I 0 W/m -2,6 C -2,3 C 11,3 km/h (2 Bft) 96,00 %
04.12.2016 17:48 -1,3 C 91 % 1029,4 hPa 0,0 l/m 9,2 km/h (2 Bft) O-NO 63 0 min 0,000 mm 0,0 UV-I 0 W/m -2,6 C -4,2 C 16,1 km/h (3 Bft) 97,87 %
04.12.2016 17:50 -1,3 C 91 % 1029,4 hPa 0,0 l/m 9,5 km/h (2 Bft) O-NO 61 0 min 0,000 mm 0,0 UV-I 0 W/m -2,6 C -4,4 C 14,5 km/h (3 Bft) 100,00 %
04.12.2016 17:52 -1,3 C 91 % 1029,4 hPa 0,0 l/m 8,0 km/h (2 Bft) O-NO 58 0 min 0,000 mm 0,0 UV-I 0 W/m -2,6 C -3,0 C 12,9 km/h (3 Bft) 95,31 %
04.12.2016 17:54 -1,3 C 91 % 1029,4 hPa 0,0 l/m 7,8 km/h (2 Bft) O 81 0 min 0,000 mm 0,0 UV-I 0 W/m -2,6 C -2,8 C 14,5 km/h (3 Bft) 97,73 %
04.12.2016 17:56 -1,3 C 91 % 1029,4 hPa 0,0 l/m 8,5 km/h (2 Bft) NO 52 0 min 0,000 mm 0,0 UV-I 0 W/m -2,6 C -3,5 C 14,5 km/h (3 Bft) 98,21 %
04.12.2016 17:58 -1,4 C 91 % 1029,4 hPa 0,0 l/m 6,5 km/h (2 Bft) NO 55 0 min 0,000 mm 0,0 UV-I 0 W/m -2,7 C -1,5 C 11,3 km/h (2 Bft) 94,74 %
04.12.2016 18:00 -1,4 C 91 % 1029,3 hPa 0,0 l/m 9,1 km/h (2 Bft) O-NO 58 0 min 0,000 mm 0,0 UV-I 0 W/m -2,7 C -4,2 C 16,1 km/h (3 Bft) 96,43 %
04.12.2016 18:02 -1,4 C 91 % 1029,4 hPa 0,0 l/m 8,5 km/h (2 Bft) O-NO 61 0 min 0,000 mm 0,0 UV-I 0 W/m -2,7 C -3,6 C 14,5 km/h (3 Bft) 97,56 %
04.12.2016 18:04 -1,4 C 91 % 1029,4 hPa 0,0 l/m 5,1 km/h (1 Bft) O-NO 61 0 min 0,000 mm 0,0 UV-I 0 W/m -2,7 C -1,4 C 9,7 km/h (2 Bft) 95,74 %
04.12.2016 18:06 -1,4 C 91 % 1029,4 hPa 0,0 l/m 6,4 km/h (2 Bft) O-NO 60 0 min 0,000 mm 0,0 UV-I 0 W/m -2,7 C -1,4 C 9,7 km/h (2 Bft) 100,00 %
04.12.2016 18:08 -1,5 C 91 % 1029,3 hPa 0,0 l/m 5,0 km/h (1 Bft) O-NO 61 0 min 0,000 mm 0,0 UV-I 0 W/m -2,8 C -1,5 C 8,0 km/h (2 Bft) 96,00 %
04.12.2016 18:10 -1,6 C 91 % 1029,4 hPa 0,0 l/m 7,5 km/h (2 Bft) O-NO 65 0 min 0,000 mm 0,0 UV-I 0 W/m -2,9 C -2,8 C 12,9 km/h (3 Bft) 100,00 %
04.12.2016 18:12 -1,6 C 91 % 1029,4 hPa 0,0 l/m 8,3 km/h (2 Bft) O-NO 57 0 min 0,000 mm 0,0 UV-I 0 W/m -2,9 C -3,6 C 12,9 km/h (3 Bft) 100,00 %
04.12.2016 18:14 -1,6 C 92 % 1029,4 hPa 0,0 l/m 6,7 km/h (2 Bft) O-NO 70 0 min 0,000 mm 0,0 UV-I 0 W/m -2,7 C -1,9 C 8,0 km/h (2 Bft) 97,87 %
04.12.2016 18:16 -1,6 C 92 % 1029,4 hPa 0,0 l/m 7,1 km/h (2 Bft) O-NO 60 0 min 0,000 mm 0,0 UV-I 0 W/m -2,7 C -2,4 C 9,7 km/h (2 Bft) 100,00 %
04.12.2016 18:18 -1,6 C 92 % 1029,4 hPa 0,0 l/m 7,1 km/h (2 Bft) NO 54 0 min 0,000 mm 0,0 UV-I 0 W/m -2,7 C -2,4 C 11,3 km/h (2 Bft) 100,00 %
04.12.2016 18:20 -1,6 C 92 % 1029,4 hPa 0,0 l/m 7,0 km/h (2 Bft) O-NO 57 0 min 0,000 mm 0,0 UV-I 0 W/m -2,7 C -2,3 C 9,7 km/h (2 Bft) 97,87 %
04.12.2016 18:22 -1,6 C 92 % 1029,4 hPa 0,0 l/m 8,2 km/h (2 Bft) O-NO 57 0 min 0,000 mm 0,0 UV-I 0 W/m -2,7 C -3,5 C 14,5 km/h (3 Bft) 100,00 %
04.12.2016 18:24 -1,6 C 92 % 1029,3 hPa 0,0 l/m 7,5 km/h (2 Bft) NO 55 0 min 0,000 mm 0,0 UV-I 0 W/m -2,7 C -2,8 C 12,9 km/h (3 Bft) 100,00 %
04.12.2016 18:26 -1,7 C 92 % 1029,3 hPa 0,0 l/m 6,2 km/h (2 Bft) NO 55 0 min 0,000 mm 0,0 UV-I 0 W/m -2,8 C -1,7 C 9,7 km/h (2 Bft) 100,00 %
04.12.2016 18:28 -1,7 C 92 % 1029,3 hPa 0,0 l/m 6,6 km/h (2 Bft) NO 41 0 min 0,000 mm 0,0 UV-I 0 W/m -2,8 C -1,9 C 9,7 km/h (2 Bft) 100,00 %
04.12.2016 18:30 -1,7 C 92 % 1029,4 hPa 0,0 l/m 6,7 km/h (2 Bft) O-NO 63 0 min 0,000 mm 0,0 UV-I 0 W/m -2,8 C -2,0 C 9,7 km/h (2 Bft) 100,00 %
04.12.2016 18:32 -1,7 C 92 % 1029,3 hPa 0,0 l/m 4,3 km/h (1 Bft) O-NO 65 0 min 0,000 mm 0,0 UV-I 0 W/m -2,8 C -1,7 C 6,4 km/h (2 Bft) 100,00 %
04.12.2016 18:34 -1,7 C 92 % 1029,4 hPa 0,0 l/m 4,1 km/h (1 Bft) O-NO 63 0 min 0,000 mm 0,0 UV-I 0 W/m -2,8 C -1,7 C 8,0 km/h (2 Bft) 100,00 %
04.12.2016 18:36 -1,8 C 92 % 1029,4 hPa 0,0 l/m 5,2 km/h (1 Bft) O-NO 62 0 min 0,000 mm 0,0 UV-I 0 W/m -2,9 C -1,8 C 8,0 km/h (2 Bft) 100,00 %
04.12.2016 18:38 -1,8 C 92 % 1029,4 hPa 0,0 l/m 4,7 km/h (1 Bft) O-NO 61 0 min 0,000 mm 0,0 UV-I 0 W/m -2,9 C -1,8 C 6,4 km/h (2 Bft) 100,00 %
04.12.2016 18:40 -1,9 C 92 % 1029,3 hPa 0,0 l/m 3,5 km/h (1 Bft) O-NO 67 0 min 0,000 mm 0,0 UV-I 0 W/m -3,0 C -1,9 C 6,4 km/h (2 Bft) 100,00 %
04.12.2016 18:42 -1,9 C 92 % 1029,3 hPa 0,0 l/m 6,0 km/h (2 Bft) NO 42 0 min 0,000 mm 0,0 UV-I 0 W/m -3,0 C -1,9 C 8,0 km/h (2 Bft) 100,00 %
04.12.2016 18:44 -1,9 C 92 % 1029,3 hPa 0,0 l/m 4,2 km/h (1 Bft) NO 53 0 min 0,000 mm 0,0 UV-I 0 W/m -3,0 C -1,9 C 6,4 km/h (2 Bft) 100,00 %
04.12.2016 18:46 -1,9 C 93 % 1029,3 hPa 0,0 l/m 4,6 km/h (1 Bft) NO 47 0 min 0,000 mm 0,0 UV-I 0 W/m -2,9 C -1,9 C 6,4 km/h (2 Bft) 100,00 %
04.12.2016 18:48 -2,0 C 93 % 1029,3 hPa 0,0 l/m 3,8 km/h (1 Bft) NO 51 0 min 0,000 mm 0,0 UV-I 0 W/m -3,0 C -2,0 C 6,4 km/h (2 Bft) 100,00 %
04.12.2016 18:50 -2,0 C 93 % 1029,4 hPa 0,0 l/m 5,0 km/h (1 Bft) N-NO 32 0 min 0,000 mm 0,0 UV-I 0 W/m -3,0 C -2,0 C 6,4 km/h (2 Bft) 97,87 %
04.12.2016 18:52 -2,1 C 93 % 1029,4 hPa 0,0 l/m 4,8 km/h (1 Bft) O-NO 68 0 min 0,000 mm 0,0 UV-I 0 W/m -3,1 C -2,1 C 8,0 km/h (2 Bft) 100,00 %
04.12.2016 18:54 -2,1 C 93 % 1029,4 hPa 0,0 l/m 5,7 km/h (1 Bft) NO 49 0 min 0,000 mm 0,0 UV-I 0 W/m -3,1 C -2,1 C 9,7 km/h (2 Bft) 100,00 %
04.12.2016 18:56 -2,2 C 93 % 1029,4 hPa 0,0 l/m 6,0 km/h (2 Bft) N-NO 30 0 min 0,000 mm 0,0 UV-I 0 W/m -3,2 C -2,2 C 11,3 km/h (2 Bft) 100,00 %
04.12.2016 18:58 -2,2 C 93 % 1029,4 hPa 0,0 l/m 7,0 km/h (2 Bft) NO 40 0 min 0,000 mm 0,0 UV-I 0 W/m -3,2 C -2,9 C 11,3 km/h (2 Bft) 100,00 %
04.12.2016 19:00 -2,2 C 93 % 1029,5 hPa 0,0 l/m 7,6 km/h (2 Bft) N-NO 30 0 min 0,000 mm 0,0 UV-I 0 W/m -3,2 C -3,5 C 9,7 km/h (2 Bft) 100,00 %
04.12.2016 19:02 -2,2 C 93 % 1029,5 hPa 0,0 l/m 7,1 km/h (2 Bft) NO 34 0 min 0,000 mm 0,0 UV-I 0 W/m -3,2 C -3,0 C 9,7 km/h (2 Bft) 98,11 %
04.12.2016 19:04 -2,2 C 93 % 1029,5 hPa 0,0 l/m 6,2 km/h (2 Bft) NO 37 0 min 0,000 mm 0,0 UV-I 0 W/m -3,2 C -2,2 C 9,7 km/h (2 Bft) 100,00 %
04.12.2016 19:06 -2,2 C 93 % 1029,5 hPa 0,0 l/m 6,0 km/h (2 Bft) NO 51 0 min 0,000 mm 0,0 UV-I 0 W/m -3,2 C -2,2 C 9,7 km/h (2 Bft) 95,74 %
04.12.2016 19:08 -2,2 C 93 % 1029,5 hPa 0,0 l/m 5,4 km/h (1 Bft) NO 36 0 min 0,000 mm 0,0 UV-I 0 W/m -3,2 C -2,2 C 9,7 km/h (2 Bft) 100,00 %
04.12.2016 19:10 -2,2 C 93 % 1029,5 hPa 0,0 l/m 6,8 km/h (2 Bft) O-NO 67 0 min 0,000 mm 0,0 UV-I 0 W/m -3,2 C -2,6 C 9,7 km/h (2 Bft) 98,11 %
04.12.2016 19:12 -2,2 C 93 % 1029,5 hPa 0,0 l/m 6,5 km/h (2 Bft) NO 36 0 min 0,000 mm 0,0 UV-I 0 W/m -3,2 C -2,3 C 11,3 km/h (2 Bft) 100,00 %
04.12.2016 19:14 -2,2 C 93 % 1029,5 hPa 0,0 l/m 6,8 km/h (2 Bft) N-NO 19 0 min 0,000 mm 0,0 UV-I 0 W/m -3,2 C -2,6 C 8,0 km/h (2 Bft) 98,21 %
04.12.2016 19:16 -2,2 C 93 % 1029,5 hPa 0,0 l/m 5,8 km/h (2 Bft) NO 49 0 min 0,000 mm 0,0 UV-I 0 W/m -3,2 C -2,2 C 9,7 km/h (2 Bft) 97,37 %
04.12.2016 19:18 -2,1 C 93 % 1029,5 hPa 0,0 l/m 7,6 km/h (2 Bft) NO 36 0 min 0,000 mm 0,0 UV-I 0 W/m -3,1 C -3,4 C 14,5 km/h (3 Bft) 100,00 %
04.12.2016 19:20 -2,1 C 93 % 1029,5 hPa 0,0 l/m 8,7 km/h (2 Bft) NO 49 0 min 0,000 mm 0,0 UV-I 0 W/m -3,1 C -4,6 C 12,9 km/h (3 Bft) 100,00 %
04.12.2016 19:22 -2,1 C 93 % 1029,5 hPa 0,0 l/m 7,2 km/h (2 Bft) NO 49 0 min 0,000 mm 0,0 UV-I 0 W/m -3,1 C -3,0 C 11,3 km/h (2 Bft) 98,00 %
04.12.2016 19:24 -2,1 C 93 % 1029,5 hPa 0,0 l/m 7,2 km/h (2 Bft) NO 53 0 min 0,000 mm 0,0 UV-I 0 W/m -3,1 C -3,0 C 9,7 km/h (2 Bft) 100,00 %
04.12.2016 19:26 -2,1 C 93 % 1029,5 hPa 0,0 l/m 6,0 km/h (2 Bft) NO 39 0 min 0,000 mm 0,0 UV-I 0 W/m -3,1 C -2,1 C 9,7 km/h (2 Bft) 100,00 %
04.12.2016 19:28 -2,1 C 93 % 1029,5 hPa 0,0 l/m 6,1 km/h (2 Bft) O-NO 71 0 min 0,000 mm 0,0 UV-I 0 W/m -3,1 C -2,1 C 9,7 km/h (2 Bft) 97,44 %
04.12.2016 19:30 -2,1 C 93 % 1029,5 hPa 0,0 l/m 5,5 km/h (1 Bft) NO 54 0 min 0,000 mm 0,0 UV-I 0 W/m -3,1 C -2,1 C 9,7 km/h (2 Bft) 100,00 %
04.12.2016 19:32 -2,1 C 93 % 1029,5 hPa 0,0 l/m 5,7 km/h (1 Bft) O 82 0 min 0,000 mm 0,0 UV-I 0 W/m -3,1 C -2,1 C 8,0 km/h (2 Bft) 98,00 %
04.12.2016 19:34 -2,1 C 93 % 1029,6 hPa 0,0 l/m 6,2 km/h (2 Bft) NO 52 0 min 0,000 mm 0,0 UV-I 0 W/m -3,1 C -2,1 C 8,0 km/h (2 Bft) 100,00 %
04.12.2016 19:36 -2,1 C 93 % 1029,6 hPa 0,0 l/m 6,3 km/h (2 Bft) NO 50 0 min 0,000 mm 0,0 UV-I 0 W/m -3,1 C -2,1 C 9,7 km/h (2 Bft) 95,45 %
04.12.2016 19:38 -2,0 C 93 % 1029,5 hPa 0,0 l/m 6,7 km/h (2 Bft) NO 44 0 min 0,000 mm 0,0 UV-I 0 W/m -3,0 C -2,3 C 11,3 km/h (2 Bft) 100,00 %
04.12.2016 19:40 -2,0 C 93 % 1029,6 hPa 0,0 l/m 7,5 km/h (2 Bft) O-NO 65 0 min 0,000 mm 0,0 UV-I 0 W/m -3,0 C -3,2 C 12,9 km/h (3 Bft) 100,00 %
04.12.2016 19:42 -2,0 C 93 % 1029,5 hPa 0,0 l/m 7,2 km/h (2 Bft) NO 41 0 min 0,000 mm 0,0 UV-I 0 W/m -3,0 C -2,9 C 9,7 km/h (2 Bft) 98,11 %
04.12.2016 19:44 -2,0 C 93 % 1029,5 hPa 0,0 l/m 8,2 km/h (2 Bft) NO 39 0 min 0,000 mm 0,0 UV-I 0 W/m -3,0 C -4,0 C 14,5 km/h (3 Bft) 97,37 %
04.12.2016 19:46 -2,0 C 93 % 1029,5 hPa 0,0 l/m 8,4 km/h (2 Bft) NO 42 0 min 0,000 mm 0,0 UV-I 0 W/m -3,0 C -4,2 C 14,5 km/h (3 Bft) 94,34 %
04.12.2016 19:48 -1,9 C 93 % 1029,6 hPa 0,0 l/m 8,2 km/h (2 Bft) NO 49 0 min 0,000 mm 0,0 UV-I 0 W/m -2,9 C -3,8 C 16,1 km/h (3 Bft) 98,00 %
04.12.2016 19:50 -1,9 C 93 % 1029,6 hPa 0,0 l/m 9,6 km/h (2 Bft) NO 49 0 min 0,000 mm 0,0 UV-I 0 W/m -2,9 C -5,2 C 14,5 km/h (3 Bft) 97,56 %
04.12.2016 19:52 -1,9 C 93 % 1029,6 hPa 0,0 l/m 9,2 km/h (2 Bft) NO 43 0 min 0,000 mm 0,0 UV-I 0 W/m -2,9 C -4,8 C 12,9 km/h (3 Bft) 97,87 %
04.12.2016 19:54 -1,9 C 93 % 1029,5 hPa 0,0 l/m 5,7 km/h (1 Bft) N-NO 33 0 min 0,000 mm 0,0 UV-I 0 W/m -2,9 C -1,9 C 9,7 km/h (2 Bft) 96,00 %
04.12.2016 19:56 -1,8 C 93 % 1029,6 hPa 0,0 l/m 11,9 km/h (2 Bft) NO 56 0 min 0,000 mm 0,0 UV-I 0 W/m -2,8 C -7,0 C 19,3 km/h (3 Bft) 97,73 %
04.12.2016 19:58 -1,8 C 93 % 1029,6 hPa 0,0 l/m 11,0 km/h (2 Bft) O-NO 77 0 min 0,000 mm 0,0 UV-I 0 W/m -2,8 C -6,3 C 17,7 km/h (3 Bft) 97,56 %
04.12.2016 20:00 -1,7 C 93 % 1029,5 hPa 0,0 l/m 11,9 km/h (2 Bft) O-NO 59 0 min 0,000 mm 0,0 UV-I 0 W/m -2,7 C -6,9 C 17,7 km/h (3 Bft) 96,23 %
04.12.2016 20:02 -1,7 C 93 % 1029,5 hPa 0,0 l/m 11,1 km/h (2 Bft) NO 44 0 min 0,000 mm 0,0 UV-I 0 W/m -2,7 C -6,3 C 16,1 km/h (3 Bft) 97,62 %
04.12.2016 20:04 -1,7 C 93 % 1029,5 hPa 0,0 l/m 13,1 km/h (3 Bft) O-NO 65 0 min 0,000 mm 0,0 UV-I 0 W/m -2,7 C -7,8 C 19,3 km/h (3 Bft) 96,15 %
04.12.2016 20:06 -1,6 C 93 % 1029,5 hPa 0,0 l/m 14,6 km/h (3 Bft) O-NO 74 0 min 0,000 mm 0,0 UV-I 0 W/m -2,6 C -8,7 C 20,9 km/h (4 Bft) 95,24 %
04.12.2016 20:08 -1,6 C 93 % 1029,5 hPa 0,0 l/m 14,8 km/h (3 Bft) O-NO 59 0 min 0,000 mm 0,0 UV-I 0 W/m -2,6 C -8,8 C 20,9 km/h (4 Bft) 98,28 %
04.12.2016 20:10 -1,6 C 93 % 1029,5 hPa 0,0 l/m 10,3 km/h (2 Bft) O-NO 73 0 min 0,000 mm 0,0 UV-I 0 W/m -2,6 C -5,5 C 17,7 km/h (3 Bft) 95,24 %
04.12.2016 20:12 -1,5 C 93 % 1029,5 hPa 0,0 l/m 12,1 km/h (2 Bft) NO 55 0 min 0,000 mm 0,0 UV-I 0 W/m -2,5 C -6,8 C 16,1 km/h (3 Bft) 96,00 %
04.12.2016 20:14 -1,5 C 93 % 1029,5 hPa 0,0 l/m 10,4 km/h (2 Bft) N-NO 30 0 min 0,000 mm 0,0 UV-I 0 W/m -2,5 C -5,5 C 17,7 km/h (3 Bft) 97,56 %
04.12.2016 20:16 -1,5 C 93 % 1029,5 hPa 0,0 l/m 11,4 km/h (2 Bft) O-NO 65 0 min 0,000 mm 0,0 UV-I 0 W/m -2,5 C -6,3 C 17,7 km/h (3 Bft) 98,00 %
04.12.2016 20:18 -1,5 C 93 % 1029,5 hPa 0,0 l/m 12,4 km/h (3 Bft) O-NO 63 0 min 0,000 mm 0,0 UV-I 0 W/m -2,5 C -7,0 C 19,3 km/h (3 Bft) 97,56 %
04.12.2016 20:20 -1,5 C 93 % 1029,5 hPa 0,0 l/m 12,2 km/h (2 Bft) NO 56 0 min 0,000 mm 0,0 UV-I 0 W/m -2,5 C -6,9 C 19,3 km/h (3 Bft) 100,00 %
04.12.2016 20:22 -1,5 C 93 % 1029,5 hPa 0,0 l/m 13,6 km/h (3 Bft) NO 47 0 min 0,000 mm 0,0 UV-I 0 W/m -2,5 C -7,9 C 20,9 km/h (4 Bft) 97,56 %
04.12.2016 20:24 -1,4 C 93 % 1029,5 hPa 0,0 l/m 14,8 km/h (3 Bft) O-NO 76 0 min 0,000 mm 0,0 UV-I 0 W/m -2,4 C -8,6 C 20,9 km/h (4 Bft) 100,00 %
04.12.2016 20:26 -1,4 C 93 % 1029,5 hPa 0,0 l/m 17,9 km/h (3 Bft) O-NO 74 0 min 0,000 mm 0,0 UV-I 0 W/m -2,4 C -10,4 C 25,7 km/h (4 Bft) 100,00 %
04.12.2016 20:28 -1,4 C 93 % 1029,6 hPa 0,0 l/m 18,2 km/h (3 Bft) O 80 0 min 0,000 mm 0,0 UV-I 0 W/m -2,4 C -10,5 C 22,5 km/h (4 Bft) 100,00 %
04.12.2016 20:30 -1,4 C 93 % 1029,6 hPa 0,0 l/m 19,0 km/h (3 Bft) NO 48 0 min 0,000 mm 0,0 UV-I 0 W/m -2,4 C -10,9 C 22,5 km/h (4 Bft) 100,00 %
04.12.2016 20:32 -1,4 C 93 % 1029,6 hPa 0,0 l/m 17,1 km/h (3 Bft) NO 44 0 min 0,000 mm 0,0 UV-I 0 W/m -2,4 C -9,9 C 22,5 km/h (4 Bft) 97,87 %
04.12.2016 20:34 -1,4 C 92 % 1029,6 hPa 0,0 l/m 17,5 km/h (3 Bft) N-NO 18 0 min 0,000 mm 0,0 UV-I 0 W/m -2,5 C -10,1 C 25,7 km/h (4 Bft) 100,00 %
04.12.2016 20:36 -1,4 C 92 % 1029,7 hPa 0,0 l/m 21,8 km/h (4 Bft) NO 43 0 min 0,000 mm 0,0 UV-I 0 W/m -2,5 C -12,3 C 29,0 km/h (5 Bft) 100,00 %
04.12.2016 20:38 -1,3 C 92 % 1029,7 hPa 0,0 l/m 21,5 km/h (4 Bft) O 79 0 min 0,000 mm 0,0 UV-I 0 W/m -2,4 C -12,0 C 27,4 km/h (4 Bft) 100,00 %
04.12.2016 20:40 -1,3 C 92 % 1029,8 hPa 0,0 l/m 18,3 km/h (3 Bft) O-NO 59 0 min 0,000 mm 0,0 UV-I 0 W/m -2,4 C -10,5 C 29,0 km/h (5 Bft) 100,00 %
04.12.2016 20:42 -1,3 C 92 % 1029,7 hPa 0,0 l/m 19,6 km/h (3 Bft) O-NO 72 0 min 0,000 mm 0,0 UV-I 0 W/m -2,4 C -11,1 C 25,7 km/h (4 Bft) 100,00 %
04.12.2016 20:44 -1,3 C 92 % 1029,8 hPa 0,0 l/m 20,7 km/h (4 Bft) O-NO 73 0 min 0,000 mm 0,0 UV-I 0 W/m -2,4 C -11,6 C 27,4 km/h (4 Bft) 100,00 %
04.12.2016 20:46 -1,3 C 92 % 1029,7 hPa 0,0 l/m 19,8 km/h (3 Bft) O 82 0 min 0,000 mm 0,0 UV-I 0 W/m -2,4 C -11,2 C 27,4 km/h (4 Bft) 98,18 %
04.12.2016 20:48 -1,3 C 92 % 1029,8 hPa 0,0 l/m 16,7 km/h (3 Bft) O-NO 63 0 min 0,000 mm 0,0 UV-I 0 W/m -2,4 C -9,6 C 22,5 km/h (4 Bft) 100,00 %
04.12.2016 20:50 -1,3 C 92 % 1029,8 hPa 0,0 l/m 15,0 km/h (3 Bft) O-NO 58 0 min 0,000 mm 0,0 UV-I 0 W/m -2,4 C -8,6 C 19,3 km/h (3 Bft) 100,00 %
04.12.2016 20:52 -1,3 C 92 % 1029,7 hPa 0,0 l/m 10,9 km/h (2 Bft) NO 53 0 min 0,000 mm 0,0 UV-I 0 W/m -2,4 C -5,6 C 20,9 km/h (4 Bft) 97,87 %
04.12.2016 20:54 -1,3 C 92 % 1029,7 hPa 0,0 l/m 14,3 km/h (3 Bft) NO 51 0 min 0,000 mm 0,0 UV-I 0 W/m -2,4 C -8,1 C 19,3 km/h (3 Bft) 100,00 %
04.12.2016 20:56 -1,3 C 92 % 1029,7 hPa 0,0 l/m 13,0 km/h (3 Bft) O-NO 63 0 min 0,000 mm 0,0 UV-I 0 W/m -2,4 C -7,2 C 19,3 km/h (3 Bft) 98,11 %
04.12.2016 20:58 -1,3 C 92 % 1029,7 hPa 0,0 l/m 14,6 km/h (3 Bft) NO 46 0 min 0,000 mm 0,0 UV-I 0 W/m -2,4 C -8,3 C 19,3 km/h (3 Bft) 100,00 %
04.12.2016 21:00 -1,3 C 92 % 1029,7 hPa 0,0 l/m 15,1 km/h (3 Bft) O-NO 69 0 min 0,000 mm 0,0 UV-I 0 W/m -2,4 C -8,6 C 22,5 km/h (4 Bft) 100,00 %
04.12.2016 21:02 -1,3 C 92 % 1029,7 hPa 0,0 l/m 13,3 km/h (3 Bft) O-NO 67 0 min 0,000 mm 0,0 UV-I 0 W/m -2,4 C -7,4 C 19,3 km/h (3 Bft) 100,00 %
04.12.2016 21:04 -1,3 C 92 % 1029,7 hPa 0,0 l/m 14,4 km/h (3 Bft) O-NO 73 0 min 0,000 mm 0,0 UV-I 0 W/m -2,4 C -8,2 C 19,3 km/h (3 Bft) 100,00 %
04.12.2016 21:06 -1,3 C 92 % 1029,7 hPa 0,0 l/m 15,7 km/h (3 Bft) O-NO 62 0 min 0,000 mm 0,0 UV-I 0 W/m -2,4 C -9,0 C 19,3 km/h (3 Bft) 97,87 %
04.12.2016 21:08 -1,3 C 92 % 1029,7 hPa 0,0 l/m 15,5 km/h (3 Bft) O-NO 65 0 min 0,000 mm 0,0 UV-I 0 W/m -2,4 C -8,9 C 24,1 km/h (4 Bft) 100,00 %
04.12.2016 21:10 -1,3 C 92 % 1029,7 hPa 0,0 l/m 16,0 km/h (3 Bft) O-NO 77 0 min 0,000 mm 0,0 UV-I 0 W/m -2,4 C -9,2 C 20,9 km/h (4 Bft) 100,00 %
04.12.2016 21:12 -1,3 C 92 % 1029,7 hPa 0,0 l/m 11,2 km/h (2 Bft) O-NO 69 0 min 0,000 mm 0,0 UV-I 0 W/m -2,4 C -5,9 C 16,1 km/h (3 Bft) 100,00 %
04.12.2016 21:14 -1,3 C 92 % 1029,7 hPa 0,0 l/m 15,3 km/h (3 Bft) O 83 0 min 0,000 mm 0,0 UV-I 0 W/m -2,4 C -8,7 C 20,9 km/h (4 Bft) 95,45 %
04.12.2016 21:16 -1,3 C 92 % 1029,7 hPa 0,0 l/m 14,9 km/h (3 Bft) O-NO 70 0 min 0,000 mm 0,0 UV-I 0 W/m -2,4 C -8,5 C 20,9 km/h (4 Bft) 100,00 %
04.12.2016 21:18 -1,3 C 92 % 1029,7 hPa 0,0 l/m 19,8 km/h (3 Bft) O-NO 70 0 min 0,000 mm 0,0 UV-I 0 W/m -2,4 C -11,2 C 25,7 km/h (4 Bft) 100,00 %
04.12.2016 21:20 -1,3 C 92 % 1029,7 hPa 0,0 l/m 16,8 km/h (3 Bft) O 93 0 min 0,000 mm 0,0 UV-I 0 W/m -2,4 C -9,6 C 24,1 km/h (4 Bft) 100,00 %
04.12.2016 21:22 -1,4 C 92 % 1029,7 hPa 0,0 l/m 17,1 km/h (3 Bft) O-NO 58 0 min 0,000 mm 0,0 UV-I 0 W/m -2,5 C -9,9 C 22,5 km/h (4 Bft) 100,00 %
04.12.2016 21:24 -1,4 C 92 % 1029,7 hPa 0,0 l/m 16,7 km/h (3 Bft) O-NO 76 0 min 0,000 mm 0,0 UV-I 0 W/m -2,5 C -9,7 C 20,9 km/h (4 Bft) 100,00 %
04.12.2016 21:26 -1,4 C 92 % 1029,7 hPa 0,0 l/m 14,7 km/h (3 Bft) O-NO 67 0 min 0,000 mm 0,0 UV-I 0 W/m -2,5 C -8,5 C 22,5 km/h (4 Bft) 100,00 %
04.12.2016 21:28 -1,4 C 92 % 1029,7 hPa 0,0 l/m 15,9 km/h (3 Bft) O-NO 66 0 min 0,000 mm 0,0 UV-I 0 W/m -2,5 C -9,2 C 22,5 km/h (4 Bft) 100,00 %
04.12.2016 21:30 -1,4 C 92 % 1029,7 hPa 0,0 l/m 14,8 km/h (3 Bft) O-NO 68 0 min 0,000 mm 0,0 UV-I 0 W/m -2,5 C -8,6 C 20,9 km/h (4 Bft) 100,00 %
04.12.2016 21:32 -1,4 C 92 % 1029,8 hPa 0,0 l/m 14,5 km/h (3 Bft) O-NO 69 0 min 0,000 mm 0,0 UV-I 0 W/m -2,5 C -8,4 C 20,9 km/h (4 Bft) 97,87 %
04.12.2016 21:34 -1,4 C 92 % 1029,8 hPa 0,0 l/m 17,3 km/h (3 Bft) O-NO 77 0 min 0,000 mm 0,0 UV-I 0 W/m -2,5 C -10,0 C 24,1 km/h (4 Bft) 100,00 %
04.12.2016 21:36 -1,4 C 92 % 1029,8 hPa 0,0 l/m 18,0 km/h (3 Bft) O 80 0 min 0,000 mm 0,0 UV-I 0 W/m -2,5 C -10,4 C 24,1 km/h (4 Bft) 100,00 %
04.12.2016 21:38 -1,4 C 92 % 1029,9 hPa 0,0 l/m 17,3 km/h (3 Bft) O-NO 65 0 min 0,000 mm 0,0 UV-I 0 W/m -2,5 C -10,0 C 30,6 km/h (5 Bft) 100,00 %
04.12.2016 21:40 -1,4 C 92 % 1029,8 hPa 0,0 l/m 16,6 km/h (3 Bft) O 88 0 min 0,000 mm 0,0 UV-I 0 W/m -2,5 C -9,6 C 22,5 km/h (4 Bft) 97,73 %
04.12.2016 21:42 -1,4 C 92 % 1029,8 hPa 0,0 l/m 12,6 km/h (3 Bft) O-NO 76 0 min 0,000 mm 0,0 UV-I 0 W/m -2,5 C -7,1 C 17,7 km/h (3 Bft) 100,00 %
04.12.2016 21:44 -1,4 C 92 % 1029,8 hPa 0,0 l/m 16,8 km/h (3 Bft) O-NO 65 0 min 0,000 mm 0,0 UV-I 0 W/m -2,5 C -9,8 C 22,5 km/h (4 Bft) 100,00 %
04.12.2016 21:46 -1,4 C 92 % 1029,8 hPa 0,0 l/m 15,5 km/h (3 Bft) O 82 0 min 0,000 mm 0,0 UV-I 0 W/m -2,5 C -9,0 C 22,5 km/h (4 Bft) 100,00 %
04.12.2016 21:48 -1,4 C 92 % 1029,8 hPa 0,0 l/m 17,4 km/h (3 Bft) O-NO 77 0 min 0,000 mm 0,0 UV-I 0 W/m -2,5 C -10,1 C 27,4 km/h (4 Bft) 96,23 %
04.12.2016 21:50 -1,5 C 92 % 1029,8 hPa 0,0 l/m 14,5 km/h (3 Bft) O-NO 76 0 min 0,000 mm 0,0 UV-I 0 W/m -2,6 C -8,5 C 19,3 km/h (3 Bft) 97,56 %
04.12.2016 21:52 -1,5 C 92 % 1029,8 hPa 0,0 l/m 16,7 km/h (3 Bft) O 86 0 min 0,000 mm 0,0 UV-I 0 W/m -2,6 C -9,8 C 20,9 km/h (4 Bft) 98,00 %
04.12.2016 21:54 -1,4 C 93 % 1029,8 hPa 0,0 l/m 15,9 km/h (3 Bft) O-NO 65 0 min 0,000 mm 0,0 UV-I 0 W/m -2,4 C -9,2 C 22,5 km/h (4 Bft) 97,56 %
04.12.2016 21:56 -1,5 C 93 % 1029,8 hPa 0,0 l/m 14,5 km/h (3 Bft) O-NO 69 0 min 0,000 mm 0,0 UV-I 0 W/m -2,5 C -8,5 C 19,3 km/h (3 Bft) 98,00 %
04.12.2016 21:58 -1,5 C 93 % 1029,8 hPa 0,0 l/m 13,8 km/h (3 Bft) O-NO 72 0 min 0,000 mm 0,0 UV-I 0 W/m -2,5 C -8,0 C 19,3 km/h (3 Bft) 97,56 %
04.12.2016 22:00 -1,5 C 93 % 1029,8 hPa 0,0 l/m 15,8 km/h (3 Bft) O 86 0 min 0,000 mm 0,0 UV-I 0 W/m -2,5 C -9,3 C 22,5 km/h (4 Bft) 96,23 %
04.12.2016 22:02 -1,5 C 93 % 1029,7 hPa 0,0 l/m 14,2 km/h (3 Bft) O-NO 69 0 min 0,000 mm 0,0 UV-I 0 W/m -2,5 C -8,3 C 19,3 km/h (3 Bft) 98,00 %
04.12.2016 22:04 -1,5 C 93 % 1029,7 hPa 0,0 l/m 15,4 km/h (3 Bft) O-NO 65 0 min 0,000 mm 0,0 UV-I 0 W/m -2,5 C -9,0 C 22,5 km/h (4 Bft) 95,74 %
04.12.2016 22:06 -1,6 C 93 % 1029,7 hPa 0,0 l/m 12,8 km/h (3 Bft) O-NO 74 0 min 0,000 mm 0,0 UV-I 0 W/m -2,6 C -7,4 C 17,7 km/h (3 Bft) 100,00 %
04.12.2016 22:08 -1,5 C 93 % 1029,7 hPa 0,0 l/m 13,5 km/h (3 Bft) O 81 0 min 0,000 mm 0,0 UV-I 0 W/m -2,5 C -7,8 C 19,3 km/h (3 Bft) 96,23 %
04.12.2016 22:10 -1,6 C 93 % 1029,7 hPa 0,0 l/m 15,1 km/h (3 Bft) O 82 0 min 0,000 mm 0,0 UV-I 0 W/m -2,6 C -9,0 C 24,1 km/h (4 Bft) 98,31 %
04.12.2016 22:12 -1,6 C 93 % 1029,7 hPa 0,0 l/m 15,0 km/h (3 Bft) O 87 0 min 0,000 mm 0,0 UV-I 0 W/m -2,6 C -8,9 C 20,9 km/h (4 Bft) 97,73 %
04.12.2016 22:14 -1,6 C 93 % 1029,7 hPa 0,0 l/m 13,4 km/h (3 Bft) O-NO 71 0 min 0,000 mm 0,0 UV-I 0 W/m -2,6 C -7,9 C 19,3 km/h (3 Bft) 98,00 %
04.12.2016 22:16 -1,6 C 93 % 1029,7 hPa 0,0 l/m 10,8 km/h (2 Bft) O-NO 67 0 min 0,000 mm 0,0 UV-I 0 W/m -2,6 C -5,9 C 19,3 km/h (3 Bft) 97,87 %
04.12.2016 22:18 -1,6 C 93 % 1029,8 hPa 0,0 l/m 16,3 km/h (3 Bft) O-NO 74 0 min 0,000 mm 0,0 UV-I 0 W/m -2,6 C -9,7 C 22,5 km/h (4 Bft) 97,37 %
04.12.2016 22:20 -1,6 C 93 % 1029,8 hPa 0,0 l/m 18,2 km/h (3 Bft) O 86 0 min 0,000 mm 0,0 UV-I 0 W/m -2,6 C -10,8 C 27,4 km/h (4 Bft) 97,87 %
04.12.2016 22:22 -1,6 C 93 % 1029,8 hPa 0,0 l/m 17,5 km/h (3 Bft) O-NO 74 0 min 0,000 mm 0,0 UV-I 0 W/m -2,6 C -10,4 C 24,1 km/h (4 Bft) 98,11 %
04.12.2016 22:24 -1,6 C 93 % 1029,8 hPa 0,0 l/m 15,7 km/h (3 Bft) O-NO 74 0 min 0,000 mm 0,0 UV-I 0 W/m -2,6 C -9,4 C 24,1 km/h (4 Bft) 100,00 %
04.12.2016 22:26 -1,6 C 93 % 1029,7 hPa 0,0 l/m 17,8 km/h (3 Bft) O-NO 59 0 min 0,000 mm 0,0 UV-I 0 W/m -2,6 C -10,6 C 32,2 km/h (5 Bft) 100,00 %
04.12.2016 22:28 -1,6 C 93 % 1029,8 hPa 0,0 l/m 16,5 km/h (3 Bft) O-NO 63 0 min 0,000 mm 0,0 UV-I 0 W/m -2,6 C -9,8 C 20,9 km/h (4 Bft) 100,00 %
04.12.2016 22:30 -1,6 C 93 % 1029,7 hPa 0,0 l/m 17,3 km/h (3 Bft) O-NO 58 0 min 0,000 mm 0,0 UV-I 0 W/m -2,6 C -10,3 C 27,4 km/h (4 Bft) 100,00 %
04.12.2016 22:32 -1,7 C 93 % 1029,8 hPa 0,0 l/m 17,2 km/h (3 Bft) O-NO 59 0 min 0,000 mm 0,0 UV-I 0 W/m -2,7 C -10,4 C 22,5 km/h (4 Bft) 97,56 %
04.12.2016 22:34 -1,7 C 93 % 1029,8 hPa 0,0 l/m 16,5 km/h (3 Bft) NO 45 0 min 0,000 mm 0,0 UV-I 0 W/m -2,7 C -10,0 C 22,5 km/h (4 Bft) 100,00 %
04.12.2016 22:36 -1,7 C 93 % 1029,8 hPa 0,0 l/m 18,8 km/h (3 Bft) O 86 0 min 0,000 mm 0,0 UV-I 0 W/m -2,7 C -11,2 C 25,7 km/h (4 Bft) 100,00 %
04.12.2016 22:38 -1,7 C 93 % 1029,8 hPa 0,0 l/m 13,1 km/h (3 Bft) O-NO 69 0 min 0,000 mm 0,0 UV-I 0 W/m -2,7 C -7,8 C 19,3 km/h (3 Bft) 98,21 %
04.12.2016 22:40 -1,7 C 93 % 1029,8 hPa 0,0 l/m 11,2 km/h (2 Bft) O-NO 59 0 min 0,000 mm 0,0 UV-I 0 W/m -2,7 C -6,3 C 17,7 km/h (3 Bft) 100,00 %
04.12.2016 22:42 -1,7 C 93 % 1029,8 hPa 0,0 l/m 14,0 km/h (3 Bft) O-SO 107 0 min 0,000 mm 0,0 UV-I 0 W/m -2,7 C -8,4 C 20,9 km/h (4 Bft) 100,00 %
04.12.2016 22:44 -1,7 C 93 % 1029,8 hPa 0,0 l/m 14,5 km/h (3 Bft) O-NO 65 0 min 0,000 mm 0,0 UV-I 0 W/m -2,7 C -8,7 C 19,3 km/h (3 Bft) 100,00 %
04.12.2016 22:46 -1,7 C 93 % 1029,8 hPa 0,0 l/m 8,8 km/h (2 Bft) NO 38 0 min 0,000 mm 0,0 UV-I 0 W/m -2,7 C -4,2 C 16,1 km/h (3 Bft) 95,83 %
04.12.2016 22:48 -1,6 C 93 % 1029,8 hPa 0,0 l/m 13,5 km/h (3 Bft) O-NO 64 0 min 0,000 mm 0,0 UV-I 0 W/m -2,6 C -7,9 C 19,3 km/h (3 Bft) 100,00 %
04.12.2016 22:50 -1,6 C 93 % 1029,8 hPa 0,0 l/m 13,3 km/h (3 Bft) O-NO 57 0 min 0,000 mm 0,0 UV-I 0 W/m -2,6 C -7,8 C 19,3 km/h (3 Bft) 100,00 %
04.12.2016 22:52 -1,6 C 93 % 1029,9 hPa 0,0 l/m 14,7 km/h (3 Bft) O-NO 59 0 min 0,000 mm 0,0 UV-I 0 W/m -2,6 C -8,7 C 19,3 km/h (3 Bft) 100,00 %
04.12.2016 22:54 -1,6 C 93 % 1029,9 hPa 0,0 l/m 15,2 km/h (3 Bft) O-NO 64 0 min 0,000 mm 0,0 UV-I 0 W/m -2,6 C -9,0 C 19,3 km/h (3 Bft) 100,00 %
04.12.2016 22:56 -1,6 C 93 % 1029,9 hPa 0,0 l/m 14,3 km/h (3 Bft) O-NO 59 0 min 0,000 mm 0,0 UV-I 0 W/m -2,6 C -8,5 C 19,3 km/h (3 Bft) 100,00 %
04.12.2016 22:58 -1,6 C 93 % 1029,9 hPa 0,0 l/m 15,5 km/h (3 Bft) O-NO 69 0 min 0,000 mm 0,0 UV-I 0 W/m -2,6 C -9,2 C 20,9 km/h (4 Bft) 100,00 %
04.12.2016 23:00 -1,6 C 93 % 1029,9 hPa 0,0 l/m 16,5 km/h (3 Bft) NO 46 0 min 0,000 mm 0,0 UV-I 0 W/m -2,6 C -9,8 C 22,5 km/h (4 Bft) 100,00 %
04.12.2016 23:02 -1,6 C 93 % 1029,9 hPa 0,0 l/m 15,8 km/h (3 Bft) O-NO 67 0 min 0,000 mm 0,0 UV-I 0 W/m -2,6 C -9,4 C 20,9 km/h (4 Bft) 97,37 %
04.12.2016 23:04 -1,6 C 93 % 1029,9 hPa 0,0 l/m 15,6 km/h (3 Bft) O-NO 63 0 min 0,000 mm 0,0 UV-I 0 W/m -2,6 C -9,3 C 20,9 km/h (4 Bft) 100,00 %
04.12.2016 23:06 -1,6 C 93 % 1029,9 hPa 0,0 l/m 13,7 km/h (3 Bft) O-NO 57 0 min 0,000 mm 0,0 UV-I 0 W/m -2,6 C -8,1 C 22,5 km/h (4 Bft) 100,00 %
04.12.2016 23:08 -1,6 C 93 % 1029,8 hPa 0,0 l/m 13,9 km/h (3 Bft) O-NO 65 0 min 0,000 mm 0,0 UV-I 0 W/m -2,6 C -8,2 C 22,5 km/h (4 Bft) 100,00 %
04.12.2016 23:10 -1,6 C 93 % 1029,9 hPa 0,0 l/m 10,2 km/h (2 Bft) O-NO 60 0 min 0,000 mm 0,0 UV-I 0 W/m -2,6 C -5,4 C 14,5 km/h (3 Bft) 98,21 %
04.12.2016 23:12 -1,6 C 93 % 1029,9 hPa 0,0 l/m 10,2 km/h (2 Bft) O 80 0 min 0,000 mm 0,0 UV-I 0 W/m -2,6 C -5,4 C 14,5 km/h (3 Bft) 97,56 %
04.12.2016 23:14 -1,6 C 93 % 1029,8 hPa 0,0 l/m 10,5 km/h (2 Bft) O-NO 67 0 min 0,000 mm 0,0 UV-I 0 W/m -2,6 C -5,6 C 16,1 km/h (3 Bft) 100,00 %
04.12.2016 23:16 -1,6 C 93 % 1029,8 hPa 0,0 l/m 13,3 km/h (3 Bft) NO 45 0 min 0,000 mm 0,0 UV-I 0 W/m -2,6 C -7,8 C 19,3 km/h (3 Bft) 100,00 %
04.12.2016 23:18 -1,6 C 93 % 1029,8 hPa 0,0 l/m 17,8 km/h (3 Bft) O-NO 69 0 min 0,000 mm 0,0 UV-I 0 W/m -2,6 C -10,6 C 24,1 km/h (4 Bft) 100,00 %
04.12.2016 23:20 -1,6 C 93 % 1029,9 hPa 0,0 l/m 12,5 km/h (3 Bft) NO 46 0 min 0,000 mm 0,0 UV-I 0 W/m -2,6 C -7,2 C 19,3 km/h (3 Bft) 100,00 %
04.12.2016 23:22 -1,6 C 93 % 1029,9 hPa 0,0 l/m 11,5 km/h (2 Bft) NO 36 0 min 0,000 mm 0,0 UV-I 0 W/m -2,6 C -6,5 C 17,7 km/h (3 Bft) 100,00 %
04.12.2016 23:24 -1,6 C 93 % 1029,9 hPa 0,0 l/m 15,3 km/h (3 Bft) O 88 0 min 0,000 mm 0,0 UV-I 0 W/m -2,6 C -9,1 C 22,5 km/h (4 Bft) 100,00 %
04.12.2016 23:26 -1,6 C 93 % 1029,9 hPa 0,0 l/m 12,9 km/h (3 Bft) O-NO 67 0 min 0,000 mm 0,0 UV-I 0 W/m -2,6 C -7,5 C 17,7 km/h (3 Bft) 100,00 %
04.12.2016 23:28 -1,6 C 93 % 1029,9 hPa 0,0 l/m 14,6 km/h (3 Bft) NO 49 0 min 0,000 mm 0,0 UV-I 0 W/m -2,6 C -8,7 C 24,1 km/h (4 Bft) 100,00 %
04.12.2016 23:30 -1,6 C 93 % 1029,9 hPa 0,0 l/m 17,3 km/h (3 Bft) O-NO 58 0 min 0,000 mm 0,0 UV-I 0 W/m -2,6 C -10,3 C 22,5 km/h (4 Bft) 100,00 %
04.12.2016 23:32 -1,6 C 93 % 1029,9 hPa 0,0 l/m 18,6 km/h (3 Bft) O-NO 63 0 min 0,000 mm 0,0 UV-I 0 W/m -2,6 C -11,0 C 25,7 km/h (4 Bft) 100,00 %
04.12.2016 23:34 -1,6 C 93 % 1029,9 hPa 0,0 l/m 17,6 km/h (3 Bft) O 89 0 min 0,000 mm 0,0 UV-I 0 W/m -2,6 C -10,5 C 24,1 km/h (4 Bft) 100,00 %
04.12.2016 23:36 -1,6 C 93 % 1029,9 hPa 0,0 l/m 16,9 km/h (3 Bft) NO 47 0 min 0,000 mm 0,0 UV-I 0 W/m -2,6 C -10,1 C 22,5 km/h (4 Bft) 97,73 %
04.12.2016 23:38 -1,6 C 93 % 1029,8 hPa 0,0 l/m 17,4 km/h (3 Bft) O-NO 71 0 min 0,000 mm 0,0 UV-I 0 W/m -2,6 C -10,3 C 22,5 km/h (4 Bft) 100,00 %
04.12.2016 23:40 -1,6 C 93 % 1029,9 hPa 0,0 l/m 18,1 km/h (3 Bft) NO 53 0 min 0,000 mm 0,0 UV-I 0 W/m -2,6 C -10,7 C 25,7 km/h (4 Bft) 100,00 %
04.12.2016 23:42 -1,6 C 93 % 1029,8 hPa 0,0 l/m 17,4 km/h (3 Bft) NO 42 0 min 0,000 mm 0,0 UV-I 0 W/m -2,6 C -10,3 C 22,5 km/h (4 Bft) 100,00 %
04.12.2016 23:44 -1,6 C 93 % 1029,8 hPa 0,0 l/m 15,1 km/h (3 Bft) NO 51 0 min 0,000 mm 0,0 UV-I 0 W/m -2,6 C -9,0 C 22,5 km/h (4 Bft) 100,00 %
04.12.2016 23:46 -1,6 C 93 % 1029,8 hPa 0,0 l/m 17,6 km/h (3 Bft) O-NO 59 0 min 0,000 mm 0,0 UV-I 0 W/m -2,6 C -10,5 C 25,7 km/h (4 Bft) 100,00 %
04.12.2016 23:48 -1,6 C 93 % 1029,8 hPa 0,0 l/m 13,8 km/h (3 Bft) O 80 0 min 0,000 mm 0,0 UV-I 0 W/m -2,6 C -8,1 C 20,9 km/h (4 Bft) 97,73 %
04.12.2016 23:50 -1,6 C 93 % 1029,8 hPa 0,0 l/m 15,1 km/h (3 Bft) NO 55 0 min 0,000 mm 0,0 UV-I 0 W/m -2,6 C -9,0 C 22,5 km/h (4 Bft) 95,12 %
04.12.2016 23:53 -1,6 C 93 % 1029,8 hPa 0,0 l/m 16,1 km/h (3 Bft) O 100 0 min 0,000 mm 0,0 UV-I 0 W/m -2,6 C -9,6 C 20,9 km/h (4 Bft) 98,70 %
04.12.2016 23:54 -1,6 C 93 % 1029,8 hPa 0,0 l/m 14,5 km/h (3 Bft) O-NO 70 0 min 0,000 mm 0,0 UV-I 0 W/m -2,6 C -8,6 C 19,3 km/h (3 Bft) 96,15 %
04.12.2016 23:56 -1,6 C 93 % 1029,8 hPa 0,0 l/m 14,4 km/h (3 Bft) O 82 0 min 0,000 mm 0,0 UV-I 0 W/m -2,6 C -8,5 C 17,7 km/h (3 Bft) 95,12 %
04.12.2016 23:58 -1,6 C 93 % 1029,7 hPa 0,0 l/m 13,1 km/h (3 Bft) O 89 0 min 0,000 mm 0,0 UV-I 0 W/m -2,6 C -7,6 C 17,7 km/h (3 Bft) 97,56 %
_ Min-Zeit 07:54 14:24 00:00 - 08:06 - - - - - - 07:56 20:36 06:58 15:26
Minimum _ -4,4 C 84 % 1026,7 hPa - 0,5 km/h (0 Bft) - - - - - - -5,4 C -12,3 C 3,2 km/h (1 Bft) 91,84 %
_ Max-Zeit 14:04 06:56 21:38 10:40 20:36 - - 07:50 13:00 11:28 11:40 13:38 14:10 22:26 00:10
Maximum _ 0,9 C 94 % 1029,9 hPa 0,2 l/m 21,8 km/h
NO (4 Bft)
- - 2 min 0,127 mm 0,6 UV-I 347 W/m -1,3 C 0,4 C 32,2 km/h
O-NO (5 Bft)
100,00 %
Durchschnitt _ -1,9 C 91 % 1028,4 hPa #0,4 l/m 9,1 km/h (2 Bft) O-NO - #7:40 h #0,610 mm 0,5 UV-I 179 W/m -3,2 C -4,9 C 13,7 km/h (3 Bft) 98,64 %